[[{"header":{"parameterUnit":"m.s-1","parameterCategory":1,"la1":31.0,"la2":29.5877,"lo1":-88.7671,"lo2":-86.6584,"dy":0.0162,"dx":0.0185,"nx":115,"ny":88,"refTime":"2026-03-30T12:00:00:Z","depth":0,"parameterNumber":2,"parameterNumberName":"U-component_of_WINDS"},"data":[0.0,0.0,0.0,0.0,0.0,0.0,0.0,0.0,0.0,0.0,0.0,0.0,0.0,0.0,0.0,0.0,0.0,0.0,0.0,0.0,0.0,0.0,0.0,0.0,0.0,0.0,0.0,0.0,0.0,0.0,0.0,0.0,0.0,0.0,0.0,0.0,0.0,0.0,0.0,0.0,0.0,0.0,0.0,0.0,0.0,0.0,0.0,0.0,0.0,0.0,0.0,0.0,0.0,0.0,0.0,0.0,0.0,0.0,0.0,0.0,0.0,0.0,0.0,0.0,0.0,0.0,0.0,0.0,0.0,0.0,0.0,0.0,0.0,0.0,0.0,0.0,0.0,0.0,0.0,0.0,0.0,0.0,0.0,0.0,0.0,0.0,0.0,0.0,0.0,0.0,0.0,0.0,0.0,0.0,0.0,0.0,0.0,0.0,0.0,0.0,0.0,0.0,0.0,0.0,0.0,0.0,0.0,0.0,0.0,0.0,0.0,0.0,0.0,0.0,0.0,0.0,0.0,0.0,0.0,0.0,0.0,0.0,0.0,0.0,0.0,0.0,0.0,0.0,0.0,0.0,0.0,0.0,0.0,0.0,0.0,0.0,0.0,0.0,0.0,0.0,0.0,0.0,0.0,0.0,0.0,0.0,0.0,0.0,0.0,0.0,0.0,0.0,0.0,0.0,0.0,0.0,0.0,0.0,0.0,0.0,0.0,0.0,0.0,0.0,0.0,0.0,0.0,0.0,0.0,0.0,0.0,0.0,0.0,0.0,0.0,0.0,0.0,0.0,0.0,0.0,0.0,0.0,0.0,0.0,0.0,0.0,0.0,0.0,0.0,0.0,0.0,0.0,0.0,0.0,0.0,0.0,0.0,0.0,0.0,0.0,0.0,0.0,0.0,0.0,0.0,0.0,0.0,0.0,0.0,0.0,0.0,0.0,0.0,0.0,0.0,0.0,0.0,0.0,0.0,0.0,0.0,0.0,0.0,0.0,0.0,0.0,0.0,0.0,0.0,0.0,0.0,0.0,0.0,0.0,0.0,0.0,0.0,0.0,0.0,0.0,0.0,0.0,0.0,0.0,0.0,0.0,0.0,0.0,0.0,0.0,0.0,0.0,0.0,0.0,0.0,0.0,0.0,0.0,0.0,0.0,0.0,0.0,0.0,0.0,0.0,0.0,0.0,0.0,0.0,0.0,0.0,0.0,0.0,0.0,0.0,0.0,0.0,0.0,0.0,0.0,0.0,0.0,0.0,0.0,0.0,0.0,0.0,0.0,0.0,0.0,0.0,0.0,0.0,0.0,0.0,0.0,0.0,0.0,0.0,0.0,0.0,0.0,0.0,0.0,0.0,0.0,0.0,0.0,0.0,0.0,0.0,0.0,0.0,0.0,0.0,0.0,0.0,0.0,0.0,0.0,0.0,0.0,0.0,0.0,0.0,0.0,0.0,0.0,0.0,0.0,0.0,0.0,0.0,0.0,0.0,0.0,0.0,0.0,0.0,0.0,0.0,0.0,0.0,0.0,0.0,0.0,0.0,0.0,0.0,0.0,0.0,0.0,0.0,0.0,0.0,0.0,0.0,0.0,0.0,0.0,0.0,0.0,0.0,0.0,0.0,0.0,0.0,0.0,0.0,0.0,0.0,0.0,0.0,0.0,0.0,0.0,0.0,0.0,0.0,0.0,0.0,0.0,0.0,0.0,0.0,0.0,0.0,0.0,0.0,0.0,0.0,0.0,0.0,0.0,0.0,0.0,0.0,0.0,0.0,0.0,0.0,0.0,0.0,0.0,0.0,0.0,0.0,0.0,0.0,0.0,0.0,0.0,0.0,0.0,0.0,0.0,0.0,0.0,0.0,0.0,0.0,0.0,0.0,0.0,0.0,0.0,0.0,0.0,0.0,0.0,0.0,0.0,0.0,0.0,0.0,0.0,0.0,0.0,0.0,0.0,0.0,0.0,0.0,0.0,0.0,0.0,0.0,0.0,0.0,0.0,0.0,0.0,0.0,0.0,0.0,0.0,0.0,0.0,0.0,0.0,0.0,0.0,0.0,0.0,0.0,0.0,0.0,0.0,0.0,0.0,0.0,0.0,0.0,0.0,0.0,0.0,0.0,0.0,0.0,0.0,0.0,0.0,0.0,0.0,0.0,0.0,0.0,0.0,0.0,0.0,0.0,0.0,0.0,0.0,0.0,0.0,0.0,0.0,0.0,0.0,0.0,0.0,0.0,0.0,0.0,0.0,0.0,0.0,0.0,0.0,0.0,0.0,0.0,0.0,0.0,0.0,0.0,0.0,0.0,0.0,0.0,0.0,0.0,0.0,0.0,0.0,0.0,0.0,0.0,0.0,0.0,0.0,0.0,0.0,0.0,0.0,0.0,0.0,0.0,0.0,0.0,0.0,0.0,0.0,0.0,0.0,0.0,0.0,0.0,0.0,0.0,0.0,0.0,0.0,0.0,0.0,0.0,0.0,0.0,0.0,0.0,0.0,0.0,0.0,0.0,0.0,0.0,0.0,0.0,0.0,0.0,0.0,0.0,0.0,0.0,0.0,0.0,0.0,0.0,0.0,0.0,0.0,0.0,0.0,0.0,0.0,0.0,0.0,0.0,0.0,0.0,0.0,0.0,0.0,0.0,0.0,0.0,0.0,0.0,0.0,0.0,0.0,0.0,0.0,0.0,0.0,0.0,0.0,0.0,0.0,0.0,0.0,0.0,0.0,0.0,0.0,0.0,0.0,0.0,0.0,0.0,0.0,0.0,0.0,0.0,0.0,0.0,0.0,0.0,0.0,0.0,0.0,0.0,0.0,0.0,0.0,0.0,0.0,0.0,0.0,0.0,0.0,0.0,0.0,0.0,0.0,0.0,0.0,0.0,0.0,0.0,0.0,0.0,0.0,0.0,0.0,0.0,0.0,0.0,0.0,0.0,0.0,0.0,0.0,0.0,0.0,0.0,0.0,0.0,0.0,0.0,0.0,0.0,0.0,0.0,0.0,0.0,0.0,0.0,0.0,0.0,0.0,0.0,0.0,0.0,0.0,0.0,0.0,0.0,0.0,0.0,0.0,0.0,0.0,0.0,0.0,0.0,0.0,0.0,0.0,0.0,0.0,0.0,0.0,0.0,0.0,0.0,0.0,0.0,0.0,0.0,0.0,0.0,0.0,0.0,0.0,0.0,0.0,0.0,0.0,0.0,0.0,0.0,0.0,0.0,0.0,0.0,0.0,0.0,0.0,0.0,0.0,0.0,0.0,0.0,0.0,0.0,0.0,0.0,0.0,0.0,0.0,0.0,0.0,0.0,0.0,0.0,0.0,0.0,0.0,0.0,0.0,0.0,0.0,0.0,0.0,0.0,0.0,0.0,0.0,0.0,0.0,0.0,0.0,0.0,0.0,0.0,0.0,0.0,0.0,0.0,0.0,0.0,0.0,0.0,0.0,0.0,0.0,0.0,0.0,0.0,0.0,0.0,0.0,0.0,0.0,0.0,0.0,0.0,0.0,0.0,0.0,0.0,0.0,0.0,0.0,0.0,0.0,0.0,0.0,0.0,0.0,0.0,0.0,0.0,0.0,0.0,0.0,0.0,0.0,0.0,0.0,0.0,0.0,0.0,0.0,0.0,0.0,0.0,0.0,0.0,0.0,0.0,0.0,0.0,0.0,0.0,0.0,0.0,0.0,0.0,0.0,0.0,0.0,0.0,0.0,0.0,0.0,0.0,0.0,0.0,0.0,0.0,0.0,0.0,0.0,0.0,0.0,0.0,0.0,0.0,0.0,0.0,0.0,0.0,0.0,0.0,0.0,0.0,0.0,0.0,0.0,0.0,0.0,0.0,0.0,0.0,0.0,0.0,0.0,0.0,0.0,0.0,0.0,0.0,0.0,0.0,0.0,0.0,0.0,0.0,0.0,0.0,0.0,0.0,0.0,0.0,0.0,0.0,0.0,0.0,0.0,0.0,0.0,0.0,0.0,0.0,0.0,0.0,0.0,0.0,0.0,0.0,0.0,0.0,0.0,0.0,0.0,0.0,0.0,0.0,0.0,0.0,0.0,0.0,0.0,0.0,0.0,0.0,0.0,0.0,0.0,0.0,0.0,0.0,0.0,0.0,0.0,0.0,0.0,0.0,0.0,0.0,0.0,0.0,0.0,0.0,0.0,0.0,0.0,0.0,0.0,0.0,0.0,0.0,0.0,0.0,0.0,0.0,0.0,0.0,0.0,0.0,0.0,0.0,0.0,0.0,0.0,0.0,0.0,0.0,0.0,0.0,0.0,0.0,0.0,-5.0765,0.0,0.0,0.0,0.0,0.0,0.0,0.0,0.0,0.0,0.0,0.0,0.0,0.0,0.0,0.0,0.0,0.0,0.0,0.0,0.0,0.0,0.0,0.0,0.0,0.0,0.0,0.0,0.0,0.0,0.0,0.0,0.0,0.0,0.0,0.0,0.0,0.0,0.0,0.0,0.0,0.0,0.0,0.0,0.0,0.0,0.0,0.0,0.0,0.0,0.0,0.0,0.0,0.0,0.0,0.0,0.0,0.0,0.0,0.0,0.0,0.0,0.0,0.0,0.0,0.0,0.0,0.0,0.0,0.0,0.0,0.0,0.0,0.0,0.0,0.0,0.0,0.0,0.0,0.0,0.0,0.0,0.0,0.0,0.0,0.0,0.0,0.0,0.0,0.0,0.0,0.0,0.0,0.0,0.0,0.0,0.0,0.0,0.0,0.0,0.0,0.0,0.0,0.0,0.0,0.0,0.0,0.0,0.0,0.0,0.0,-5.3203,-5.3167,-5.1646,-5.0802,-5.0765,0.0,0.0,0.0,0.0,0.0,0.0,0.0,0.0,0.0,0.0,0.0,0.0,0.0,0.0,0.0,0.0,0.0,0.0,0.0,0.0,0.0,0.0,0.0,0.0,0.0,0.0,0.0,0.0,0.0,0.0,0.0,0.0,0.0,0.0,0.0,0.0,0.0,0.0,0.0,0.0,0.0,0.0,0.0,0.0,0.0,0.0,0.0,0.0,0.0,0.0,0.0,0.0,0.0,0.0,0.0,0.0,0.0,0.0,0.0,0.0,0.0,0.0,0.0,0.0,0.0,0.0,0.0,0.0,0.0,0.0,0.0,0.0,0.0,0.0,0.0,0.0,0.0,0.0,0.0,0.0,0.0,0.0,0.0,0.0,0.0,0.0,0.0,0.0,0.0,0.0,0.0,0.0,0.0,0.0,0.0,0.0,0.0,0.0,0.0,0.0,0.0,0.0,0.0,0.0,0.0,0.0,0.0,0.0,0.0,0.0,0.0,0.0,-5.1903,-5.0912,-5.0508,0.0,0.0,0.0,0.0,0.0,0.0,0.0,0.0,0.0,0.0,0.0,0.0,0.0,0.0,0.0,0.0,0.0,0.0,0.0,0.0,0.0,0.0,0.0,0.0,0.0,0.0,0.0,0.0,0.0,0.0,0.0,0.0,0.0,0.0,0.0,0.0,0.0,0.0,0.0,0.0,0.0,0.0,0.0,0.0,0.0,0.0,0.0,0.0,0.0,0.0,0.0,0.0,0.0,0.0,0.0,0.0,0.0,0.0,0.0,0.0,0.0,0.0,0.0,0.0,0.0,0.0,0.0,0.0,0.0,0.0,0.0,0.0,0.0,0.0,0.0,0.0,0.0,0.0,0.0,0.0,0.0,0.0,0.0,0.0,0.0,0.0,0.0,0.0,0.0,0.0,0.0,0.0,0.0,0.0,0.0,0.0,0.0,0.0,0.0,0.0,0.0,0.0,0.0,0.0,0.0,0.0,0.0,0.0,0.0,0.0,-5.3555,-5.4252,-5.2711,0.0,-4.9794,0.0,0.0,0.0,0.0,0.0,0.0,0.0,0.0,0.0,0.0,0.0,0.0,0.0,0.0,0.0,0.0,0.0,0.0,0.0,0.0,0.0,0.0,0.0,0.0,0.0,0.0,0.0,0.0,0.0,0.0,0.0,0.0,0.0,0.0,0.0,0.0,0.0,0.0,0.0,0.0,0.0,0.0,0.0,0.0,0.0,0.0,0.0,0.0,0.0,0.0,0.0,0.0,0.0,0.0,0.0,0.0,0.0,0.0,0.0,0.0,0.0,0.0,0.0,0.0,0.0,0.0,0.0,0.0,0.0,0.0,0.0,0.0,0.0,0.0,0.0,0.0,0.0,0.0,0.0,0.0,0.0,0.0,0.0,0.0,0.0,0.0,0.0,0.0,0.0,0.0,0.0,0.0,0.0,0.0,0.0,0.0,0.0,0.0,0.0,0.0,0.0,0.0,0.0,0.0,0.0,0.0,0.0,0.0,0.0,0.0,-5.4766,-5.5097,-5.3078,-5.1242,0.0,0.0,0.0,0.0,0.0,0.0,0.0,0.0,0.0,0.0,0.0,0.0,0.0,0.0,0.0,0.0,0.0,0.0,0.0,0.0,0.0,0.0,0.0,0.0,0.0,0.0,0.0,0.0,0.0,0.0,0.0,0.0,0.0,0.0,0.0,0.0,0.0,0.0,0.0,0.0,0.0,0.0,0.0,0.0,0.0,0.0,0.0,0.0,0.0,0.0,0.0,0.0,0.0,0.0,0.0,0.0,0.0,0.0,0.0,0.0,0.0,0.0,0.0,0.0,0.0,0.0,0.0,0.0,0.0,0.0,0.0,0.0,0.0,0.0,0.0,0.0,0.0,0.0,0.0,0.0,0.0,0.0,0.0,0.0,0.0,0.0,0.0,0.0,0.0,0.0,0.0,0.0,0.0,0.0,0.0,0.0,0.0,0.0,0.0,0.0,0.0,0.0,0.0,0.0,0.0,0.0,0.0,0.0,0.0,0.0,-5.4876,-5.4803,-5.4531,-5.2674,-5.0875,-4.9317,0.0,0.0,0.0,0.0,0.0,0.0,0.0,0.0,0.0,0.0,0.0,0.0,0.0,0.0,0.0,0.0,0.0,0.0,0.0,0.0,0.0,0.0,0.0,0.0,0.0,0.0,0.0,0.0,0.0,0.0,0.0,0.0,0.0,0.0,0.0,0.0,0.0,0.0,0.0,0.0,0.0,0.0,0.0,0.0,0.0,0.0,0.0,0.0,0.0,0.0,0.0,0.0,0.0,0.0,0.0,0.0,0.0,0.0,0.0,0.0,0.0,0.0,0.0,0.0,0.0,0.0,0.0,0.0,0.0,0.0,0.0,0.0,0.0,0.0,0.0,0.0,0.0,0.0,0.0,0.0,0.0,0.0,0.0,0.0,0.0,0.0,0.0,0.0,0.0,0.0,0.0,0.0,0.0,0.0,0.0,0.0,0.0,0.0,0.0,0.0,0.0,0.0,0.0,0.0,0.0,0.0,0.0,0.0,-5.539,-5.4106,-5.2968,-5.2234,-5.1316,-5.0068,0.0,0.0,0.0,0.0,0.0,0.0,0.0,0.0,0.0,0.0,0.0,0.0,0.0,0.0,0.0,0.0,0.0,0.0,0.0,0.0,0.0,0.0,0.0,0.0,0.0,0.0,0.0,0.0,0.0,0.0,0.0,0.0,0.0,0.0,0.0,0.0,0.0,0.0,0.0,0.0,0.0,0.0,0.0,0.0,0.0,0.0,0.0,0.0,0.0,0.0,0.0,0.0,0.0,0.0,0.0,0.0,0.0,0.0,0.0,0.0,0.0,0.0,0.0,0.0,0.0,0.0,0.0,0.0,0.0,0.0,0.0,0.0,0.0,0.0,0.0,0.0,0.0,0.0,0.0,0.0,0.0,0.0,0.0,0.0,0.0,0.0,0.0,0.0,0.0,0.0,0.0,0.0,0.0,0.0,0.0,0.0,0.0,0.0,0.0,0.0,0.0,0.0,0.0,0.0,0.0,0.0,0.0,0.0,0.0,-5.4803,-5.4766,-5.4106,-5.2784,-5.1499,-5.0031,0.0,0.0,0.0,0.0,0.0,0.0,0.0,0.0,0.0,0.0,0.0,0.0,0.0,0.0,0.0,0.0,0.0,0.0,0.0,0.0,0.0,0.0,0.0,0.0,0.0,0.0,0.0,0.0,0.0,0.0,0.0,0.0,0.0,0.0,0.0,0.0,0.0,0.0,0.0,0.0,0.0,0.0,0.0,0.0,0.0,0.0,0.0,0.0,0.0,0.0,0.0,0.0,0.0,0.0,0.0,0.0,0.0,0.0,0.0,0.0,0.0,0.0,0.0,0.0,0.0,0.0,0.0,0.0,0.0,0.0,0.0,0.0,0.0,0.0,0.0,0.0,0.0,0.0,0.0,0.0,0.0,0.0,0.0,0.0,0.0,0.0,0.0,0.0,0.0,0.0,0.0,0.0,0.0,0.0,0.0,0.0,0.0,0.0,0.0,0.0,0.0,0.0,0.0,0.0,0.0,0.0,0.0,0.0,0.0,-5.4032,0.0,-5.473,-5.2894,-5.1756,-5.0288,0.0,0.0,0.0,0.0,0.0,0.0,0.0,0.0,0.0,0.0,0.0,0.0,0.0,0.0,0.0,0.0,0.0,0.0,0.0,0.0,0.0,0.0,0.0,0.0,0.0,0.0,0.0,0.0,0.0,0.0,0.0,0.0,0.0,0.0,0.0,0.0,0.0,0.0,0.0,0.0,0.0,0.0,0.0,0.0,0.0,0.0,0.0,0.0,0.0,0.0,0.0,0.0,0.0,0.0,0.0,0.0,0.0,0.0,0.0,0.0,0.0,0.0,0.0,0.0,0.0,0.0,0.0,0.0,0.0,0.0,0.0,0.0,0.0,0.0,0.0,0.0,0.0,0.0,0.0,0.0,0.0,0.0,0.0,0.0,0.0,0.0,0.0,0.0,0.0,0.0,0.0,0.0,0.0,0.0,0.0,0.0,0.0,0.0,0.0,0.0,0.0,0.0,0.0,0.0,0.0,0.0,0.0,0.0,-5.3203,-5.3277,-5.4803,-5.4531,-5.2123,-5.2013,-5.0839,0.0,0.0,0.0,0.0,0.0,0.0,0.0,0.0,0.0,0.0,0.0,0.0,0.0,0.0,0.0,0.0,0.0,0.0,0.0,0.0,0.0,0.0,0.0,0.0,0.0,0.0,0.0,0.0,0.0,0.0,0.0,0.0,0.0,0.0,0.0,0.0,0.0,0.0,0.0,0.0,0.0,0.0,0.0,0.0,0.0,0.0,0.0,0.0,0.0,0.0,0.0,0.0,0.0,0.0,0.0,0.0,0.0,0.0,0.0,0.0,0.0,0.0,0.0,0.0,0.0,0.0,0.0,0.0,0.0,0.0,0.0,0.0,0.0,0.0,0.0,0.0,0.0,0.0,0.0,0.0,0.0,0.0,0.0,0.0,0.0,0.0,0.0,0.0,0.0,0.0,0.0,0.0,0.0,0.0,0.0,0.0,0.0,0.0,0.0,0.0,0.0,0.0,0.0,0.0,0.0,0.0,0.0,0.0,0.0,-5.4032,-5.506,-5.4987,-5.3665,-5.2564,-5.1132,0.0,0.0,0.0,0.0,0.0,0.0,0.0,0.0,0.0,0.0,0.0,0.0,0.0,0.0,0.0,0.0,0.0,0.0,0.0,0.0,0.0,0.0,0.0,0.0,0.0,0.0,0.0,0.0,0.0,0.0,0.0,0.0,0.0,0.0,0.0,0.0,0.0,0.0,0.0,0.0,0.0,0.0,0.0,0.0,0.0,0.0,0.0,0.0,0.0,0.0,0.0,0.0,0.0,0.0,0.0,0.0,0.0,0.0,0.0,0.0,0.0,0.0,0.0,0.0,0.0,0.0,0.0,0.0,0.0,0.0,0.0,0.0,0.0,0.0,0.0,0.0,0.0,0.0,0.0,0.0,0.0,0.0,0.0,0.0,0.0,0.0,0.0,0.0,0.0,0.0,0.0,0.0,0.0,0.0,0.0,0.0,0.0,0.0,0.0,0.0,0.0,0.0,0.0,0.0,0.0,0.0,0.0,0.0,0.0,-5.636,-5.7047,-5.6859,-5.5757,-5.4473,-5.3041,-5.1389,0.0,0.0,0.0,0.0,0.0,0.0,0.0,0.0,0.0,0.0,0.0,0.0,0.0,0.0,0.0,0.0,0.0,0.0,0.0,0.0,0.0,0.0,0.0,0.0,0.0,0.0,0.0,0.0,0.0,0.0,0.0,0.0,0.0,0.0,0.0,0.0,0.0,0.0,0.0,0.0,0.0,0.0,0.0,0.0,0.0,0.0,0.0,0.0,0.0,0.0,0.0,0.0,0.0,0.0,0.0,0.0,0.0,0.0,0.0,0.0,0.0,0.0,0.0,0.0,0.0,0.0,0.0,0.0,0.0,0.0,0.0,0.0,0.0,0.0,0.0,0.0,0.0,0.0,0.0,0.0,0.0,0.0,0.0,0.0,0.0,0.0,0.0,0.0,0.0,0.0,0.0,0.0,0.0,0.0,0.0,0.0,0.0,0.0,0.0,0.0,0.0,0.0,0.0,0.0,0.0,0.0,0.0,0.0,-5.9761,-6.0432,-5.9968,-5.8327,-5.7446,-5.6198,0.0,0.0,0.0,0.0,0.0,0.0,0.0,0.0,0.0,0.0,0.0,0.0,0.0,0.0,0.0,0.0,0.0,0.0,0.0,0.0,0.0,0.0,0.0,0.0,0.0,0.0,0.0,0.0,0.0,0.0,0.0,0.0,0.0,0.0,0.0,0.0,0.0,0.0,0.0,0.0,0.0,0.0,0.0,0.0,0.0,0.0,0.0,0.0,0.0,0.0,0.0,0.0,0.0,0.0,0.0,0.0,0.0,0.0,0.0,0.0,0.0,0.0,0.0,0.0,0.0,0.0,0.0,0.0,0.0,0.0,0.0,0.0,0.0,0.0,0.0,0.0,0.0,0.0,0.0,0.0,0.0,0.0,0.0,0.0,0.0,0.0,0.0,0.0,0.0,0.0,0.0,0.0,0.0,0.0,0.0,0.0,0.0,0.0,0.0,0.0,0.0,0.0,0.0,0.0,0.0,0.0,0.0,0.0,0.0,-5.9968,-6.3309,-6.3938,-6.1606,-6.0199,-5.8143,0.0,0.0,0.0,0.0,0.0,0.0,0.0,0.0,0.0,0.0,0.0,0.0,0.0,0.0,0.0,0.0,0.0,0.0,0.0,0.0,0.0,0.0,0.0,0.0,0.0,0.0,0.0,0.0,0.0,0.0,0.0,0.0,0.0,0.0,0.0,0.0,0.0,0.0,0.0,0.0,0.0,0.0,0.0,0.0,0.0,0.0,0.0,0.0,0.0,0.0,0.0,0.0,0.0,0.0,0.0,0.0,0.0,0.0,0.0,0.0,0.0,0.0,0.0,0.0,0.0,0.0,0.0,0.0,0.0,0.0,0.0,0.0,0.0,0.0,0.0,0.0,0.0,0.0,0.0,0.0,0.0,0.0,0.0,0.0,0.0,0.0,0.0,0.0,0.0,0.0,0.0,0.0,0.0,0.0,0.0,0.0,0.0,0.0,0.0,0.0,0.0,0.0,0.0,0.0,0.0,0.0,0.0,0.0,-5.6875,-6.0904,-6.4894,-6.6053,-6.4253,-6.2466,-6.004,0.0,0.0,0.0,0.0,0.0,0.0,0.0,0.0,0.0,0.0,0.0,0.0,0.0,0.0,0.0,0.0,0.0,0.0,0.0,0.0,0.0,0.0,0.0,0.0,0.0,0.0,0.0,0.0,0.0,0.0,0.0,0.0,0.0,0.0,0.0,0.0,0.0,0.0,0.0,0.0,0.0,0.0,0.0,0.0,0.0,0.0,0.0,0.0,0.0,0.0,0.0,0.0,0.0,0.0,0.0,0.0,0.0,0.0,0.0,0.0,0.0,0.0,0.0,0.0,0.0,0.0,0.0,0.0,0.0,0.0,0.0,0.0,0.0,0.0,0.0,0.0,0.0,0.0,0.0,0.0,0.0,0.0,0.0,0.0,0.0,0.0,0.0,0.0,0.0,0.0,0.0,0.0,0.0,0.0,0.0,0.0,0.0,0.0,0.0,0.0,0.0,0.0,0.0,0.0,0.0,0.0,0.0,0.0,-5.7321,-6.2016,-6.5475,-6.6845,-6.6103,-6.4194,-6.1659,0.0,0.0,0.0,0.0,0.0,0.0,0.0,0.0,0.0,0.0,0.0,0.0,0.0,0.0,0.0,0.0,0.0,0.0,0.0,0.0,0.0,0.0,0.0,0.0,0.0,0.0,0.0,0.0,0.0,0.0,0.0,0.0,0.0,0.0,0.0,0.0,0.0,0.0,0.0,0.0,0.0,0.0,0.0,0.0,0.0,0.0,0.0,0.0,0.0,0.0,0.0,0.0,0.0,0.0,0.0,0.0,0.0,0.0,0.0,0.0,0.0,0.0,0.0,0.0,0.0,0.0,0.0,0.0,0.0,0.0,0.0,0.0,0.0,0.0,0.0,0.0,0.0,0.0,0.0,0.0,0.0,0.0,0.0,0.0,0.0,0.0,0.0,0.0,0.0,0.0,0.0,0.0,0.0,0.0,0.0,0.0,0.0,0.0,0.0,0.0,0.0,0.0,0.0,0.0,0.0,0.0,0.0,0.0,-5.8149,-6.2228,-6.5121,-6.6524,-6.635,-6.4584,-6.1884,0.0,0.0,0.0,0.0,0.0,0.0,0.0,0.0,0.0,0.0,0.0,0.0,0.0,0.0,0.0,0.0,0.0,0.0,0.0,0.0,0.0,0.0,0.0,0.0,0.0,0.0,0.0,0.0,0.0,0.0,0.0,0.0,0.0,0.0,0.0,0.0,0.0,0.0,0.0,0.0,0.0,0.0,0.0,0.0,0.0,0.0,0.0,0.0,-5.2063,0.0,0.0,0.0,0.0,0.0,0.0,0.0,0.0,0.0,0.0,0.0,0.0,0.0,0.0,0.0,0.0,0.0,0.0,0.0,0.0,0.0,0.0,0.0,0.0,0.0,0.0,0.0,0.0,0.0,0.0,0.0,0.0,0.0,0.0,0.0,0.0,0.0,0.0,0.0,0.0,0.0,0.0,0.0,0.0,0.0,0.0,0.0,0.0,0.0,0.0,0.0,0.0,0.0,0.0,0.0,0.0,0.0,0.0,0.0,-5.8352,-6.1773,-6.3951,-6.5061,-6.4992,-6.3816,-6.1605,0.0,0.0,0.0,0.0,0.0,0.0,0.0,0.0,0.0,0.0,0.0,0.0,0.0,0.0,0.0,0.0,0.0,0.0,0.0,0.0,0.0,0.0,0.0,0.0,0.0,0.0,0.0,0.0,0.0,0.0,0.0,0.0,0.0,0.0,0.0,0.0,0.0,0.0,0.0,0.0,0.0,0.0,0.0,0.0,0.0,0.0,0.0,0.0,0.0,0.0,0.0,0.0,0.0,0.0,0.0,0.0,0.0,0.0,0.0,0.0,0.0,0.0,0.0,0.0,0.0,0.0,0.0,0.0,0.0,0.0,0.0,0.0,0.0,0.0,0.0,0.0,0.0,0.0,0.0,0.0,0.0,0.0,0.0,0.0,0.0,0.0,0.0,0.0,0.0,0.0,0.0,0.0,0.0,0.0,0.0,0.0,0.0,0.0,0.0,0.0,0.0,0.0,0.0,0.0,0.0,0.0,0.0,-5.6122,-5.866,-6.1366,-6.2821,-6.3463,-6.3328,-6.2618,-6.087,-5.7971,0.0,0.0,0.0,0.0,0.0,0.0,0.0,0.0,0.0,0.0,0.0,0.0,0.0,0.0,0.0,0.0,0.0,0.0,0.0,0.0,0.0,0.0,0.0,0.0,0.0,0.0,0.0,0.0,0.0,0.0,0.0,0.0,0.0,0.0,0.0,0.0,0.0,0.0,-5.1225,-5.3416,0.0,0.0,0.0,0.0,0.0,0.0,0.0,0.0,-5.5001,0.0,0.0,0.0,0.0,0.0,0.0,0.0,0.0,0.0,0.0,0.0,0.0,0.0,0.0,0.0,0.0,0.0,0.0,0.0,0.0,0.0,0.0,0.0,0.0,0.0,0.0,0.0,0.0,0.0,0.0,0.0,0.0,0.0,0.0,0.0,0.0,0.0,0.0,0.0,0.0,0.0,0.0,0.0,0.0,0.0,0.0,0.0,0.0,0.0,0.0,0.0,0.0,0.0,0.0,0.0,0.0,-5.5276,-5.8118,-6.0419,-6.2178,-6.3057,-6.3226,-6.2584,-6.1839,-5.9783,-5.63,0.0,0.0,0.0,0.0,0.0,0.0,0.0,0.0,0.0,0.0,0.0,0.0,0.0,0.0,0.0,0.0,0.0,0.0,0.0,0.0,0.0,0.0,0.0,0.0,0.0,0.0,0.0,0.0,0.0,0.0,0.0,0.0,0.0,0.0,0.0,0.0,0.0,0.0,0.0,-5.4409,-5.4804,0.0,0.0,0.0,0.0,0.0,0.0,0.0,0.0,-5.3781,0.0,0.0,0.0,0.0,0.0,0.0,0.0,0.0,0.0,0.0,0.0,0.0,0.0,0.0,0.0,0.0,0.0,0.0,0.0,0.0,0.0,0.0,0.0,0.0,0.0,0.0,0.0,0.0,0.0,0.0,0.0,0.0,0.0,0.0,0.0,0.0,0.0,0.0,0.0,0.0,0.0,0.0,0.0,0.0,0.0,0.0,0.0,0.0,0.0,0.0,0.0,0.0,0.0,0.0,0.0,-5.6799,-5.9404,-6.1264,-6.2347,-6.2753,-6.2381,-6.1231,-6.0114,-5.7949,0.0,0.0,0.0,0.0,0.0,0.0,0.0,0.0,0.0,0.0,0.0,0.0,0.0,0.0,0.0,0.0,0.0,0.0,0.0,0.0,0.0,0.0,0.0,0.0,0.0,0.0,0.0,0.0,0.0,0.0,0.0,0.0,0.0,0.0,0.0,0.0,0.0,0.0,0.0,0.0,-5.4702,-5.5499,-5.3999,0.0,0.0,0.0,0.0,0.0,0.0,-5.4475,-5.363,0.0,0.0,0.0,0.0,0.0,0.0,0.0,0.0,0.0,0.0,0.0,0.0,0.0,0.0,0.0,0.0,0.0,0.0,0.0,0.0,0.0,0.0,0.0,0.0,0.0,0.0,0.0,0.0,0.0,0.0,0.0,0.0,0.0,0.0,0.0,0.0,0.0,0.0,0.0,0.0,0.0,0.0,0.0,0.0,0.0,0.0,0.0,0.0,0.0,0.0,0.0,0.0,0.0,0.0,0.0,-5.7704,-6.0169,-6.1689,-6.2308,-6.2381,-6.167,-6.0072,-5.8586,-5.6387,0.0,0.0,0.0,0.0,0.0,0.0,0.0,0.0,0.0,0.0,0.0,0.0,0.0,0.0,0.0,0.0,0.0,0.0,0.0,0.0,0.0,0.0,0.0,0.0,0.0,0.0,0.0,0.0,0.0,0.0,0.0,0.0,0.0,0.0,0.0,0.0,0.0,0.0,0.0,0.0,0.0,-5.601,-5.4686,-5.3883,0.0,0.0,0.0,0.0,-5.49,-5.4846,0.0,0.0,0.0,0.0,0.0,0.0,0.0,0.0,0.0,0.0,0.0,0.0,0.0,0.0,0.0,0.0,0.0,0.0,0.0,0.0,0.0,0.0,0.0,0.0,0.0,0.0,0.0,0.0,0.0,0.0,0.0,0.0,0.0,0.0,0.0,0.0,0.0,0.0,0.0,0.0,0.0,0.0,0.0,0.0,0.0,0.0,0.0,0.0,0.0,0.0,0.0,0.0,0.0,0.0,0.0,0.0,-5.7331,-6.0214,-6.177,-6.2037,-6.2302,-6.1593,-5.9881,-5.8249,-5.599,0.0,0.0,0.0,0.0,0.0,0.0,0.0,0.0,0.0,0.0,0.0,0.0,0.0,0.0,0.0,0.0,0.0,0.0,0.0,0.0,0.0,0.0,0.0,0.0,0.0,0.0,0.0,0.0,0.0,0.0,0.0,0.0,0.0,0.0,0.0,0.0,0.0,0.0,0.0,0.0,0.0,-5.609,-5.5309,-5.4545,-5.4327,0.0,0.0,-5.4715,-5.5919,-5.6106,0.0,0.0,0.0,0.0,0.0,0.0,0.0,0.0,0.0,0.0,0.0,0.0,0.0,0.0,0.0,0.0,0.0,0.0,0.0,0.0,0.0,0.0,0.0,0.0,0.0,0.0,0.0,0.0,0.0,0.0,0.0,0.0,0.0,0.0,0.0,0.0,0.0,0.0,0.0,0.0,0.0,0.0,0.0,0.0,0.0,0.0,0.0,0.0,0.0,0.0,0.0,0.0,0.0,0.0,0.0,-5.3232,-5.6691,-5.9577,-6.1235,-6.1602,-6.211,-6.1514,-5.9688,-5.7287,-5.4862,0.0,0.0,0.0,0.0,0.0,0.0,0.0,0.0,0.0,0.0,0.0,0.0,0.0,0.0,0.0,0.0,0.0,0.0,0.0,0.0,0.0,0.0,0.0,0.0,0.0,0.0,0.0,0.0,0.0,0.0,0.0,0.0,0.0,0.0,0.0,0.0,0.0,0.0,0.0,0.0,0.0,0.0,-5.4714,-5.5031,0.0,0.0,0.0,-5.5049,-5.5548,0.0,0.0,0.0,0.0,0.0,0.0,0.0,0.0,0.0,0.0,0.0,0.0,0.0,0.0,0.0,0.0,0.0,0.0,0.0,0.0,0.0,0.0,0.0,0.0,0.0,0.0,0.0,0.0,0.0,0.0,0.0,0.0,0.0,0.0,0.0,0.0,0.0,0.0,0.0,0.0,0.0,0.0,0.0,0.0,0.0,0.0,0.0,0.0,0.0,0.0,0.0,0.0,0.0,0.0,0.0,0.0,0.0,-5.5876,-5.8763,-6.0492,-6.0986,-6.1877,-6.1388,-5.9405,-5.6922,0.0,0.0,0.0,0.0,0.0,0.0,0.0,0.0,0.0,0.0,0.0,0.0,0.0,0.0,0.0,0.0,0.0,0.0,0.0,0.0,0.0,0.0,0.0,0.0,0.0,0.0,0.0,-3.7853,0.0,0.0,0.0,0.0,0.0,0.0,0.0,0.0,0.0,0.0,0.0,0.0,0.0,0.0,-5.4327,-5.4556,-5.567,-5.6169,0.0,0.0,-5.5777,-5.6137,-5.7274,-5.7094,0.0,0.0,0.0,0.0,0.0,0.0,0.0,0.0,0.0,0.0,0.0,0.0,0.0,0.0,0.0,0.0,0.0,0.0,0.0,0.0,0.0,0.0,0.0,0.0,0.0,0.0,0.0,0.0,0.0,0.0,0.0,0.0,0.0,0.0,0.0,0.0,0.0,0.0,0.0,0.0,0.0,0.0,0.0,0.0,0.0,0.0,0.0,0.0,0.0,0.0,0.0,0.0,0.0,0.0,-5.1282,-5.4778,-5.7785,-5.9543,-6.0087,-6.1419,-6.1099,-5.902,-5.7709,-5.5596,0.0,0.0,0.0,0.0,0.0,0.0,0.0,0.0,0.0,0.0,0.0,0.0,0.0,0.0,0.0,0.0,0.0,0.0,0.0,0.0,0.0,0.0,0.0,0.0,0.0,0.0,0.0,0.0,0.0,0.0,0.0,0.0,0.0,0.0,0.0,0.0,0.0,0.0,0.0,0.0,0.0,-5.4706,-5.5611,-5.6447,-5.7335,0.0,-5.7564,-5.7393,-5.865,-5.8441,-5.7423,-5.5388,0.0,0.0,0.0,0.0,0.0,0.0,0.0,0.0,0.0,0.0,0.0,0.0,0.0,0.0,0.0,0.0,0.0,0.0,0.0,0.0,0.0,0.0,0.0,0.0,0.0,0.0,0.0,0.0,0.0,0.0,0.0,0.0,0.0,0.0,0.0,0.0,0.0,0.0,0.0,0.0,0.0,0.0,0.0,0.0,0.0,0.0,0.0,0.0,0.0,0.0,0.0,0.0,0.0,-4.9023,-5.2961,-5.5794,-5.7864,-5.9165,-6.018,-6.0141,-5.9055,-5.7354,-5.5103,0.0,0.0,0.0,0.0,0.0,0.0,0.0,0.0,0.0,0.0,0.0,0.0,0.0,0.0,0.0,0.0,0.0,0.0,0.0,0.0,0.0,0.0,0.0,0.0,0.0,0.0,0.0,0.0,-3.9203,-3.9092,-3.8679,0.0,0.0,0.0,0.0,0.0,0.0,0.0,0.0,0.0,0.0,-5.3106,-5.4572,-5.6938,0.0,0.0,-5.9707,-6.0057,-5.9757,-5.9488,-5.8381,-5.5628,-5.2965,0.0,0.0,0.0,0.0,0.0,0.0,0.0,0.0,0.0,0.0,0.0,0.0,0.0,0.0,0.0,0.0,0.0,0.0,0.0,0.0,0.0,0.0,0.0,0.0,0.0,0.0,0.0,0.0,0.0,0.0,0.0,0.0,0.0,0.0,0.0,0.0,0.0,0.0,0.0,0.0,0.0,0.0,0.0,0.0,0.0,0.0,0.0,0.0,0.0,0.0,0.0,0.0,-4.7446,-5.1665,-5.4592,-5.682,-5.8352,-5.9475,-5.957,-5.8687,-5.718,-5.5116,0.0,0.0,0.0,0.0,0.0,0.0,0.0,0.0,0.0,0.0,0.0,0.0,0.0,0.0,0.0,0.0,0.0,0.0,0.0,0.0,0.0,0.0,0.0,0.0,0.0,0.0,0.0,0.0,-3.8513,-3.7882,-3.7873,0.0,0.0,0.0,0.0,0.0,0.0,0.0,0.0,0.0,0.0,-5.1665,-5.3511,-5.6514,-5.868,-5.8986,-6.0294,-6.0805,-5.95,-5.8965,-5.7778,-5.5167,0.0,0.0,0.0,0.0,0.0,0.0,0.0,0.0,0.0,0.0,0.0,0.0,0.0,0.0,0.0,0.0,0.0,0.0,0.0,0.0,0.0,0.0,0.0,0.0,0.0,0.0,0.0,-4.0404,0.0,0.0,-3.9475,0.0,0.0,0.0,0.0,0.0,0.0,0.0,0.0,0.0,0.0,0.0,0.0,0.0,0.0,0.0,0.0,0.0,0.0,0.0,0.0,0.0,0.0,-4.7056,-5.0984,-5.4474,-5.6733,-5.7715,-5.9508,-5.9539,-5.7857,-5.7488,-5.5957,-5.299,0.0,0.0,0.0,0.0,0.0,0.0,0.0,0.0,0.0,0.0,0.0,0.0,0.0,0.0,0.0,0.0,0.0,0.0,0.0,0.0,0.0,0.0,0.0,0.0,0.0,0.0,-3.8842,-3.7416,-3.6619,0.0,0.0,0.0,0.0,0.0,0.0,0.0,0.0,0.0,-4.5044,-4.8076,-5.0703,-5.2425,-5.5044,-5.7052,-5.7718,-5.8664,-5.8841,-5.7648,-5.6398,-5.5147,0.0,0.0,0.0,0.0,0.0,0.0,0.0,0.0,0.0,0.0,0.0,0.0,0.0,0.0,0.0,0.0,0.0,0.0,0.0,0.0,0.0,0.0,0.0,0.0,0.0,0.0,0.0,-4.2129,-4.0822,0.0,0.0,0.0,0.0,0.0,0.0,0.0,0.0,0.0,0.0,0.0,-4.6839,-4.7717,0.0,0.0,0.0,0.0,0.0,0.0,0.0,0.0,0.0,0.0,0.0,0.0,-4.5853,-4.9794,-5.3152,-5.5691,-5.7272,-5.8365,-5.8607,-5.7976,-5.7471,-5.5129,-5.0667,0.0,0.0,0.0,0.0,0.0,0.0,0.0,0.0,0.0,0.0,0.0,0.0,0.0,0.0,0.0,0.0,0.0,0.0,0.0,0.0,0.0,0.0,0.0,0.0,0.0,-3.8638,0.0,0.0,0.0,0.0,0.0,0.0,0.0,0.0,0.0,0.0,-4.0626,-4.1648,-4.373,-4.5767,-4.7785,-4.9984,-5.3228,-5.5555,0.0,0.0,0.0,0.0,0.0,0.0,0.0,0.0,0.0,0.0,0.0,0.0,0.0,0.0,-5.0427,-5.0135,-5.0233,-5.0291,-5.0116,0.0,0.0,0.0,0.0,0.0,0.0,0.0,0.0,0.0,0.0,0.0,0.0,0.0,0.0,-4.2716,-4.1355,-4.0716,0.0,0.0,0.0,0.0,0.0,0.0,0.0,0.0,-4.6613,-4.7892,-4.8347,-4.9319,-4.9853,0.0,-4.9853,-4.8628,0.0,0.0,0.0,0.0,0.0,0.0,0.0,0.0,-4.5141,-4.9021,-5.2309,-5.4797,-5.6456,-5.7404,-5.7675,-5.7468,-5.6397,-5.3909,-4.9833,-4.6785,-4.3726,0.0,0.0,0.0,0.0,0.0,0.0,0.0,0.0,0.0,0.0,0.0,0.0,0.0,0.0,0.0,0.0,0.0,0.0,0.0,0.0,0.0,0.0,0.0,-3.7359,0.0,0.0,0.0,0.0,0.0,0.0,0.0,0.0,0.0,-4.0274,-4.0834,-4.1723,-4.3393,-4.4871,-4.6541,-4.8595,0.0,0.0,0.0,0.0,0.0,0.0,0.0,-5.0808,-5.0797,-5.0489,-5.054,-5.1292,-5.1426,-5.1426,-5.1426,0.0,0.0,-5.2115,-5.2042,-5.2042,-5.207,-5.2272,-5.2347,-5.2224,-5.3069,-5.3976,0.0,0.0,0.0,0.0,-4.5252,0.0,0.0,0.0,-4.3639,-4.2815,0.0,-4.0431,0.0,0.0,0.0,0.0,-3.9848,-4.1058,0.0,0.0,-4.7002,-4.8485,-4.9584,-5.016,-5.0435,-5.0573,-5.0574,-4.961,-4.7788,-4.5146,0.0,0.0,0.0,0.0,0.0,0.0,-4.482,-4.8557,-5.1744,-5.4004,-5.5249,-5.6495,-5.6843,-5.6208,-5.4385,-5.2532,-5.0572,-4.8056,-4.5541,-4.2969,-4.1064,0.0,0.0,0.0,0.0,0.0,0.0,0.0,0.0,0.0,0.0,0.0,0.0,0.0,0.0,0.0,0.0,0.0,0.0,0.0,0.0,-3.7615,0.0,0.0,0.0,0.0,0.0,0.0,0.0,0.0,0.0,-3.9474,-4.0972,-4.188,-4.2903,-4.4066,0.0,0.0,0.0,0.0,-5.1869,-5.1575,-5.3044,-5.3528,-5.1793,-5.105,-5.083,-5.1353,0.0,0.0,-5.2289,-5.2474,-5.2412,-5.2448,-5.2836,-5.3245,-5.3038,-5.312,-5.3155,-5.31,-5.3208,-5.3473,-5.3792,-5.479,-5.5962,-5.1461,0.0,0.0,0.0,0.0,-4.7166,-4.7081,-4.6943,-4.625,-4.51,-4.3659,-4.2801,0.0,0.0,0.0,0.0,0.0,0.0,-4.3811,-4.5391,-4.7591,-4.8854,-4.9204,-5.0166,-5.0466,-5.0121,-5.0121,-4.9395,-4.7996,-4.5996,-4.3849,-4.1541,0.0,0.0,0.0,0.0,-4.3566,-4.6783,-4.9914,-5.2098,-5.3332,-5.4145,-5.4706,-5.49,-5.3527,-5.2295,-5.1316,-4.8834,-4.65,-4.4303,-4.2399,0.0,0.0,0.0,0.0,0.0,0.0,0.0,0.0,0.0,0.0,0.0,0.0,0.0,0.0,0.0,0.0,0.0,0.0,0.0,-3.9435,-3.883,-3.7511,0.0,0.0,0.0,0.0,0.0,0.0,0.0,0.0,0.0,-4.093,-4.2118,-4.324,0.0,0.0,-4.7129,-4.7957,-4.9659,-5.0713,-5.0244,-5.0946,0.0,-5.0295,-5.004,-5.0244,-5.124,-5.2144,-5.3088,-5.3802,-5.3598,-5.3317,-5.3292,-5.3113,-5.2992,-5.2965,-5.3482,-5.3565,-5.2991,-5.3721,-5.4556,-5.4674,-5.5905,-5.7254,-5.3124,-5.1485,-5.0072,-4.9282,-4.8894,-4.8809,-4.8799,-4.8825,-4.7873,-4.6777,-4.5715,-4.4552,-4.2865,-4.0895,-4.1024,0.0,0.0,0.0,-4.4629,-4.5853,-4.7672,-4.8692,-4.9005,-4.9863,-4.9993,-4.9473,-4.9447,-4.8718,-4.7366,-4.6351,-4.4643,-4.2325,0.0,-3.8961,-4.0808,-4.1632,-4.3389,-4.6206,-4.8763,-5.0562,-5.1489,-5.2116,-5.2666,-5.2961,-5.2034,-5.1244,-5.0615,-4.8654,-4.6918,-4.5434,-4.3413,-4.1423,0.0,0.0,0.0,0.0,0.0,0.0,0.0,0.0,0.0,0.0,0.0,-3.4085,-3.3923,0.0,0.0,0.0,-3.7358,-3.8851,-3.9537,-3.9466,0.0,0.0,0.0,0.0,0.0,0.0,0.0,-3.6719,-3.7906,-3.922,-4.0525,-4.1887,-4.3241,-4.4593,-4.6192,-4.74,-4.7918,0.0,-4.9759,-4.9438,-4.9833,-5.0073,-4.9661,-4.9718,-5.0215,-5.1473,-5.2578,-5.3457,-5.3808,-5.3607,-5.3406,-5.3356,-5.313,-5.2861,-5.2861,-5.3315,-5.3452,-5.2594,-5.3422,-5.4357,-5.4413,-5.575,-5.7009,-5.3726,-5.318,-5.1964,-5.0917,-5.0054,-5.0136,-5.0295,-5.0343,-4.8736,-4.8008,-4.7807,-4.5748,-4.3966,-4.2514,-4.1907,0.0,-4.4041,-4.4568,-4.5372,-4.6426,-4.7481,-4.8259,-4.885,-4.9339,-4.9289,-4.8686,-4.8661,-4.7807,-4.6276,-4.6175,-4.5372,-4.3847,-4.1517,-4.1195,-4.2724,-4.275,-4.3912,-4.6189,-4.7967,-4.9191,-4.9749,-5.0392,-5.0684,-5.0684,-5.0067,-4.951,-4.8921,-4.7778,-4.6848,-4.6266,-4.4098,-4.2301,-4.1059,0.0,0.0,0.0,0.0,0.0,0.0,0.0,0.0,0.0,0.0,0.0,0.0,0.0,0.0,-3.479,-3.7266,0.0,-3.9667,-3.9767,0.0,0.0,0.0,-3.4396,-3.4749,-3.53,-3.5852,-3.6396,0.0,0.0,-3.9911,-4.1372,-4.2967,-4.4593,-4.6246,-4.748,-4.7981,-4.8458,-4.886,-4.8768,-4.9266,-4.9619,-4.9414,-4.9864,-5.0672,-5.194,-5.2603,-5.2955,-5.298,-5.298,-5.2955,-5.2886,-5.2861,-5.2861,-5.2861,-5.2948,-5.2754,-5.2269,-5.2708,-5.3303,-5.3787,-5.4757,-5.5708,-5.3106,-5.2953,-5.268,-5.2063,-5.1327,-5.0909,-5.0876,-5.0946,-4.9741,-4.8962,-4.8485,-4.7129,-4.61,-4.5296,-4.4744,-4.4945,-4.5748,-4.6301,-4.6677,-4.6943,-4.8058,-4.8636,-4.8786,-4.9339,-4.9063,-4.8134,-4.7707,-4.6903,-4.5698,-4.5246,-4.4819,-4.4367,-4.3397,-4.2958,-4.2961,-4.2554,-4.3216,-4.5024,-4.6297,-4.7214,-4.7774,-4.837,-4.8625,-4.8625,-4.8054,-4.7723,-4.7571,-4.6909,-4.6476,-4.6264,-4.4534,-4.2856,-4.1304,-3.871,0.0,0.0,0.0,0.0,0.0,0.0,0.0,0.0,0.0,-3.333,-3.4071,0.0,-3.5332,0.0,-3.7636,-3.9116,-4.0037,-4.0498,0.0,0.0,-3.7123,-3.6184,-3.598,-3.5978,-3.6161,-3.6731,-3.7457,-3.8315,-3.926,-4.0614,-4.1938,-4.3079,-4.5438,-4.7121,-4.7258,-4.7372,-4.744,-4.7535,-4.7972,-4.8373,-4.861,-4.9934,-5.1288,-5.2498,-5.2854,-5.2861,-5.2861,-5.2861,-5.2861,-5.2861,-5.2861,-5.2861,-5.2861,-5.2861,-5.2836,-5.2754,-5.307,-5.3478,-5.3685,-5.4184,-5.4599,-5.2861,-5.2861,-5.2861,-5.2497,-5.194,-5.1823,-5.1859,-5.1925,-5.082,-5.0167,-4.9816,-4.846,-4.7832,-4.7732,-4.7205,-4.7255,-4.7782,-4.8083,-4.8234,-4.8259,-4.8862,-4.9138,-4.9163,-4.9439,-4.9012,-4.7908,-4.7129,-4.62,-4.5146,-4.4769,-4.4618,-4.4618,-4.4568,-4.4518,-4.4418,-4.3664,-4.384,-4.4995,-4.5874,-4.6451,-4.6753,-4.7054,-4.7205,-4.7179,-4.6928,-4.6652,-4.6426,-4.6351,-4.62,-4.5924,-4.4568,-4.3162,-4.1731,-3.8968,-3.6368,0.0,0.0,0.0,0.0,0.0,0.0,0.0,0.0,0.0,0.0,0.0,-3.5508,-3.6302,-3.7321,-3.8457,-3.9743,-4.0472,-4.0433,-3.9392,-3.8309,-3.732,-3.6601,-3.6265,-3.6126,-3.6251,-3.664,-3.7253,-3.8153,-3.9327,-4.0371,-4.1273,-4.316,-4.4774,-4.5819,-4.6041,-4.6041,-4.6063,-4.6282,-4.6891,-4.7777,-4.9246,-5.0481,-5.1338,-5.1566,-5.1492,-5.1245,-5.1531,-5.1911,-5.2073,-5.241,-5.2723,-5.2861,-5.2861,-5.2861,-5.2929,-5.3067,-5.3113,-5.3011,-5.3125,-5.3211,-5.2861,-5.2929,-5.2854,-5.2553,-5.2126,-5.2553,-5.2729,-5.2653,-5.1624,-5.1122,-5.0971,-4.9515,-4.9113,-4.9439,-4.8912,-4.8887,-4.9199,-4.9149,-4.9085,-4.9071,-4.9146,-4.9157,-4.9232,-4.9307,-4.8707,-4.7596,-4.652,-4.5504,-4.4427,-4.4402,-4.4369,-4.4469,-4.5035,-4.5585,-4.601,-4.5085,-4.4919,-4.5598,-4.6075,-4.6326,-4.6326,-4.6326,-4.6326,-4.6301,-4.625,-4.5974,-4.5522,-4.5874,-4.5874,-4.5372,-4.4292,-4.3212,-4.2213,-3.9389,-3.6899,0.0,-3.3613,0.0,0.0,0.0,0.0,0.0,0.0,0.0,0.0,-3.4604,-3.553,-3.6391,-3.6883,-3.7742,-3.9125,-4.0182,-4.0518,-3.9887,-3.903,-3.8021,-3.6968,-3.64,-3.5937,-3.5527,-3.5801,-3.6328,-3.7219,-3.8008,-3.8809,-3.9778,-4.0695,-4.1935,-4.369,-4.4205,-4.4235,-4.431,-4.4419,-4.5009,-4.6595,-4.7667,-4.842,-4.9108,-4.9292,-4.9219,-4.872,-4.9421,-5.0174,-5.0685,-5.1492,-5.2253,-5.2767,-5.2861,-5.2861,-5.2929,-5.2929,-5.2779,-5.2445,-5.2219,-5.195,-5.2861,-5.2879,-5.2452,-5.2201,-5.2076,-5.1749,-5.1599,-5.1548,-5.087,-5.0318,-4.9891,-4.9565,-4.9238,-4.8887,-4.8335,-4.7758,-4.7184,-4.6514,-4.6291,-4.642,-4.6582,-4.6892,-4.7215,-4.7676,-4.7248,-4.6015,-4.5159,-4.422,-4.3243,-4.316,-4.3241,-4.3507,-4.416,-4.4572,-4.4669,0.0,0.0,0.0,-4.625,-4.6326,-4.6326,-4.6326,-4.6326,-4.6301,-4.5874,0.0,-4.5497,-4.5146,-4.4895,-4.4769,-4.374,0.0,0.0,0.0,0.0,0.0,0.0,0.0,0.0,0.0,0.0,0.0,-3.3938,-3.4616,-3.5077,-3.5947,-3.6588,-3.678,-3.757,-3.8317,-3.9044,-3.9987,-4.0273,-3.9595,-3.9089,-3.8377,-3.7308,-3.6779,-3.6387,-3.5957,-3.5976,-3.6348,-3.7168,-3.7734,-3.8379,-3.9219,-3.9805,-4.0249,-4.0817,-4.1546,-4.1888,-4.1907,-4.218,-4.2789,-4.4071,-4.4728,-4.5501,-4.6204,-4.6464,-4.6489,-4.6398,-4.7027,-4.8099,-4.9266,-5.0319,-5.128,-5.2598,-5.2861,-5.2861,-5.2861,-5.2861,-5.2904,-5.2779,-5.2402,-5.2076,-5.2861,-5.2879,-5.2352,-5.195,0.0,-5.1096,-5.0695,-5.0444,-5.0419,-5.0117,-4.9615,-4.959,-4.9138,-4.8309,-4.7757,-4.6834,-4.5586,-4.4475,-4.3953,-4.4013,-4.4055,-4.4342,-4.479,-4.5492,-4.5272,-4.4286,-4.3778,-4.3048,-4.2166,-4.2069,-4.2099,-4.2149,-4.2552,-4.2753,-4.2793,-4.313,-4.4065,-4.5793,-4.5817,-4.5817,-4.5793,-4.5611,-4.5489,-4.5281,-4.479,0.0,0.0,0.0,0.0,0.0,0.0,0.0,0.0,0.0,0.0,-3.611,-3.4803,-3.3876,-3.3458,-3.3466,-3.3705,-3.4268,-3.4966,-3.5356,-3.5468,-3.6058,-3.6546,-3.677,-3.74,-3.797,-3.8486,-3.9138,-3.9384,-3.903,-3.8837,-3.8394,-3.7626,-3.7249,-3.6816,-3.6406,-3.6152,-3.6348,-3.7187,-3.7656,-3.8262,-3.9082,-3.9609,-3.9883,-3.9922,-4.0254,-4.0527,-4.0547,-4.0904,-4.1459,-4.2369,-4.2942,-4.3354,-4.4046,-4.4244,-4.4135,-4.3916,-4.4728,-4.5864,-4.7237,-4.8519,-4.9811,-5.1121,-5.1738,-5.2144,-5.2352,-5.2491,-5.2723,-5.2861,-5.2703,-5.2503,-5.2861,-5.2854,-5.2226,-5.1699,-5.1222,-5.0569,-5.0017,-4.9615,-5.0067,0.0,0.0,-4.9461,-4.8771,-4.7633,-4.6947,-4.5685,-4.3939,-4.246,-4.1727,-4.1538,-4.1637,-4.1946,-4.246,-4.3305,-4.3287,-4.2506,-4.2458,-4.1996,-4.1057,-4.0986,-4.0945,-4.0831,-4.0819,-4.086,-4.086,-4.1501,-4.2793,-4.4583,-4.4939,-4.5061,-4.5013,-4.4645,-4.4213,-4.3778,-4.3279,-4.2803,-4.2315,-4.2257,-4.2209,-4.2149,-4.1769,-4.1532,-4.1401,-3.9407,-3.7667,-3.6573,-3.528,-3.462,-3.481,-3.4409,-3.4614,-3.5554,-3.5969,-3.6035,-3.5547,-3.5957,-3.6387,-3.6738,-3.7168,-3.7539,-3.7891,-3.832,-3.8574,-3.8574,-3.8574,-3.8398,-3.7969,-3.7637,-3.7226,-3.6738,-3.6367,-3.6426,-3.7187,-3.7578,-3.8125,-3.8906,-3.9355,-3.9668,-3.9687,-3.9824,-3.998,-3.998,-4.0164,-4.0495,-4.105,-4.1392,-4.1741,-4.1895,-4.1976,-4.183,-4.172,-4.2344,-4.3545,-4.485,-4.6325,-4.7677,-4.9037,-4.9886,-5.0785,-5.1373,-5.1841,-5.2352,-5.2792,-5.2861,-5.2836,-5.2861,-5.2854,-5.1825,-5.1348,-5.1197,-5.0167,-4.9665,-4.959,-4.969,-4.9536,-4.9137,-4.8853,-4.7912,-4.6514,-4.5289,-4.3634,-4.1677,-4.0038,-3.9266,-3.9195,-3.9455,-4.0053,-4.0933,-4.1855,-4.1852,-4.1177,-4.1447,-4.1063,-4.0079,-4.015,-4.0068,-3.9638,-3.9541,-3.9495,-3.9561,-4.0127,-4.1033,-4.2161,-4.3404,-4.3965,-4.3917,-4.3357,-4.2517,-4.1693,-4.1067,-4.0711,-4.0643,-4.0237,-3.9927,-3.9949,-3.9882,-3.9836,-3.9814,-3.8958,-3.8043,-3.7064,-3.633,-3.573,-3.5323,-3.5251,-3.5599,-3.6416,-3.6886,-3.6777,-3.6035,-3.666,-3.7148,-3.7226,-3.7598,-3.7851,-3.7949,-3.832,-3.8574,-3.8574,-3.8574,-3.8398,-3.7988,-3.7871,-3.7539,-3.6836,-3.6621,-3.6758,-3.7226,-3.7402,-3.7773,-3.8457,-3.8848,-3.8809,-3.8945,-3.9434,-3.9844,-3.9844,-3.9625,-3.9484,-3.9628,-3.9259,-3.9394,-3.9182,-3.9347,-3.9473,-3.9373,-4.0063,-4.111,-4.2478,-4.3571,-4.4799,-4.6517,-4.7551,-4.8614,-4.9771,-5.0666,-5.1558,-5.2485,-5.281,-5.281,-5.2302,-5.195,-5.0947,-5.0398,-5.0215,-4.8961,-4.8486,-4.8486,-4.8486,-4.8592,-4.8673,-4.7702,-4.647,-4.5036,-4.3322,-4.1622,-4.0021,-3.8525,-3.7716,-3.7609,-3.7734,-3.8173,-3.8844,-3.9719,-3.9909,-3.9547,-4.0265,-4.0148,-3.926,-3.9259,-3.8981,-3.8456,-3.7826,-3.7482,-3.7528,-3.8196,-3.9014,-4.0018,-4.161,-4.25,-4.258,-4.1756,-4.0946,-4.0105,-3.9583,-3.9258,-3.9258,-3.8801,-3.8671,-3.8868,-3.8692,-3.8671,-3.8846,-3.8081,-3.7318,-3.6614,-3.6054,-3.556,-3.5438,-3.582,-3.625,-3.666,-3.7266,-3.748,-3.709,-3.7617,-3.7988,-3.7988,-3.8184,-3.8281,-3.8281,-3.8457,-3.8574,-3.8574,-3.8574,-3.8496,-3.8301,-3.8047,-3.7773,-3.7402,-3.7148,-3.7168,-3.7578,-3.7637,-3.7851,-3.8457,-3.8574,-3.8574,-3.8574,-3.8906,-3.918,-3.916,-3.9004,-3.8887,-3.8867,-3.8711,-3.8594,-3.8574,-3.8574,-3.8574,-3.8647,-3.9083,-3.9887,-4.0966,-4.1821,-4.2856,-4.4214,-4.5296,-4.645,-4.7676,-4.8803,-4.9969,-5.1368,-5.2136,-5.2377,-5.1674,-5.1222,-5.0182,-4.933,-4.8494,-4.7165,-4.6599,-4.6717,-4.6599,-4.6865,-4.7064,-4.622,-4.5023,-4.3545,-4.1702,-4.0214,-3.8915,-3.7607,-3.6955,-3.6823,-3.6858,-3.7031,-3.748,-3.8223,-3.8485,-3.8417,-3.9268,-3.9203,-3.8433,-3.8374,-3.7955,-3.726,-3.6403,-3.6035,-3.6016,-3.6606,-3.7461,-3.842,-3.967,-4.0581,-4.0946,-4.0062,-3.9233,-3.8486,-3.8041,-3.7853,-3.7832,-3.752,-3.7478,-3.7812,-3.752,-3.7478,-3.7812,-3.702,-3.6445,-3.6118,-3.5639,-3.5461,-3.5731,-3.6387,-3.6855,-3.6953,-3.7559,-3.7969,-3.8086,-3.8379,-3.8574,-3.8574,-3.8555,-3.8555,-3.8555,-3.8574,-3.8574,-3.8574,-3.8574,-3.8574,-3.8535,-3.8262,-3.8008,-3.791,-3.7559,-3.7441,-3.7793,-3.7832,-3.7969,-3.8437,-3.8574,-3.8574,-3.8574,-3.8574,-3.8574,-3.8574,-3.8574,-3.8594,-3.8574,-3.8574,-3.8574,-3.8574,-3.8574,-3.8574,-3.8647,-3.8885,-3.9248,-3.9919,-4.041,-4.111,-4.1814,-4.281,-4.4005,-4.5234,-4.6532,-4.8075,-5.0255,-5.1482,-5.1858,-5.1322,-5.113,-4.9892,-4.8155,-4.6046,-4.4503,-4.4075,-4.4391,-4.4075,-4.3713,-4.368,-4.4436,-4.3939,-4.245,-4.1112,-3.9829,-3.8756,-3.7878,-3.7334,-3.7182,-3.7241,-3.7461,-3.7891,-3.834,-3.8341,-3.8017,-3.8615,-3.8356,-3.7321,-3.7508,-3.7193,-3.6287,-3.6016,-3.6035,-3.6084,-3.6403,-3.6924,-3.7642,-3.7528,-3.7909,-3.8795,-3.8221,-3.7327,-3.6355,-3.6248,-3.6228,-3.6324,-3.6189,-3.6169,-3.6228,-3.6237,-3.6169,-3.6276,-3.6102,-3.6034,-3.6014,-3.5947,-3.6094,-3.6523,-3.6992,-3.7402,-3.7773,-3.7871,-3.8105,-3.8457,-3.8535,-3.8574,-3.8574,-3.8574,-3.8574,-3.8574,-3.8574,-3.8574,-3.8574,-3.8574,-3.8574,-3.8574,-3.8555,-3.8379,-3.7949,-3.7617,-3.7461,-3.7851,-3.7715,-3.7773,-3.8476,-3.8574,-3.8574,-3.8574,-3.8574,-3.8574,-3.8574,-3.8574,-3.8574,-3.8574,-3.8574,-3.8574,-3.8574,-3.8574,-3.8574,-3.8647,-3.8647,-3.872,-3.9011,-3.8977,-3.9374,-3.9685,-4.0271,-4.1398,-4.3039,-4.4607,-4.6418,-4.9064,-5.0814,-5.143,-5.0473,-4.9521,-4.8216,-4.6277,-4.4138,-4.3043,-4.2649,-4.2801,-4.2718,-4.2252,-4.1792,-4.2003,-4.1777,-4.1004,-3.9584,-3.8809,-3.8607,-3.8306,-3.8094,-3.8027,-3.806,-3.8144,-3.832,-3.8476,-3.8197,-3.7575,-3.7777,-3.748,-3.661,-3.6606,-3.6403,-3.6016,-3.6035,-3.6035,-3.6016,-3.6132,-3.6336,-3.6674,-3.6539,-3.6674,-3.6991,-3.6971,-3.6654,-3.6084,-3.6035,-3.6035,-3.6035,-3.6035,-3.6035,-3.6035,-3.6035,-3.6035,-3.6035,-3.6035,-3.6035,-3.6035,-3.6269,-3.6484,-3.666,-3.7285,-3.7734,-3.793,-3.8164,-3.8398,-3.8555,-3.8574,-3.8574,-3.8574,-3.8574,-3.8574,-3.8574,-3.8574,-3.8574,-3.8574,-3.8574,-3.8574,-3.8574,-3.8574,-3.8496,-3.8301,-3.793,-3.7812,-3.8184,-3.8164,-3.8203,-3.8535,-3.8574,-3.8574,-3.8574,-3.8574,-3.8574,-3.8574,-3.8574,-3.8574,-3.8574,-3.8574,-3.8574,-3.8574,-3.8574,-3.8574,-3.8574,-3.8574,-3.8574,-3.8574,-3.8574,-3.8613,-3.8916,-3.9267,-4.0076,-4.1514,-4.3807,-4.5985,-4.7601,-4.8952,-4.9609,-4.9527,-4.8064,-4.5978,-4.3954,-4.2306,-4.1263,-4.093,-4.1013,-4.093,-4.0646,-4.0289,-3.993,-3.9838,-3.9654,-3.8583,-3.8281,-3.8555,-3.8574,-3.8574,-3.8574,-3.8574,-3.8574,-3.8574,-3.8574,-3.8125,-3.7422,-3.7305,-3.6855,-3.6113,-3.6035,-3.6035,-3.6035,-3.6035,-3.6035,-3.6035,-3.6035,-3.6035,-3.6035,-3.6035,-3.6035,-3.6084,-3.6268,-3.6268,-3.6016,-3.6035,-3.6035,-3.6035,-3.6035,-3.6035,-3.6035,-3.6035,-3.6035,-3.6035,-3.6035,-3.6074,-3.623,-3.6719,-3.7012,-3.7031,-3.7695,-3.8105,-3.8125,-3.8398,-3.8574,-3.8574,-3.8574,-3.8574,-3.8574,-3.8574,-3.8574,-3.8574,-3.8574,-3.8574,-3.8574,-3.8574,-3.8574,-3.8574,-3.8574,-3.8574,-3.8535,-3.8144,-3.8027,-3.832,-3.8457,-3.8555,-3.8574,-3.8574,-3.8574,-3.8574,-3.8574,-3.8574,-3.8574,-3.8574,-3.8574,-3.8574,-3.8574,-3.8574,-3.8574,-3.8574,-3.8574,-3.8574,-3.8574,-3.8574,-3.8574,-3.8574,-3.8594,-3.8652,-3.8997,-3.9321,-4.0443,-4.2507,-4.4763,-4.5277,-4.6494,-4.7359,-4.878,-4.715,-4.3254,-4.1226,-4.032,-3.8863,-3.8419,-3.8971,-3.8452,-3.8419,-3.8773,-3.872,-3.872,-3.872,-3.8588,-3.8555,-3.8574,-3.8574,-3.8574,-3.8574,-3.8574,-3.8574,-3.8574,-3.8574,-3.8125,-3.7402,-3.7305,-3.6855,-3.6074,-3.6035,-3.6035,-3.6035,-3.6035,-3.6035,-3.6035,-3.6035,-3.6035,-3.6035,-3.6035,-3.6035,-3.6035,-3.6016,-3.6016,-3.6016,-3.6035,-3.6035,-3.6035,-3.6035,-3.6035,-3.6035,-3.6035,-3.6035,-3.6035,-3.6035,-3.623,-3.6641,-3.7383,-3.7832,-3.7871,-3.8242,-3.8516,-3.8535,-3.8535,-3.8574,-3.8574,-3.8574,-3.8574,-3.8574,-3.8574,-3.8574,-3.8574,-3.8574,-3.8574,-3.8574,-3.8574,-3.8574,-3.8574,-3.8574,-3.8574,-3.8516,-3.8223,-3.8027,-3.8008,-3.832,-3.8535,-3.8574,-3.8574,-3.8574,-3.8574,-3.8574,-3.8574,-3.8574,-3.8574,-3.8574,-3.8574,-3.8574,-3.8574,-3.8574,-3.8574,-3.8574,-3.8574,-3.8574,-3.8574,-3.8574,-3.8574,-3.8574,-3.8574,-3.8793,-3.9011,-3.9939,-4.1131,-4.2593,-4.3245,-4.4213,-4.5025,-4.6725,-4.3852,-4.1643,-4.0269,-3.9498,-3.8688,-3.8437,-3.8555,-3.8398,-3.8418,-3.8555,-3.8574,-3.8574,-3.8574,-3.8574,-3.8574,-3.8574,-3.8574,-3.8574,-3.8574,-3.8574,-3.8574,-3.8574,-3.8574,-3.8281,-3.7734,-3.7422,-3.6855,-3.6113,-3.6035,-3.6035,-3.6035,-3.6035,-3.6035,-3.6035,-3.6035,-3.6035,-3.6035,-3.6035,-3.6035,-3.6035,-3.6035,-3.6035,-3.6035,-3.6035,-3.6035,-3.6035,-3.6035,-3.6035,-3.6035,-3.6035,-3.6035,-3.6055,-3.6289,-3.6504,-3.6719,-3.7461,-3.793,-3.7969,-3.832,-3.8574,-3.8574,-3.8574,-3.8574,-3.8574,-3.8574,-3.8574,-3.8574,-3.8574,-3.8574,-3.8574,-3.8574,-3.8574,-3.8574,-3.8574,-3.8574,-3.8574,-3.8574,-3.8574,-3.8555,-3.8418,-3.8262,-3.8066,-3.8301,-3.8574,-3.8574,-3.8574,-3.8574,-3.8574,-3.8574,-3.8574,-3.8574,-3.8574,-3.8574,-3.8574,-3.8574,-3.8574,-3.8574,-3.8574,-3.8574,-3.8574,-3.8574,-3.8574,-3.8574,-3.8574,-3.8574,-3.8574,-3.8647,-3.8865,-3.934,-4.0534,-4.1018,-4.1381,-4.2266,-4.2914,-4.4401,-4.1544,-4.0197,-3.9498,-3.903,-3.872,-3.8574,-3.8574,-3.8574,-3.8574,-3.8574,-3.8574,-3.8574,-3.8574,-3.8574,-3.8574,-3.8574,-3.8574,-3.8574,-3.8574,-3.8574,-3.8574,-3.8574,-3.8574,-3.834,-3.7871,-3.7344,-3.6777,-3.6269,-3.6074,-3.6035,-3.6035,-3.6035,-3.6035,-3.6035,-3.6035,-3.6035,-3.6035,-3.6035,-3.6035,-3.6035,-3.6035,-3.6035,-3.6035,-3.6035,-3.6035,-3.6035,-3.6035,-3.6035,-3.6035,-3.6035,-3.6035,-3.6074,-3.6562,-3.6875,-3.6973,-3.7676,-3.8125,-3.8164,-3.8418,-3.8574,-3.8574,-3.8574,-3.8574,-3.8574,-3.8574,-3.8574,-3.8574,-3.8574,-3.8574,-3.8574,-3.8574,-3.8574,-3.8574,-3.8574,-3.8574,-3.8574,-3.8574,-3.8496,-3.8398,-3.8476,-3.834,-3.8086,-3.834,-3.8535,-3.8574,-3.8574,-3.8574,-3.8574,-3.8574,-3.8574,-3.8574,-3.8574,-3.8574,-3.8574,-3.8574,-3.8574,-3.8574,-3.8574,-3.8574,-3.8574,-3.8574,-3.8574,-3.8574,-3.8574,-3.8574,-3.8574,-3.8574,-3.872,-3.9011,-3.934,-3.9795,-4.0085,-4.0248,-4.0842,-4.1918,-4.0279,-3.9083,-3.872,-3.8647,-3.8647,-3.8574,-3.8574,-3.8574,-3.8574,-3.8574,-3.8574,-3.8574,-3.8574,-3.8574,-3.8574,-3.8574,-3.8574,-3.8574,-3.8574,-3.8574,-3.8574,-3.8574,-3.8574,-3.834,-3.791,-3.7129,-3.6808,-3.666,-3.6289,-3.6094,-3.6055,-3.6035,-3.6035,-3.6035,-3.6035,-3.6035,-3.6035,-3.6035,-3.6035,-3.6035,-3.6035,-3.6035,-3.6035,-3.6035,-3.6035,-3.6035,-3.6035,-3.6035,-3.6035,-3.6035,-3.6035,-3.6172,-3.6816,-3.7285,-3.7402,-3.8086,-3.8516,-3.8555,-3.8555,-3.8574,-3.8574,-3.8574,-3.8574,-3.8574,-3.8574,-3.8574,-3.8574,-3.8574,-3.8574,-3.8574,-3.8574,-3.8574,-3.8574,-3.8574,-3.8574,-3.8574,-3.8555,-3.8418,-3.8105,-3.8242,-3.834,-3.8144,-3.8242,-3.8476,-3.8555,-3.8574,-3.8574,-3.8574,-3.8574,-3.8574,-3.8574,-3.8574,-3.8574,-3.8574,-3.8574,-3.8574,-3.8574,-3.8574,-3.8574,-3.8574,-3.8574,-3.8574,-3.8574,-3.8574,-3.8574,-3.8574,-3.8574,-3.8574,-3.8793,-3.8865,-3.8918,-3.9149,-3.9298,-3.9049,-4.1196,-3.9865,-3.8983,-3.8574,-3.8574,-3.8574,-3.8574,-3.8574,-3.8574,-3.8574,-3.8574,-3.8574,-3.8574,-3.8574,-3.8574,-3.8574,-3.8574,-3.8574,-3.8574,-3.8574,-3.8574,-3.8574,-3.8574,-3.8574,-3.834,-3.7949,-3.7676,-3.7363,-3.707,-3.666,-3.6465,-3.6426,-3.6152,-3.6035,-3.6035,-3.6035,-3.6035,-3.6035,-3.6035,-3.6035,-3.6035,-3.6035,-3.6035,-3.6035,-3.6035,-3.6035,-3.6035,-3.6035,-3.6035,-3.6035,-3.6035,-3.6152,-3.6504,-3.6992,-3.7422,-3.7754,-3.8262,-3.8574,-3.8574,-3.8574,-3.8574,-3.8574,-3.8574,-3.8574,-3.8574,-3.8574,-3.8574,-3.8574,-3.8574,-3.8574,-3.8574,-3.8574,-3.8574,-3.8574,-3.8574,-3.8574,-3.8555,-3.834,-3.8086,-3.793,-3.7793,-3.7754,-3.791,-3.8125,-3.8301,-3.8535,-3.8574,-3.8574,-3.8574,-3.8574,-3.8574,-3.8574,-3.8574,-3.8574,-3.8574,-3.8574,-3.8574,-3.8574,-3.8574,-3.8574,-3.8574,-3.8574,-3.8574,-3.8574,-3.8574,-3.8574,-3.8574,-3.8574,-3.8574,-3.8574,-3.872,-3.87,-3.8608,-3.8406,-3.8228,-4.0669,-3.9825,-3.9254,-3.8965,-3.8828,-3.8809,-3.8711,-3.8594,-3.8574,-3.8574,-3.8574,-3.8574,-3.8574,-3.8574,-3.8574,-3.8574,-3.8574,-3.8574,-3.8574,-3.8574,-3.8574,-3.8574,-3.8574,-3.8574,-3.8457,-3.8164,-3.7988,-3.7793,-3.75,-3.6973,-3.6749,-3.6601,-3.623,-3.6035,-3.6035,-3.6035,-3.6035,-3.6035,-3.6035,-3.6035,-3.6035,-3.6035,-3.6035,-3.6035,-3.6035,-3.6035,-3.6035,-3.6035,-3.6035,-3.6055,-3.6152,-3.6406,-3.668,-3.7207,-3.7656,-3.793,-3.8301,-3.8574,-3.8574,-3.8574,-3.8574,-3.8574,-3.8574,-3.8574,-3.8574,-3.8574,-3.8574,-3.8574,-3.8574,-3.8574,-3.8574,-3.8574,-3.8574,-3.8574,-3.8574,-3.8574,-3.8535,-3.834,-3.8086,-3.7988,-3.7871,-3.7851,-3.7891,-3.8125,-3.8262,-3.8535,-3.8574,-3.8574,-3.8574,-3.8574,-3.8574,-3.8574,-3.8574,-3.8574,-3.8574,-3.8574,-3.8574,-3.8574,-3.8574,-3.8574,-3.8574,-3.8574,-3.8574,-3.8574,-3.8574,-3.8574,-3.8574,-3.8574,-3.8574,-3.8574,-3.8574,-3.8574,-3.8476,-3.7969,-3.772,-4.0293,-3.9941,-3.9902,-3.957,-3.9199,-3.916,-3.8926,-3.8613,-3.8574,-3.8574,-3.8574,-3.8574,-3.8574,-3.8574,-3.8574,-3.8574,-3.8574,-3.8574,-3.8574,-3.8574,-3.8574,-3.8574,-3.8574,-3.8574,-3.8535,-3.8476,-3.8164,-3.7988,-3.791,-3.7246,-3.6758,-3.6797,-3.6445,-3.6133,-3.6211,-3.6133,-3.6191,-3.623,-3.6133,-3.6113,-3.6094,-3.6035,-3.6074,-3.6094,-3.6113,-3.6152,-3.623,-3.623,-3.6152,-3.6133,-3.6445,-3.668,-3.6894,-3.75,-3.791,-3.8008,-3.8379,-3.8535,-3.8574,-3.8574,-3.8574,-3.8574,-3.8574,-3.8574,-3.8574,-3.8574,-3.8574,-3.8574,-3.8574,-3.8574,-3.8574,-3.8574,-3.8574,-3.8574,-3.8574,-3.8574,-3.8574,-3.8516,-3.8262,-3.8047,-3.8242,-3.8359,-3.7949,-3.8242,-3.8418,-3.8574,-3.8574,-3.8574,-3.8574,-3.8574,-3.8574,-3.8574,-3.8574,-3.8574,-3.8574,-3.8574,-3.8574,-3.8574,-3.8574,-3.8574,-3.8574,-3.8574,-3.8574,-3.8574,-3.8574,-3.8574,-3.8574,-3.8574,-3.8574,-3.8574,-3.8574,-3.8574,-3.834,-3.791,-3.7598,-4.0449,-4.0332,-4.0019,-3.9629,-3.9238,-3.9199,-3.8984,-3.8613,-3.8594,-3.8633,-3.8594,-3.8574,-3.8594,-3.8574,-3.8574,-3.8574,-3.8574,-3.8574,-3.8574,-3.8574,-3.8574,-3.8574,-3.8574,-3.8574,-3.8574,-3.8555,-3.8437,-3.8398,-3.8359,-3.7812,-3.7559,-3.7578,-3.7109,-3.6934,-3.6953,-3.6914,-3.6953,-3.6914,-3.6621,-3.6484,-3.6426,-3.6191,-3.6191,-3.6484,-3.6484,-3.666,-3.6914,-3.6953,-3.6797,-3.6523,-3.6601,-3.6973,-3.748,-3.7812,-3.8086,-3.8359,-3.8476,-3.8574,-3.8574,-3.8574,-3.8574,-3.8574,-3.8574,-3.8574,-3.8574,-3.8574,-3.8574,-3.8574,-3.8574,-3.8574,-3.8574,-3.8594,-3.8594,-3.8574,-3.8652,-3.8633,-3.8535,-3.8281,-3.8047,-3.7949,-3.7832,-3.7832,-3.7969,-3.8066,-3.8262,-3.8496,-3.8574,-3.8574,-3.8574,-3.8574,-3.8574,-3.8574,-3.8574,-3.8574,-3.8574,-3.8574,-3.8574,-3.8574,-3.8574,-3.8574,-3.8574,-3.8574,-3.8574,-3.8574,-3.8574,-3.8574,-3.8574,-3.8574,-3.8574,-3.8574,-3.8574,-3.8574,-3.8457,-3.8144,-3.791,-4.0801,-4.0781,-4.0527,-4.0176,-3.9785,-3.9766,-3.9512,-3.918,-3.9121,-3.9004,-3.8887,-3.8848,-3.873,-3.8594,-3.8574,-3.8574,-3.8574,-3.8574,-3.8574,-3.8574,-3.8574,-3.8574,-3.8574,-3.8574,-3.8574,-3.8574,-3.8574,-3.8574,-3.8476,-3.8144,-3.7949,-3.7812,-3.75,-3.7305,-3.7246,-3.7305,-3.7305,-3.7246,-3.7051,-3.6875,-3.666,-3.6621,-3.6562,-3.6738,-3.6816,-3.707,-3.7266,-3.7285,-3.7168,-3.7012,-3.7109,-3.7422,-3.7851,-3.8105,-3.832,-3.8574,-3.8574,-3.8574,-3.8574,-3.8574,-3.8574,-3.8574,-3.8574,-3.8574,-3.8574,-3.8574,-3.8574,-3.8574,-3.8574,-3.8574,-3.8613,-3.873,-3.8926,-3.9141,-3.9121,-3.8984,-3.8633,-3.8379,-3.8223,-3.8144,-3.8008,-3.791,-3.8184,-3.8203,-3.832,-3.8496,-3.8574,-3.8574,-3.8574,-3.8574,-3.8555,-3.8516,-3.8555,-3.8574,-3.8574,-3.8574,-3.8574,-3.8574,-3.8574,-3.8574,-3.8574,-3.8574,-3.8574,-3.8574,-3.8574,-3.8574,-3.8574,-3.8574,-3.8574,-3.8574,-3.8574,-3.8555,-3.8457,-3.832,-3.8105,-4.1327,-4.125,-4.125,-4.0918,-4.0527,-4.0508,-4.0176,-3.9922,-3.9805,-3.957,-3.9238,-3.918,-3.8926,-3.8594,-3.8574,-3.8574,-3.8574,-3.8574,-3.8574,-3.8574,-3.8574,-3.8574,-3.8574,-3.8574,-3.8574,-3.8574,-3.8574,-3.8574,-3.8496,-3.8184,-3.8027,-3.7988,-3.7676,-3.75,-3.7578,-3.7519,-3.7441,-3.7519,-3.7441,-3.7226,-3.7031,-3.707,-3.707,-3.7031,-3.7344,-3.75,-3.7539,-3.75,-3.748,-3.7441,-3.7754,-3.7891,-3.8027,-3.8398,-3.8535,-3.8574,-3.8574,-3.8574,-3.8574,-3.8574,-3.8574,-3.8574,-3.8574,-3.8574,-3.8574,-3.8574,-3.8574,-3.8574,-3.8574,-3.8613,-3.873,-3.8984,-3.9316,-3.9629,-3.9805,-3.9473,-3.8945,-3.8711,-3.8711,-3.8711,-3.8711,-3.8711,-3.8711,-3.8711,-3.875,-3.8984,-3.8906,-3.8711,-3.8652,-3.8574,-3.8496,-3.8379,-3.8457,-3.8574,-3.8574,-3.8574,-3.8574,-3.8574,-3.8574,-3.8574,-3.8574,-3.8574,-3.8574,-3.8574,-3.8574,-3.8574,-3.8574,-3.8574,-3.8594,-3.8574,-3.8574,-3.8574,-3.8555,-3.8379,-3.8184,-4.1927,-4.1618,-4.1308,-4.0918,-4.0566,-4.0508,-4.0293,-3.9941,-3.9922,-3.9707,-3.9297,-3.9219,-3.9004,-3.8613,-3.8652,-3.8574,-3.8652,-3.8633,-3.8574,-3.8574,-3.8574,-3.8574,-3.8574,-3.8574,-3.8574,-3.8574,-3.8574,-3.8574,-3.8516,-3.8476,-3.8418,-3.8379,-3.8281,-3.8301,-3.8242,-3.8184,-3.8301,-3.8242,-3.7969,-3.7734,-3.7559,-3.7422,-3.7461,-3.7617,-3.8027,-3.8242,-3.8301,-3.8301,-3.8301,-3.8242,-3.8086,-3.8105,-3.8359,-3.8496,-3.8574,-3.8574,-3.8574,-3.8574,-3.8574,-3.8574,-3.8574,-3.8574,-3.8613,-3.8574,-3.8574,-3.8633,-3.8613,-3.8594,-3.8594,-3.8789,-3.9101,-3.916,-3.9512,-3.9883,-3.998,-3.9902,-3.9668,-3.959,-3.9531,-3.9551,-3.9551,-3.9609,-3.959,-3.9512,-3.9512,-3.9531,-3.9277,-3.8945,-3.8769,-3.8633,-3.8496,-3.8379,-3.8457,-3.8574,-3.8574,-3.8574,-3.8574,-3.8574,-3.8574,-3.8691,-3.8691,-3.8672,-3.8711,-3.8672,-3.8574,-3.8613,-3.875,-3.8652,-3.8691,-3.8633,-3.8574,-3.8574,-3.8535,-3.8398,-3.834,-4.2887,-4.2293,-4.154,-4.1035,-4.084,-4.082,-4.0703,-4.0527,-4.0488,-4.0234,-3.9902,-3.9824,-3.959,-3.9219,-3.9199,-3.9199,-3.9121,-3.8965,-3.8867,-3.8828,-3.8711,-3.8574,-3.8574,-3.8574,-3.8574,-3.8574,-3.8574,-3.8574,-3.8574,-3.8574,-3.8555,-3.8574,-3.8574,-3.8516,-3.8574,-3.8574,-3.8555,-3.8516,-3.8359,-3.8144,-3.791,-3.7949,-3.7949,-3.8203,-3.8457,-3.8574,-3.8555,-3.8555,-3.8574,-3.8516,-3.8359,-3.832,-3.8516,-3.8574,-3.8574,-3.8574,-3.8574,-3.8574,-3.8574,-3.8574,-3.8574,-3.8574,-3.875,-3.8848,-3.8945,-3.9043,-3.9199,-3.9199,-3.9238,-3.9355,-3.9766,-3.9824,-4.0039,-4.0371,-4.0488,-4.0488,-4.043,-4.0156,-3.9883,-3.9883,-3.9844,-3.9844,-3.9883,-4.0,-3.9922,-3.9785,-3.9414,-3.9101,-3.8945,-3.8789,-3.8555,-3.8457,-3.8516,-3.8555,-3.8574,-3.8574,-3.8574,-3.8574,-3.8574,-3.8769,-3.8906,-3.8906,-3.8906,-3.8906,-3.8945,-3.9004,-3.9082,-3.8945,-3.875,-3.8633,-3.8574,-3.8574,-3.8555,-3.8496,-3.8476,-4.3815,-4.2963,-4.1695,-4.1172,-4.1172,-4.1152,-4.1133,-4.1152,-4.1172,-4.082,-4.0566,-4.0527,-4.0156,-3.9922,-3.9824,-3.9863,-3.9746,-3.9394,-3.9121,-3.9082,-3.873,-3.8613,-3.8574,-3.8574,-3.8574,-3.8574,-3.8574,-3.8574,-3.8574,-3.8574,-3.8574,-3.8574,-3.8574,-3.8574,-3.8574,-3.8574,-3.8574,-3.8555,-3.8535,-3.8398,-3.8164,-3.834,-3.8476,-3.8516,-3.8535,-3.8574,-3.8574,-3.8574,-3.8574,-3.8574,-3.8574,-3.8574,-3.8574,-3.8574,-3.8574,-3.8574,-3.8574,-3.8574,-3.8574,-3.8574,-3.8574,-3.8594,-3.8945,-3.916,-3.9258,-3.9512,-3.9707,-3.9785,-3.9805,-3.9941,-4.0449,-4.041,-4.0644,-4.0996,-4.1133,-4.1172,-4.1055,-4.0508,-4.0254,-4.0176,-4.0312,-4.0351,-4.0293,-4.0312,-4.0176,-4.0,-3.9629,-3.9316,-3.9199,-3.8965,-3.873,-3.8535,-3.8555,-3.8574,-3.8574,-3.8574,-3.8574,-3.8633,-3.8613,-3.8887,-3.916,-3.9434,-3.9492,-3.9414,-3.9434,-3.9453,-3.9336,-3.9121,-3.8906,-3.8691,-3.8574,-3.8574,-3.8574,-3.8574,-3.8574,-4.444,-4.3345,-4.185,-4.1172,-4.1172,-4.1172,-4.1172,-4.1172,-4.1172,-4.0918,-4.0566,-4.0527,-4.0332,-4.0039,-3.9902,-3.9902,-3.9902,-3.9551,-3.9258,-3.918,-3.8809,-3.8574,-3.8574,-3.8574,-3.8574,-3.8574,-3.8574,-3.8574,-3.8574,-3.8574,-3.8574,-3.8574,-3.8574,-3.8574,-3.8574,-3.8574,-3.8574,-3.8574,-3.8574,-3.8496,-3.8476,-3.8496,-3.8574,-3.8574,-3.8574,-3.8574,-3.8574,-3.8574,-3.8574,-3.8574,-3.8574,-3.8574,-3.8594,-3.8594,-3.8633,-3.8652,-3.8691,-3.875,-3.873,-3.8652,-3.8613,-3.8672,-3.9062,-3.9258,-3.9375,-3.9668,-4.0019,-4.0,-4.0019,-4.0117,-4.0469,-4.0586,-4.0742,-4.1035,-4.1172,-4.1172,-4.1133,-4.0996,-4.082,-4.0781,-4.084,-4.0859,-4.0742,-4.0684,-4.0664,-4.0508,-4.0215,-3.9922,-3.9726,-3.9355,-3.8965,-3.875,-3.8574,-3.8574,-3.8574,-3.8574,-3.8594,-3.8672,-3.8769,-3.9062,-3.9434,-3.998,-4.0156,-4.0039,-3.9863,-3.9746,-3.959,-3.9336,-3.9004,-3.8711,-3.8633,-3.8574,-3.8574,-3.8574,-3.8574,-4.5394,-4.4008,-4.2082,-4.1172,-4.1172,-4.1172,-4.1172,-4.1172,-4.1172,-4.1055,-4.0918,-4.0859,-4.0762,-4.0586,-4.0547,-4.0547,-4.0391,-3.9844,-3.959,-3.9453,-3.8926,-3.8574,-3.8574,-3.8574,-3.8574,-3.8574,-3.8574,-3.8574,-3.8574,-3.8574,-3.8574,-3.8574,-3.8574,-3.8574,-3.8574,-3.8574,-3.8574,-3.8574,-3.8574,-3.8574,-3.8574,-3.8574,-3.8574,-3.8574,-3.8594,-3.8574,-3.8574,-3.8574,-3.8574,-3.8574,-3.8574,-3.8574,-3.8652,-3.8809,-3.8906,-3.8965,-3.9101,-3.9238,-3.9258,-3.9258,-3.9297,-3.9316,-3.9629,-3.9863,-4.0,-4.0293,-4.0488,-4.0527,-4.0566,-4.0625,-4.0859,-4.084,-4.0976,-4.1094,-4.1172,-4.1172,-4.1172,-4.1172,-4.1172,-4.1172,-4.1094,-4.1035,-4.1094,-4.1074,-4.1133,-4.0996,-4.0762,-4.0508,-4.0254,-3.9766,-3.9258,-3.8965,-3.875,-3.8613,-3.8613,-3.8574,-3.8574,-3.8672,-3.8965,-3.9277,-3.9648,-4.0176,-4.0527,-4.0644,-4.043,-4.0195,-3.9844,-3.9609,-3.918,-3.875,-3.8652,-3.8574,-3.8574,-3.8574,-3.8574,-4.6411,-4.4838,-4.2447,-4.1405,-4.1327,-4.125,-4.1172,-4.1172,-4.1172,-4.1172,-4.1172,-4.1152,-4.1152,-4.1152,-4.1133,-4.1133,-4.1094,-4.0332,-4.0,-3.9707,-3.9101,-3.8711,-3.8594,-3.8574,-3.8574,-3.8574,-3.8574,-3.8574,-3.8574,-3.8574,-3.8574,-3.8574,-3.8574,-3.8574,-3.8574,-3.8574,-3.8574,-3.8574,-3.8574,-3.8574,-3.8574,-3.8574,-3.8574,-3.8613,-3.8652,-3.873,-3.875,-3.8906,-3.8945,-3.8945,-3.8926,-3.8887,-3.8906,-3.9238,-3.9453,-3.9512,-3.9766,-3.9863,-3.9863,-3.9844,-3.9746,-3.9746,-4.0254,-4.0449,-4.0566,-4.0742,-4.1094,-4.1172,-4.1133,-4.1094,-4.1094,-4.1152,-4.1152,-4.1172,-4.1172,-4.1172,-4.1172,-4.1172,-4.1172,-4.1172,-4.1172,-4.1172,-4.1172,-4.1172,-4.1172,-4.1152,-4.0918,-4.0879,-4.0586,-4.0078,-3.9609,-3.9219,-3.8945,-3.873,-3.8633,-3.8574,-3.8574,-3.8613,-3.9082,-3.9531,-3.9922,-4.0332,-4.0644,-4.0976,-4.0976,-4.0703,-4.0312,-3.9805,-3.9336,-3.8945,-3.8711,-3.8574,-3.8574,-3.8574,-3.8574,-4.7243,-4.5661,-4.3269,-4.2082,-4.1695,-4.1405,-4.1172,-4.1172,-4.1172,-4.1172,-4.1172,-4.1172,-4.1172,-4.1172,-4.1172,-4.1172,-4.1016,-4.0644,-4.0234,-3.9922,-3.9355,-3.8887,-3.8633,-3.8574,-3.8574,-3.8574,-3.8574,-3.8574,-3.8613,-3.8613,-3.8574,-3.8574,-3.8574,-3.8574,-3.8574,-3.8574,-3.8574,-3.8574,-3.8574,-3.8574,-3.8574,-3.8574,-3.8574,-3.8652,-3.8887,-3.9082,-3.9121,-3.9355,-3.959,-3.9629,-3.9687,-3.9707,-3.9805,-4.0137,-4.0312,-4.0273,-4.0117,-3.9902,-3.998,-4.0039,-4.0059,-4.0137,-4.0371,-4.0488,-4.0684,-4.0918,-4.1172,-4.1172,-4.1172,-4.1172,-4.1172,-4.1172,-4.1172,-4.1172,-4.1172,-4.1172,-4.1172,-4.1172,-4.1172,-4.1172,-4.1172,-4.1172,-4.1172,-4.1172,-4.1172,-4.1152,-4.1133,-4.1074,-4.0898,-4.0391,-3.9766,-3.9316,-3.9082,-3.8887,-3.8652,-3.8594,-3.8574,-3.8574,-3.916,-3.9746,-4.0039,-4.0391,-4.0879,-4.1133,-4.1172,-4.0957,-4.0351,-3.9844,-3.9434,-3.9043,-3.8672,-3.8574,-3.8574,-3.8574,-3.8574,-4.8792,-4.6751,-4.4344,-4.3019,-4.237,-4.154,-4.1172,-4.1172,-4.1172,-4.1172,-4.1172,-4.1172,-4.1172,-4.1172,-4.1172,-4.1172,-4.1074,-4.0742,-4.0449,-4.0117,-3.959,-3.9121,-3.8926,-3.8711,-3.8574,-3.8574,-3.8613,-3.8769,-3.8769,-3.8691,-3.8574,-3.8613,-3.8594,-3.8574,-3.8672,-3.8594,-3.8574,-3.8574,-3.8574,-3.8574,-3.8574,-3.8594,-3.8594,-3.8613,-3.9004,-3.9199,-3.9355,-3.9629,-3.9883,-3.9883,-3.9883,-3.9883,-3.998,-4.0254,-4.0508,-4.0508,-4.0625,-4.0644,-4.0644,-4.0586,-4.0566,-4.0625,-4.0762,-4.0898,-4.0937,-4.1035,-4.1172,-4.1172,-4.1172,-4.1172,-4.1172,-4.1172,-4.1172,-4.1172,-4.1172,-4.1172,-4.1172,-4.1172,-4.1172,-4.1172,-4.1172,-4.1172,-4.1172,-4.1172,-4.1172,-4.1152,-4.1152,-4.1133,-4.0976,-4.0664,-3.998,-3.9277,-3.9141,-3.9023,-3.875,-3.8574,-3.8574,-3.8691,-3.9336,-3.9824,-4.0059,-4.041,-4.0918,-4.1172,-4.1172,-4.084,-4.0312,-3.9922,-3.957,-3.9082,-3.8594,-3.8574,-3.8574,-3.8574,-3.8574,-5.0458,-4.8503,-4.5819,-4.4193,-4.3345,-4.2082,-4.1483,-4.1327,-4.125,-4.1172,-4.1172,-4.1172,-4.1172,-4.1172,-4.1172,-4.1172,-4.1152,-4.082,-4.0625,-4.0293,-3.9902,-3.9453,-3.916,-3.8867,-3.8691,-3.8594,-3.875,-3.8906,-3.9023,-3.9062,-3.9004,-3.8906,-3.9043,-3.8984,-3.8945,-3.8984,-3.9023,-3.9023,-3.9004,-3.8984,-3.8984,-3.8965,-3.8945,-3.9062,-3.9277,-3.9531,-3.959,-4.0,-4.0234,-4.0273,-4.0293,-4.0332,-4.0391,-4.0586,-4.0742,-4.0781,-4.0937,-4.1055,-4.1055,-4.1055,-4.1172,-4.1172,-4.1172,-4.1113,-4.1133,-4.1172,-4.1172,-4.1172,-4.1172,-4.1172,-4.1172,-4.1172,-4.1172,-4.1172,-4.1172,-4.1172,-4.1172,-4.1172,-4.1172,-4.1172,-4.1172,-4.1172,-4.1172,-4.1172,-4.1172,-4.1172,-4.1172,-4.1172,-4.1035,-4.084,-4.0312,-3.9609,-3.9434,-3.9238,-3.8769,-3.8594,-3.8594,-3.8789,-3.9414,-3.9824,-4.0019,-4.0488,-4.1055,-4.1172,-4.1172,-4.0879,-4.0469,-4.0078,-3.9687,-3.9199,-3.8769,-3.8633,-3.8574,-3.8574,-3.8574,-5.2283,-5.1257,-4.7754,-4.5714,-4.4612,-4.2963,-4.2139,-4.1773,-4.1405,-4.1172,-4.1172,-4.1172,-4.1172,-4.1172,-4.1172,-4.1172,-4.1172,-4.1133,-4.0898,-4.0644,-4.0391,-3.9922,-3.9531,-3.9219,-3.9004,-3.8809,-3.9004,-3.918,-3.9316,-3.9668,-3.9707,-3.9805,-3.9629,-3.9746,-3.9707,-3.957,-3.959,-3.959,-3.9609,-3.9648,-3.9648,-3.9668,-3.9687,-3.9805,-4.0137,-4.043,-4.043,-4.0742,-4.0918,-4.0918,-4.0898,-4.0898,-4.0879,-4.0957,-4.1016,-4.1055,-4.1094,-4.1172,-4.1172,-4.1172,-4.1172,-4.1172,-4.1172,-4.1172,-4.1172,-4.1172,-4.1172,-4.1172,-4.1172,-4.1172,-4.1172,-4.1172,-4.1172,-4.1172,-4.1172,-4.1172,-4.1172,-4.1172,-4.1172,-4.1172,-4.1172,-4.1172,-4.1172,-4.1172,-4.1172,-4.1172,-4.1172,-4.1172,-4.1172,-4.0976,-4.0605,-4.0117,-3.9883,-3.9492,-3.8789,-3.8613,-3.8594,-3.8848,-3.9355,-3.9687,-3.9922,-4.0488,-4.1152,-4.1172,-4.1152,-4.0879,-4.0644,-4.0293,-3.9883,-3.9336,-3.8965,-3.8789,-3.8633,-3.8574,-3.8574,-5.2446,-5.1586,-4.9533,-4.7922,-4.6455,-4.4344,-4.3096,-4.2447,-4.1618,-4.1172,-4.1172,-4.1172,-4.1172,-4.1172,-4.1172,-4.1172,-4.1172,-4.1172,-4.1035,-4.0859,-4.0605,-4.0332,-3.9961,-3.9726,-3.9551,-3.9414,-3.957,-3.9805,-4.0059,-4.0195,-4.0469,-4.0488,-4.0195,-3.9922,-3.9883,-3.998,-3.9961,-3.9941,-3.9922,-3.9902,-3.9883,-3.9883,-3.9883,-3.9922,-4.0312,-4.0508,-4.0566,-4.0937,-4.1113,-4.1172,-4.1172,-4.1172,-4.1172,-4.1172,-4.1172,-4.1172,-4.1172,-4.1172,-4.1172,-4.1172,-4.1172,-4.1172,-4.1172,-4.1172,-4.1172,-4.1172,-4.1172,-4.1172,-4.1172,-4.1172,-4.1172,-4.1172,-4.1172,-4.1172,-4.1172,-4.1172,-4.1172,-4.1172,-4.1172,-4.1172,-4.1172,-4.1172,-4.1172,-4.1172,-4.1172,-4.1172,-4.1172,-4.1172,-4.1172,-4.1133,-4.0742,-4.041,-4.0156,-3.9726,-3.9023,-3.8789,-3.8613,-3.8926,-3.9297,-3.9629,-3.9961,-4.0625,-4.1172,-4.1172,-4.1172,-4.1035,-4.082,-4.0527,-4.0098,-3.9551,-3.918,-3.8926,-3.8769,-3.8691,-3.873,-5.2421,-5.1726,-5.0553,-4.9079,-4.7338,-4.5095,-4.3608,-4.2734,-4.1695,-4.1172,-4.1172,-4.1172,-4.1172,-4.1172,-4.1172,-4.1172,-4.1172,-4.1172,-4.1172,-4.1055,-4.0879,-4.0644,-4.0469,-4.0234,-3.998,-3.998,-4.0078,-4.0254,-4.043,-4.0625,-4.084,-4.084,-4.0625,-4.0391,-4.0332,-4.0273,-4.0273,-4.0273,-4.0273,-4.0273,-4.0293,-4.0312,-4.0332,-4.0351,-4.0644,-4.0742,-4.082,-4.1035,-4.1133,-4.1172,-4.1172,-4.1172,-4.1172,-4.1172,-4.1172,-4.1172,-4.1172,-4.1172,-4.1172,-4.1172,-4.1172,-4.1172,-4.1172,-4.1172,-4.1172,-4.1172,-4.1172,-4.1172,-4.1172,-4.1172,-4.1172,-4.1172,-4.1172,-4.1172,-4.1172,-4.1172,-4.1172,-4.1172,-4.1172,-4.1172,-4.1172,-4.1172,-4.1172,-4.1172,-4.1172,-4.1172,-4.1172,-4.1172,-4.1172,-4.1094,-4.0937,-4.0605,-4.0312,-3.9824,-3.9316,-3.9101,-3.8887,-3.8809,-3.9199,-3.9668,-4.0117,-4.0762,-4.1152,-4.1172,-4.1172,-4.1172,-4.1035,-4.0801,-4.0351,-3.9805,-3.9512,-3.9277,-3.9297,-3.9238,-3.916,-5.2491,-5.1677,-5.0505,-4.884,-4.6971,-4.5063,-4.3573,-4.2524,-4.1618,-4.1172,-4.1172,-4.1172,-4.1172,-4.1172,-4.1172,-4.1172,-4.1172,-4.1172,-4.1172,-4.1133,-4.1074,-4.0879,-4.0684,-4.0488,-4.0391,-4.0117,-4.0293,-4.0547,-4.0586,-4.0879,-4.1113,-4.1152,-4.0996,-4.0957,-4.1113,-4.1113,-4.1113,-4.1113,-4.1055,-4.0996,-4.0976,-4.0957,-4.0937,-4.0957,-4.0996,-4.1035,-4.1074,-4.1094,-4.1172,-4.1172,-4.1172,-4.1172,-4.1172,-4.1172,-4.1172,-4.1172,-4.1172,-4.1172,-4.1172,-4.1172,-4.1172,-4.1172,-4.1172,-4.1172,-4.1172,-4.1172,-4.1172,-4.1172,-4.1172,-4.1172,-4.1172,-4.1172,-4.1172,-4.1172,-4.1172,-4.1172,-4.1172,-4.1172,-4.1172,-4.1172,-4.1172,-4.1172,-4.1172,-4.1172,-4.1172,-4.1172,-4.1172,-4.1172,-4.1172,-4.1113,-4.0996,-4.0801,-4.0508,-4.0156,-3.9707,-3.9394,-3.918,-3.9023,-3.9219,-3.9805,-4.0234,-4.0742,-4.1016,-4.1133,-4.1172,-4.1172,-4.1172,-4.1133,-4.0703,-4.0293,-3.9941,-3.9746,-3.9785,-3.9746,-3.959,-5.2283,-5.1282,-4.9771,-4.8118,-4.6307,-4.4795,-4.3608,-4.2657,-4.1773,-4.1172,-4.1172,-4.1172,-4.1172,-4.1172,-4.1172,-4.1172,-4.1172,-4.1172,-4.1172,-4.1172,-4.1172,-4.1113,-4.0957,-4.0879,-4.084,-4.0801,-4.0918,-4.0918,-4.0976,-4.1133,-4.1152,-4.1172,-4.1172,-4.1172,-4.1152,-4.1172,-4.1172,-4.1172,-4.1152,-4.1152,-4.1172,-4.1172,-4.1172,-4.1172,-4.1172,-4.1172,-4.1172,-4.1172,-4.1172,-4.1172,-4.1172,-4.1172,-4.1172,-4.1172,-4.1172,-4.1172,-4.1172,-4.1172,-4.1172,-4.1172,-4.1172,-4.1172,-4.1172,-4.1172,-4.1172,-4.1172,-4.1172,-4.1172,-4.1172,-4.1172,-4.1172,-4.1172,-4.1172,-4.1172,-4.1172,-4.1172,-4.1172,-4.1172,-4.1172,-4.1172,-4.1172,-4.1172,-4.1172,-4.1172,-4.1172,-4.1172,-4.1172,-4.1172,-4.1172,-4.1172,-4.1094,-4.0976,-4.0742,-4.0449,-4.0137,-3.9824,-3.959,-3.9473,-3.9726,-4.0215,-4.0605,-4.084,-4.0996,-4.1172,-4.1172,-4.1172,-4.1172,-4.1152,-4.1113,-4.084,-4.043,-4.0117,-4.0059,-3.9961,-3.9824,-5.2144,-5.0835,-4.8961,-4.7147,-4.549,-4.4289,-4.3248,-4.237,-4.154,-4.1172,-4.1172,-4.1172,-4.1172,-4.1172,-4.1172,-4.1172,-4.1172,-4.1172,-4.1172,-4.1172,-4.1172,-4.1152,-4.1152,-4.1172,-4.1094,-4.1172,-4.1172,-4.1152,-4.1133,-4.1152,-4.1172,-4.1172,-4.1172,-4.1172,-4.1172,-4.1172,-4.1172,-4.1172,-4.1172,-4.1172,-4.1172,-4.1172,-4.1172,-4.1172,-4.1172,-4.1172,-4.1172,-4.1172,-4.1172,-4.1172,-4.1172,-4.1172,-4.1172,-4.1172,-4.1172,-4.1172,-4.1172,-4.1172,-4.1172,-4.1172,-4.1172,-4.1172,-4.1172,-4.1172,-4.1172,-4.1172,-4.1172,-4.1172,-4.1172,-4.1172,-4.1172,-4.1172,-4.1191,-4.1191,-4.1211,-4.1211,-4.123,-4.125,-4.1211,-4.1211,-4.1172,-4.1172,-4.1172,-4.1172,-4.1172,-4.1172,-4.1172,-4.1172,-4.1172,-4.1172,-4.1172,-4.1074,-4.0957,-4.0703,-4.0469,-4.0254,-4.0059,-3.9902,-4.0195,-4.0566,-4.0664,-4.084,-4.1016,-4.1172,-4.1172,-4.1172,-4.1172,-4.1152,-4.1133,-4.1035,-4.0801,-4.0527,-4.0351,-4.0273,-4.0215,-5.198,-5.0316,-4.7927,-4.6115,-4.4687,-4.34,-4.2293,-4.125,-4.125,-4.1172,-4.1172,-4.1172,-4.1172,-4.1172,-4.1172,-4.1172,-4.1172,-4.1172,-4.1172,-4.1172,-4.1172,-4.1172,-4.1172,-4.1172,-4.1172,-4.1172,-4.1172,-4.1172,-4.1172,-4.1172,-4.1172,-4.1172,-4.1172,-4.1172,-4.1172,-4.1172,-4.1172,-4.1172,-4.1172,-4.1172,-4.1172,-4.1172,-4.1172,-4.1172,-4.1172,-4.1172,-4.1172,-4.1172,-4.1172,-4.1172,-4.1172,-4.1172,-4.1172,-4.1172,-4.1172,-4.1172,-4.1172,-4.1172,-4.1172,-4.1172,-4.1172,-4.1172,-4.1172,-4.1172,-4.1172,-4.1172,-4.1172,-4.1172,-4.1172,-4.1172,-4.1172,-4.1191,-4.1211,-4.123,-4.1269,-4.1308,-4.1348,-4.1328,-4.1289,-4.125,-4.1211,-4.1191,-4.1172,-4.1172,-4.1172,-4.1172,-4.1172,-4.1172,-4.1172,-4.1172,-4.1172,-4.1172,-4.1055,-4.0957,-4.0762,-4.0605,-4.0527,-4.0391,-4.0449,-4.0723,-4.0801,-4.0879,-4.1055,-4.1172,-4.1172,-4.1172,-4.1172,-4.1172,-4.1172,-4.1055,-4.0957,-4.0918,-4.0742,-4.084,-4.084,-5.0731,-4.9175,-4.7096,-4.5319,-4.3856,-4.237,-4.1483,-4.125,-4.1172,-4.1172,-4.1172,-4.1172,-4.1172,-4.1172,-4.1172,-4.1172,-4.1172,-4.1172,-4.1172,-4.1172,-4.1172,-4.1172,-4.1172,-4.1172,-4.1172,-4.1172,-4.1172,-4.1172,-4.1172,-4.1172,-4.1172,-4.1172,-4.1172,-4.1172,-4.1172,-4.1172,-4.1172,-4.1172,-4.1172,-4.1172,-4.1172,-4.1172,-4.1172,-4.1172,-4.1172,-4.1172,-4.1172,-4.1172,-4.1172,-4.1172,-4.1172,-4.1172,-4.1172,-4.1172,-4.1172,-4.1172,-4.1172,-4.1172,-4.1172,-4.1172,-4.1172,-4.1172,-4.1172,-4.1172,-4.1172,-4.1172,-4.1172,-4.1172,-4.1172,-4.1172,-4.1172,-4.1191,-4.1328,-4.1445,-4.1523,-4.1601,-4.1641,-4.1621,-4.1562,-4.1348,-4.1289,-4.1172,-4.1172,-4.1172,-4.1172,-4.1172,-4.1172,-4.1172,-4.1172,-4.1172,-4.1172,-4.1172,-4.1152,-4.1055,-4.1074,-4.0937,-4.0918,-4.0898,-4.0898,-4.0898,-4.0976,-4.1055,-4.1133,-4.1172,-4.1172,-4.1172,-4.1172,-4.1172,-4.1172,-4.1172,-4.1094,-4.1133,-4.1172,-4.1172,-4.1172,-4.9438,-4.7938,-4.5976,-4.4214,-4.2677,-4.1618,-4.1172,-4.1172,-4.1172,-4.1172,-4.1172,-4.1172,-4.1172,-4.1172,-4.1172,-4.1172,-4.1172,-4.1172,-4.1172,-4.1172,-4.1172,-4.1172,-4.1172,-4.1172,-4.1172,-4.1172,-4.1172,-4.1172,-4.1172,-4.1172,-4.1172,-4.1172,-4.1172,-4.1172,-4.1172,-4.1172,-4.1172,-4.1172,-4.1172,-4.1172,-4.1172,-4.1172,-4.1172,-4.1172,-4.1172,-4.1172,-4.1172,-4.1172,-4.1172,-4.1172,-4.1172,-4.1172,-4.1172,-4.1172,-4.1172,-4.1172,-4.1172,-4.1172,-4.1172,-4.1172,-4.1172,-4.1172,-4.1172,-4.1172,-4.1172,-4.1172,-4.1172,-4.1172,-4.1172,-4.1172,-4.1172,-4.1211,-4.1484,-4.1719,-4.1855,-4.1973,-4.1973,-4.1953,-4.1758,-4.1523,-4.1367,-4.1211,-4.1172,-4.1172,-4.1172,-4.1172,-4.1172,-4.1172,-4.1172,-4.1172,-4.1172,-4.1172,-4.1172,-4.1133,-4.1172,-4.1172,-4.1113,-4.1055,-4.1074,-4.1094,-4.1172,-4.1172,-4.1172,-4.1172,-4.1172,-4.1172,-4.1172,-4.1172,-4.1172,-4.1172,-4.1172,-4.1172,-4.1172,-4.1172,-4.1172,-4.8169,-4.6713,-4.4731,-4.2922,-4.1327,-4.1172,-4.1172,-4.1172,-4.1172,-4.1172,-4.1172,-4.1172,-4.1172,-4.1172,-4.1172,-4.1172,-4.1172,-4.1172,-4.1172,-4.1172,-4.1172,-4.1172,-4.1172,-4.1172,-4.1172,-4.1172,-4.1172,-4.1172,-4.1172,-4.1172,-4.1172,-4.1172,-4.1172,-4.1172,-4.1172,-4.1172,-4.1172,-4.1172,-4.1172,-4.1172,-4.1172,-4.1172,-4.1172,-4.1172,-4.1172,-4.1172,-4.1172,-4.1172,-4.1172,-4.1172,-4.1172,-4.1172,-4.1172,-4.1172,-4.1172,-4.1172,-4.1172,-4.1172,-4.1172,-4.1172,-4.1172,-4.1172,-4.1172,-4.1172,-4.1172,-4.1172,-4.1172,-4.1172,-4.1172,-4.1289,-4.1328,-4.1426,-4.1641,-4.2031,-4.2285,-4.25,-4.2656,-4.2383,-4.1836,-4.1562,-4.1289,-4.1172,-4.1172,-4.1172,-4.1172,-4.1172,-4.1172,-4.1172,-4.1172,-4.1172,-4.1172,-4.1172,-4.1172,-4.1172,-4.1172,-4.1172,-4.1172,-4.1152,-4.1172,-4.1172,-4.1172,-4.1172,-4.1172,-4.1172,-4.1172,-4.1172,-4.1172,-4.1172,-4.1172,-4.1172,-4.1172,-4.1172,-4.1172,-4.1172,-4.1172,-4.6877,-4.5428,-4.3291,-4.1927,-4.125,-4.1172,-4.1172,-4.1172,-4.1172,-4.1172,-4.1172,-4.1172,-4.1172,-4.1172,-4.1172,-4.1172,-4.1172,-4.1172,-4.1172,-4.1172,-4.1172,-4.1172,-4.1172,-4.1172,-4.1172,-4.1172,-4.1172,-4.1172,-4.1172,-4.1172,-4.1172,-4.1172,-4.1172,-4.1172,-4.1172,-4.1172,-4.1172,-4.1172,-4.1172,-4.1172,-4.1172,-4.1172,-4.1172,-4.1172,-4.1172,-4.1172,-4.1172,-4.1172,-4.1172,-4.1172,-4.1172,-4.1172,-4.1172,-4.1172,-4.1172,-4.1172,-4.1172,-4.1172,-4.1172,-4.1172,-4.1172,-4.1172,-4.1172,-4.1172,-4.1172,-4.1172,-4.1172,-4.1172,-4.123,-4.1367,-4.1543,-4.166,-4.1836,-4.2285,-4.2676,-4.2949,-4.3203,-4.2578,-4.1914,-4.1562,-4.123,-4.1172,-4.1172,-4.1172,-4.1172,-4.1172,-4.1172,-4.1172,-4.1172,-4.1172,-4.1172,-4.1172,-4.1172,-4.1172,-4.1172,-4.1172,-4.1172,-4.1172,-4.1172,-4.1172,-4.1172,-4.1172,-4.1172,-4.1172,-4.1172,-4.1172,-4.1172,-4.1172,-4.1172,-4.1172,-4.1172,-4.1172,-4.1172,-4.1172,-4.1172,-4.5631,-4.4215,-4.2337,-4.1405,-4.125,-4.1172,-4.1172,-4.1172,-4.1172,-4.1172,-4.1172,-4.1172,-4.1172,-4.1172,-4.1172,-4.1172,-4.1172,-4.1172,-4.1172,-4.1172,-4.1172,-4.1172,-4.1172,-4.1172,-4.1172,-4.1172,-4.1172,-4.1172,-4.1172,-4.1172,-4.1172,-4.1172,-4.1172,-4.1172,-4.1172,-4.1172,-4.1172,-4.1172,-4.1172,-4.1172,-4.1172,-4.1172,-4.1172,-4.1172,-4.1172,-4.1172,-4.1172,-4.1172,-4.1172,-4.1172,-4.1172,-4.1172,-4.1172,-4.1172,-4.1172,-4.1172,-4.1172,-4.1172,-4.1172,-4.1172,-4.1172,-4.1172,-4.1172,-4.1172,-4.1172,-4.1172,-4.1172,-4.1172,-4.1172,-4.1289,-4.1601,-4.1758,-4.1992,-4.2363,-4.248,-4.2637,-4.2578,-4.2168,-4.168,-4.1348,-4.1172,-4.1172,-4.1172,-4.1172,-4.1172,-4.1172,-4.1172,-4.1172,-4.1172,-4.1172,-4.1172,-4.1172,-4.1172,-4.1172,-4.1172,-4.1172,-4.1172,-4.1172,-4.1172,-4.1172,-4.1172,-4.1172,-4.1172,-4.1172,-4.1172,-4.1172,-4.1172,-4.1172,-4.1172,-4.1172,-4.1172,-4.1172,-4.1172,-4.1172,-4.1172,-4.4705,-4.311,-4.1839,-4.125,-4.1172,-4.1172,-4.1172,-4.1172,-4.1172,-4.1172,-4.1172,-4.1172,-4.1172,-4.1172,-4.1172,-4.1172,-4.1172,-4.1172,-4.1172,-4.1172,-4.1172,-4.1172,-4.1172,-4.1172,-4.1172,-4.1172,-4.1172,-4.1172,-4.1172,-4.1172,-4.1172,-4.1172,-4.1172,-4.1172,-4.1172,-4.1172,-4.1172,-4.1172,-4.1172,-4.1172,-4.1172,-4.1172,-4.1172,-4.1172,-4.1172,-4.1172,-4.1172,-4.1172,-4.1172,-4.1172,-4.1172,-4.1172,-4.1172,-4.1172,-4.1172,-4.1172,-4.1172,-4.1172,-4.1172,-4.1172,-4.1172,-4.1172,-4.1172,-4.1172,-4.1172,-4.1191,-4.1191,-4.1289,-4.1289,-4.1465,-4.1777,-4.1953,-4.2187,-4.2363,-4.2383,-4.2285,-4.2051,-4.1855,-4.1543,-4.1211,-4.1172,-4.1172,-4.1172,-4.1172,-4.1172,-4.1172,-4.1172,-4.1172,-4.1172,-4.1172,-4.1172,-4.1172,-4.1172,-4.1172,-4.1172,-4.1172,-4.1172,-4.1172,-4.1172,-4.1172,-4.1172,-4.1172,-4.1172,-4.1172,-4.1172,-4.1172,-4.1172,-4.1172,-4.1172,-4.1172,-4.1172,-4.1172,-4.1172,-4.1172,-4.1172,-4.4837,-4.251,-4.1945,-4.1483,-4.125,-4.1172,-4.1172,-4.1172,-4.1172,-4.1172,-4.1172,-4.1172,-4.1172,-4.1172,-4.1172,-4.1172,-4.1172,-4.1172,-4.1172,-4.1172,-4.1172,-4.1172,-4.1172,-4.1172,-4.1172,-4.1172,-4.1172,-4.1172,-4.1172,-4.1172,-4.1172,-4.1172,-4.1172,-4.1172,-4.1172,-4.1172,-4.1172,-4.1172,-4.1172,-4.1172,-4.1172,-4.1172,-4.1172,-4.1172,-4.1172,-4.1172,-4.1172,-4.1172,-4.1172,-4.1172,-4.1172,-4.1172,-4.1172,-4.1172,-4.1172,-4.1172,-4.1172,-4.1172,-4.1172,-4.1172,-4.1172,-4.1172,-4.1172,-4.1211,-4.123,-4.125,-4.1387,-4.1738,-4.1836,-4.207,-4.2285,-4.2266,-4.2402,-4.248,-4.2519,-4.2168,-4.1855,-4.1738,-4.1543,-4.1308,-4.1172,-4.1172,-4.1172,-4.1172,-4.1172,-4.1172,-4.1172,-4.1172,-4.1172,-4.1172,-4.1172,-4.1172,-4.1172,-4.1172,-4.1172,-4.1172,-4.1172,-4.1172,-4.1172,-4.1172,-4.1172,-4.1172,-4.1172,-4.1172,-4.1172,-4.1172,-4.1172,-4.1172,-4.1172,-4.1172,-4.1172,-4.1172,-4.1172,-4.1172,-4.1172]},{"header":{"parameterUnit":"m.s-1","parameterCategory":1,"la1":31.0,"la2":29.5877,"lo1":-88.7671,"lo2":-86.6584,"dy":0.0162,"dx":0.0185,"nx":115,"ny":88,"refTime":"2026-03-30T12:00:00:Z","depth":0,"parameterNumber":3,"parameterNumberName":"V-component_of_WINDS"},"data":[0.0,0.0,0.0,0.0,0.0,0.0,0.0,0.0,0.0,0.0,0.0,0.0,0.0,0.0,0.0,0.0,0.0,0.0,0.0,0.0,0.0,0.0,0.0,0.0,0.0,0.0,0.0,0.0,0.0,0.0,0.0,0.0,0.0,0.0,0.0,0.0,0.0,0.0,0.0,0.0,0.0,0.0,0.0,0.0,0.0,0.0,0.0,0.0,0.0,0.0,0.0,0.0,0.0,0.0,0.0,0.0,0.0,0.0,0.0,0.0,0.0,0.0,0.0,0.0,0.0,0.0,0.0,0.0,0.0,0.0,0.0,0.0,0.0,0.0,0.0,0.0,0.0,0.0,0.0,0.0,0.0,0.0,0.0,0.0,0.0,0.0,0.0,0.0,0.0,0.0,0.0,0.0,0.0,0.0,0.0,0.0,0.0,0.0,0.0,0.0,0.0,0.0,0.0,0.0,0.0,0.0,0.0,0.0,0.0,0.0,0.0,0.0,0.0,0.0,0.0,0.0,0.0,0.0,0.0,0.0,0.0,0.0,0.0,0.0,0.0,0.0,0.0,0.0,0.0,0.0,0.0,0.0,0.0,0.0,0.0,0.0,0.0,0.0,0.0,0.0,0.0,0.0,0.0,0.0,0.0,0.0,0.0,0.0,0.0,0.0,0.0,0.0,0.0,0.0,0.0,0.0,0.0,0.0,0.0,0.0,0.0,0.0,0.0,0.0,0.0,0.0,0.0,0.0,0.0,0.0,0.0,0.0,0.0,0.0,0.0,0.0,0.0,0.0,0.0,0.0,0.0,0.0,0.0,0.0,0.0,0.0,0.0,0.0,0.0,0.0,0.0,0.0,0.0,0.0,0.0,0.0,0.0,0.0,0.0,0.0,0.0,0.0,0.0,0.0,0.0,0.0,0.0,0.0,0.0,0.0,0.0,0.0,0.0,0.0,0.0,0.0,0.0,0.0,0.0,0.0,0.0,0.0,0.0,0.0,0.0,0.0,0.0,0.0,0.0,0.0,0.0,0.0,0.0,0.0,0.0,0.0,0.0,0.0,0.0,0.0,0.0,0.0,0.0,0.0,0.0,0.0,0.0,0.0,0.0,0.0,0.0,0.0,0.0,0.0,0.0,0.0,0.0,0.0,0.0,0.0,0.0,0.0,0.0,0.0,0.0,0.0,0.0,0.0,0.0,0.0,0.0,0.0,0.0,0.0,0.0,0.0,0.0,0.0,0.0,0.0,0.0,0.0,0.0,0.0,0.0,0.0,0.0,0.0,0.0,0.0,0.0,0.0,0.0,0.0,0.0,0.0,0.0,0.0,0.0,0.0,0.0,0.0,0.0,0.0,0.0,0.0,0.0,0.0,0.0,0.0,0.0,0.0,0.0,0.0,0.0,0.0,0.0,0.0,0.0,0.0,0.0,0.0,0.0,0.0,0.0,0.0,0.0,0.0,0.0,0.0,0.0,0.0,0.0,0.0,0.0,0.0,0.0,0.0,0.0,0.0,0.0,0.0,0.0,0.0,0.0,0.0,0.0,0.0,0.0,0.0,0.0,0.0,0.0,0.0,0.0,0.0,0.0,0.0,0.0,0.0,0.0,0.0,0.0,0.0,0.0,0.0,0.0,0.0,0.0,0.0,0.0,0.0,0.0,0.0,0.0,0.0,0.0,0.0,0.0,0.0,0.0,0.0,0.0,0.0,0.0,0.0,0.0,0.0,0.0,0.0,0.0,0.0,0.0,0.0,0.0,0.0,0.0,0.0,0.0,0.0,0.0,0.0,0.0,0.0,0.0,0.0,0.0,0.0,0.0,0.0,0.0,0.0,0.0,0.0,0.0,0.0,0.0,0.0,0.0,0.0,0.0,0.0,0.0,0.0,0.0,0.0,0.0,0.0,0.0,0.0,0.0,0.0,0.0,0.0,0.0,0.0,0.0,0.0,0.0,0.0,0.0,0.0,0.0,0.0,0.0,0.0,0.0,0.0,0.0,0.0,0.0,0.0,0.0,0.0,0.0,0.0,0.0,0.0,0.0,0.0,0.0,0.0,0.0,0.0,0.0,0.0,0.0,0.0,0.0,0.0,0.0,0.0,0.0,0.0,0.0,0.0,0.0,0.0,0.0,0.0,0.0,0.0,0.0,0.0,0.0,0.0,0.0,0.0,0.0,0.0,0.0,0.0,0.0,0.0,0.0,0.0,0.0,0.0,0.0,0.0,0.0,0.0,0.0,0.0,0.0,0.0,0.0,0.0,0.0,0.0,0.0,0.0,0.0,0.0,0.0,0.0,0.0,0.0,0.0,0.0,0.0,0.0,0.0,0.0,0.0,0.0,0.0,0.0,0.0,0.0,0.0,0.0,0.0,0.0,0.0,0.0,0.0,0.0,0.0,0.0,0.0,0.0,0.0,0.0,0.0,0.0,0.0,0.0,0.0,0.0,0.0,0.0,0.0,0.0,0.0,0.0,0.0,0.0,0.0,0.0,0.0,0.0,0.0,0.0,0.0,0.0,0.0,0.0,0.0,0.0,0.0,0.0,0.0,0.0,0.0,0.0,0.0,0.0,0.0,0.0,0.0,0.0,0.0,0.0,0.0,0.0,0.0,0.0,0.0,0.0,0.0,0.0,0.0,0.0,0.0,0.0,0.0,0.0,0.0,0.0,0.0,0.0,0.0,0.0,0.0,0.0,0.0,0.0,0.0,0.0,0.0,0.0,0.0,0.0,0.0,0.0,0.0,0.0,0.0,0.0,0.0,0.0,0.0,0.0,0.0,0.0,0.0,0.0,0.0,0.0,0.0,0.0,0.0,0.0,0.0,0.0,0.0,0.0,0.0,0.0,0.0,0.0,0.0,0.0,0.0,0.0,0.0,0.0,0.0,0.0,0.0,0.0,0.0,0.0,0.0,0.0,0.0,0.0,0.0,0.0,0.0,0.0,0.0,0.0,0.0,0.0,0.0,0.0,0.0,0.0,0.0,0.0,0.0,0.0,0.0,0.0,0.0,0.0,0.0,0.0,0.0,0.0,0.0,0.0,0.0,0.0,0.0,0.0,0.0,0.0,0.0,0.0,0.0,0.0,0.0,0.0,0.0,0.0,0.0,0.0,0.0,0.0,0.0,0.0,0.0,0.0,0.0,0.0,0.0,0.0,0.0,0.0,0.0,0.0,0.0,0.0,0.0,0.0,0.0,0.0,0.0,0.0,0.0,0.0,0.0,0.0,0.0,0.0,0.0,0.0,0.0,0.0,0.0,0.0,0.0,0.0,0.0,0.0,0.0,0.0,0.0,0.0,0.0,0.0,0.0,0.0,0.0,0.0,0.0,0.0,0.0,0.0,0.0,0.0,0.0,0.0,0.0,0.0,0.0,0.0,0.0,0.0,0.0,0.0,0.0,0.0,0.0,0.0,0.0,0.0,0.0,0.0,0.0,0.0,0.0,0.0,0.0,0.0,0.0,0.0,0.0,0.0,0.0,0.0,0.0,0.0,0.0,0.0,0.0,0.0,0.0,0.0,0.0,0.0,0.0,0.0,0.0,0.0,0.0,0.0,0.0,0.0,0.0,0.0,0.0,0.0,0.0,0.0,0.0,0.0,0.0,0.0,0.0,0.0,0.0,0.0,0.0,0.0,0.0,0.0,0.0,0.0,0.0,0.0,0.0,0.0,0.0,0.0,0.0,0.0,0.0,0.0,0.0,0.0,0.0,0.0,0.0,0.0,0.0,0.0,0.0,0.0,0.0,0.0,0.0,0.0,0.0,0.0,0.0,0.0,0.0,0.0,0.0,0.0,0.0,0.0,0.0,0.0,0.0,0.0,0.0,0.0,0.0,0.0,0.0,0.0,0.0,0.0,0.0,0.0,0.0,0.0,0.0,0.0,0.0,0.0,0.0,0.0,0.0,0.0,0.0,0.0,0.0,0.0,0.0,0.0,0.0,0.0,0.0,0.0,0.0,0.0,0.0,0.0,0.0,0.0,0.0,0.0,0.0,0.0,0.0,0.0,0.0,0.0,0.0,0.0,0.0,0.0,0.0,0.0,0.0,0.0,0.0,0.0,0.0,0.0,0.0,0.0,0.0,0.0,0.0,0.0,0.0,0.0,0.0,0.0,0.0,0.0,0.0,0.0,0.0,0.0,0.0,0.0,0.0,0.0,0.0,0.0,0.0,0.0,0.0,0.0,0.0,0.0,0.0,0.0,0.0,0.0,0.0,0.0,0.0,0.0,0.0,0.0,0.0,0.0,0.0,0.0,0.0,0.0,0.0,0.0,0.0,0.0,0.0,0.0,1.8477,0.0,0.0,0.0,0.0,0.0,0.0,0.0,0.0,0.0,0.0,0.0,0.0,0.0,0.0,0.0,0.0,0.0,0.0,0.0,0.0,0.0,0.0,0.0,0.0,0.0,0.0,0.0,0.0,0.0,0.0,0.0,0.0,0.0,0.0,0.0,0.0,0.0,0.0,0.0,0.0,0.0,0.0,0.0,0.0,0.0,0.0,0.0,0.0,0.0,0.0,0.0,0.0,0.0,0.0,0.0,0.0,0.0,0.0,0.0,0.0,0.0,0.0,0.0,0.0,0.0,0.0,0.0,0.0,0.0,0.0,0.0,0.0,0.0,0.0,0.0,0.0,0.0,0.0,0.0,0.0,0.0,0.0,0.0,0.0,0.0,0.0,0.0,0.0,0.0,0.0,0.0,0.0,0.0,0.0,0.0,0.0,0.0,0.0,0.0,0.0,0.0,0.0,0.0,0.0,0.0,0.0,0.0,0.0,0.0,0.0,1.943,1.9417,1.8798,1.849,1.8477,0.0,0.0,0.0,0.0,0.0,0.0,0.0,0.0,0.0,0.0,0.0,0.0,0.0,0.0,0.0,0.0,0.0,0.0,0.0,0.0,0.0,0.0,0.0,0.0,0.0,0.0,0.0,0.0,0.0,0.0,0.0,0.0,0.0,0.0,0.0,0.0,0.0,0.0,0.0,0.0,0.0,0.0,0.0,0.0,0.0,0.0,0.0,0.0,0.0,0.0,0.0,0.0,0.0,0.0,0.0,0.0,0.0,0.0,0.0,0.0,0.0,0.0,0.0,0.0,0.0,0.0,0.0,0.0,0.0,0.0,0.0,0.0,0.0,0.0,0.0,0.0,0.0,0.0,0.0,0.0,0.0,0.0,0.0,0.0,0.0,0.0,0.0,0.0,0.0,0.0,0.0,0.0,0.0,0.0,0.0,0.0,0.0,0.0,0.0,0.0,0.0,0.0,0.0,0.0,0.0,0.0,0.0,0.0,0.0,0.0,0.0,0.0,1.8891,1.8531,1.8384,0.0,0.0,0.0,0.0,0.0,0.0,0.0,0.0,0.0,0.0,0.0,0.0,0.0,0.0,0.0,0.0,0.0,0.0,0.0,0.0,0.0,0.0,0.0,0.0,0.0,0.0,0.0,0.0,0.0,0.0,0.0,0.0,0.0,0.0,0.0,0.0,0.0,0.0,0.0,0.0,0.0,0.0,0.0,0.0,0.0,0.0,0.0,0.0,0.0,0.0,0.0,0.0,0.0,0.0,0.0,0.0,0.0,0.0,0.0,0.0,0.0,0.0,0.0,0.0,0.0,0.0,0.0,0.0,0.0,0.0,0.0,0.0,0.0,0.0,0.0,0.0,0.0,0.0,0.0,0.0,0.0,0.0,0.0,0.0,0.0,0.0,0.0,0.0,0.0,0.0,0.0,0.0,0.0,0.0,0.0,0.0,0.0,0.0,0.0,0.0,0.0,0.0,0.0,0.0,0.0,0.0,0.0,0.0,0.0,0.0,1.9492,1.9746,1.9185,0.0,1.8062,0.0,0.0,0.0,0.0,0.0,0.0,0.0,0.0,0.0,0.0,0.0,0.0,0.0,0.0,0.0,0.0,0.0,0.0,0.0,0.0,0.0,0.0,0.0,0.0,0.0,0.0,0.0,0.0,0.0,0.0,0.0,0.0,0.0,0.0,0.0,0.0,0.0,0.0,0.0,0.0,0.0,0.0,0.0,0.0,0.0,0.0,0.0,0.0,0.0,0.0,0.0,0.0,0.0,0.0,0.0,0.0,0.0,0.0,0.0,0.0,0.0,0.0,0.0,0.0,0.0,0.0,0.0,0.0,0.0,0.0,0.0,0.0,0.0,0.0,0.0,0.0,0.0,0.0,0.0,0.0,0.0,0.0,0.0,0.0,0.0,0.0,0.0,0.0,0.0,0.0,0.0,0.0,0.0,0.0,0.0,0.0,0.0,0.0,0.0,0.0,0.0,0.0,0.0,0.0,0.0,0.0,0.0,0.0,0.0,0.0,1.9933,2.0054,1.9319,1.8651,0.0,0.0,0.0,0.0,0.0,0.0,0.0,0.0,0.0,0.0,0.0,0.0,0.0,0.0,0.0,0.0,0.0,0.0,0.0,0.0,0.0,0.0,0.0,0.0,0.0,0.0,0.0,0.0,0.0,0.0,0.0,0.0,0.0,0.0,0.0,0.0,0.0,0.0,0.0,0.0,0.0,0.0,0.0,0.0,0.0,0.0,0.0,0.0,0.0,0.0,0.0,0.0,0.0,0.0,0.0,0.0,0.0,0.0,0.0,0.0,0.0,0.0,0.0,0.0,0.0,0.0,0.0,0.0,0.0,0.0,0.0,0.0,0.0,0.0,0.0,0.0,0.0,0.0,0.0,0.0,0.0,0.0,0.0,0.0,0.0,0.0,0.0,0.0,0.0,0.0,0.0,0.0,0.0,0.0,0.0,0.0,0.0,0.0,0.0,0.0,0.0,0.0,0.0,0.0,0.0,0.0,0.0,0.0,0.0,0.0,1.9973,1.9947,1.978,1.9172,1.8517,1.7889,0.0,0.0,0.0,0.0,0.0,0.0,0.0,0.0,0.0,0.0,0.0,0.0,0.0,0.0,0.0,0.0,0.0,0.0,0.0,0.0,0.0,0.0,0.0,0.0,0.0,0.0,0.0,0.0,0.0,0.0,0.0,0.0,0.0,0.0,0.0,0.0,0.0,0.0,0.0,0.0,0.0,0.0,0.0,0.0,0.0,0.0,0.0,0.0,0.0,0.0,0.0,0.0,0.0,0.0,0.0,0.0,0.0,0.0,0.0,0.0,0.0,0.0,0.0,0.0,0.0,0.0,0.0,0.0,0.0,0.0,0.0,0.0,0.0,0.0,0.0,0.0,0.0,0.0,0.0,0.0,0.0,0.0,0.0,0.0,0.0,0.0,0.0,0.0,0.0,0.0,0.0,0.0,0.0,0.0,0.0,0.0,0.0,0.0,0.0,0.0,0.0,0.0,0.0,0.0,0.0,0.0,0.0,0.0,2.016,1.9693,1.9279,1.9011,1.8677,1.8223,0.0,0.0,0.0,0.0,0.0,0.0,0.0,0.0,0.0,0.0,0.0,0.0,0.0,0.0,0.0,0.0,0.0,0.0,0.0,0.0,0.0,0.0,0.0,0.0,0.0,0.0,0.0,0.0,0.0,0.0,0.0,0.0,0.0,0.0,0.0,0.0,0.0,0.0,0.0,0.0,0.0,0.0,0.0,0.0,0.0,0.0,0.0,0.0,0.0,0.0,0.0,0.0,0.0,0.0,0.0,0.0,0.0,0.0,0.0,0.0,0.0,0.0,0.0,0.0,0.0,0.0,0.0,0.0,0.0,0.0,0.0,0.0,0.0,0.0,0.0,0.0,0.0,0.0,0.0,0.0,0.0,0.0,0.0,0.0,0.0,0.0,0.0,0.0,0.0,0.0,0.0,0.0,0.0,0.0,0.0,0.0,0.0,0.0,0.0,0.0,0.0,0.0,0.0,0.0,0.0,0.0,0.0,0.0,0.0,1.9947,1.9933,1.9693,1.9212,1.8744,1.821,0.0,0.0,0.0,0.0,0.0,0.0,0.0,0.0,0.0,0.0,0.0,0.0,0.0,0.0,0.0,0.0,0.0,0.0,0.0,0.0,0.0,0.0,0.0,0.0,0.0,0.0,0.0,0.0,0.0,0.0,0.0,0.0,0.0,0.0,0.0,0.0,0.0,0.0,0.0,0.0,0.0,0.0,0.0,0.0,0.0,0.0,0.0,0.0,0.0,0.0,0.0,0.0,0.0,0.0,0.0,0.0,0.0,0.0,0.0,0.0,0.0,0.0,0.0,0.0,0.0,0.0,0.0,0.0,0.0,0.0,0.0,0.0,0.0,0.0,0.0,0.0,0.0,0.0,0.0,0.0,0.0,0.0,0.0,0.0,0.0,0.0,0.0,0.0,0.0,0.0,0.0,0.0,0.0,0.0,0.0,0.0,0.0,0.0,0.0,0.0,0.0,0.0,0.0,0.0,0.0,0.0,0.0,0.0,0.0,1.9666,0.0,1.992,1.9252,1.8838,1.8303,0.0,0.0,0.0,0.0,0.0,0.0,0.0,0.0,0.0,0.0,0.0,0.0,0.0,0.0,0.0,0.0,0.0,0.0,0.0,0.0,0.0,0.0,0.0,0.0,0.0,0.0,0.0,0.0,0.0,0.0,0.0,0.0,0.0,0.0,0.0,0.0,0.0,0.0,0.0,0.0,0.0,0.0,0.0,0.0,0.0,0.0,0.0,0.0,0.0,0.0,0.0,0.0,0.0,0.0,0.0,0.0,0.0,0.0,0.0,0.0,0.0,0.0,0.0,0.0,0.0,0.0,0.0,0.0,0.0,0.0,0.0,0.0,0.0,0.0,0.0,0.0,0.0,0.0,0.0,0.0,0.0,0.0,0.0,0.0,0.0,0.0,0.0,0.0,0.0,0.0,0.0,0.0,0.0,0.0,0.0,0.0,0.0,0.0,0.0,0.0,0.0,0.0,0.0,0.0,0.0,0.0,0.0,0.0,1.943,1.9457,1.9947,1.978,1.8971,1.8931,1.8504,0.0,0.0,0.0,0.0,0.0,0.0,0.0,0.0,0.0,0.0,0.0,0.0,0.0,0.0,0.0,0.0,0.0,0.0,0.0,0.0,0.0,0.0,0.0,0.0,0.0,0.0,0.0,0.0,0.0,0.0,0.0,0.0,0.0,0.0,0.0,0.0,0.0,0.0,0.0,0.0,0.0,0.0,0.0,0.0,0.0,0.0,0.0,0.0,0.0,0.0,0.0,0.0,0.0,0.0,0.0,0.0,0.0,0.0,0.0,0.0,0.0,0.0,0.0,0.0,0.0,0.0,0.0,0.0,0.0,0.0,0.0,0.0,0.0,0.0,0.0,0.0,0.0,0.0,0.0,0.0,0.0,0.0,0.0,0.0,0.0,0.0,0.0,0.0,0.0,0.0,0.0,0.0,0.0,0.0,0.0,0.0,0.0,0.0,0.0,0.0,0.0,0.0,0.0,0.0,0.0,0.0,0.0,0.0,0.0,1.9666,2.004,2.0013,1.9533,1.9132,1.8611,0.0,0.0,0.0,0.0,0.0,0.0,0.0,0.0,0.0,0.0,0.0,0.0,0.0,0.0,0.0,0.0,0.0,0.0,0.0,0.0,0.0,0.0,0.0,0.0,0.0,0.0,0.0,0.0,0.0,0.0,0.0,0.0,0.0,0.0,0.0,0.0,0.0,0.0,0.0,0.0,0.0,0.0,0.0,0.0,0.0,0.0,0.0,0.0,0.0,0.0,0.0,0.0,0.0,0.0,0.0,0.0,0.0,0.0,0.0,0.0,0.0,0.0,0.0,0.0,0.0,0.0,0.0,0.0,0.0,0.0,0.0,0.0,0.0,0.0,0.0,0.0,0.0,0.0,0.0,0.0,0.0,0.0,0.0,0.0,0.0,0.0,0.0,0.0,0.0,0.0,0.0,0.0,0.0,0.0,0.0,0.0,0.0,0.0,0.0,0.0,0.0,0.0,0.0,0.0,0.0,0.0,0.0,0.0,0.0,2.1142,2.0975,2.0695,2.0294,1.9826,1.9305,1.8704,0.0,0.0,0.0,0.0,0.0,0.0,0.0,0.0,0.0,0.0,0.0,0.0,0.0,0.0,0.0,0.0,0.0,0.0,0.0,0.0,0.0,0.0,0.0,0.0,0.0,0.0,0.0,0.0,0.0,0.0,0.0,0.0,0.0,0.0,0.0,0.0,0.0,0.0,0.0,0.0,0.0,0.0,0.0,0.0,0.0,0.0,0.0,0.0,0.0,0.0,0.0,0.0,0.0,0.0,0.0,0.0,0.0,0.0,0.0,0.0,0.0,0.0,0.0,0.0,0.0,0.0,0.0,0.0,0.0,0.0,0.0,0.0,0.0,0.0,0.0,0.0,0.0,0.0,0.0,0.0,0.0,0.0,0.0,0.0,0.0,0.0,0.0,0.0,0.0,0.0,0.0,0.0,0.0,0.0,0.0,0.0,0.0,0.0,0.0,0.0,0.0,0.0,0.0,0.0,0.0,0.0,0.0,0.0,2.3616,2.2745,2.1975,2.1229,2.0909,2.0454,0.0,0.0,0.0,0.0,0.0,0.0,0.0,0.0,0.0,0.0,0.0,0.0,0.0,0.0,0.0,0.0,0.0,0.0,0.0,0.0,0.0,0.0,0.0,0.0,0.0,0.0,0.0,0.0,0.0,0.0,0.0,0.0,0.0,0.0,0.0,0.0,0.0,0.0,0.0,0.0,0.0,0.0,0.0,0.0,0.0,0.0,0.0,0.0,0.0,0.0,0.0,0.0,0.0,0.0,0.0,0.0,0.0,0.0,0.0,0.0,0.0,0.0,0.0,0.0,0.0,0.0,0.0,0.0,0.0,0.0,0.0,0.0,0.0,0.0,0.0,0.0,0.0,0.0,0.0,0.0,0.0,0.0,0.0,0.0,0.0,0.0,0.0,0.0,0.0,0.0,0.0,0.0,0.0,0.0,0.0,0.0,0.0,0.0,0.0,0.0,0.0,0.0,0.0,0.0,0.0,0.0,0.0,0.0,0.0,2.5378,2.5579,2.4624,2.2499,2.1911,2.1162,0.0,0.0,0.0,0.0,0.0,0.0,0.0,0.0,0.0,0.0,0.0,0.0,0.0,0.0,0.0,0.0,0.0,0.0,0.0,0.0,0.0,0.0,0.0,0.0,0.0,0.0,0.0,0.0,0.0,0.0,0.0,0.0,0.0,0.0,0.0,0.0,0.0,0.0,0.0,0.0,0.0,0.0,0.0,0.0,0.0,0.0,0.0,0.0,0.0,0.0,0.0,0.0,0.0,0.0,0.0,0.0,0.0,0.0,0.0,0.0,0.0,0.0,0.0,0.0,0.0,0.0,0.0,0.0,0.0,0.0,0.0,0.0,0.0,0.0,0.0,0.0,0.0,0.0,0.0,0.0,0.0,0.0,0.0,0.0,0.0,0.0,0.0,0.0,0.0,0.0,0.0,0.0,0.0,0.0,0.0,0.0,0.0,0.0,0.0,0.0,0.0,0.0,0.0,0.0,0.0,0.0,0.0,0.0,2.6748,2.7997,2.8554,2.8038,2.6368,2.4527,2.2897,0.0,0.0,0.0,0.0,0.0,0.0,0.0,0.0,0.0,0.0,0.0,0.0,0.0,0.0,0.0,0.0,0.0,0.0,0.0,0.0,0.0,0.0,0.0,0.0,0.0,0.0,0.0,0.0,0.0,0.0,0.0,0.0,0.0,0.0,0.0,0.0,0.0,0.0,0.0,0.0,0.0,0.0,0.0,0.0,0.0,0.0,0.0,0.0,0.0,0.0,0.0,0.0,0.0,0.0,0.0,0.0,0.0,0.0,0.0,0.0,0.0,0.0,0.0,0.0,0.0,0.0,0.0,0.0,0.0,0.0,0.0,0.0,0.0,0.0,0.0,0.0,0.0,0.0,0.0,0.0,0.0,0.0,0.0,0.0,0.0,0.0,0.0,0.0,0.0,0.0,0.0,0.0,0.0,0.0,0.0,0.0,0.0,0.0,0.0,0.0,0.0,0.0,0.0,0.0,0.0,0.0,0.0,0.0,2.9128,3.092,3.1405,3.1526,3.1176,2.7912,2.5383,0.0,0.0,0.0,0.0,0.0,0.0,0.0,0.0,0.0,0.0,0.0,0.0,0.0,0.0,0.0,0.0,0.0,0.0,0.0,0.0,0.0,0.0,0.0,0.0,0.0,0.0,0.0,0.0,0.0,0.0,0.0,0.0,0.0,0.0,0.0,0.0,0.0,0.0,0.0,0.0,0.0,0.0,0.0,0.0,0.0,0.0,0.0,0.0,0.0,0.0,0.0,0.0,0.0,0.0,0.0,0.0,0.0,0.0,0.0,0.0,0.0,0.0,0.0,0.0,0.0,0.0,0.0,0.0,0.0,0.0,0.0,0.0,0.0,0.0,0.0,0.0,0.0,0.0,0.0,0.0,0.0,0.0,0.0,0.0,0.0,0.0,0.0,0.0,0.0,0.0,0.0,0.0,0.0,0.0,0.0,0.0,0.0,0.0,0.0,0.0,0.0,0.0,0.0,0.0,0.0,0.0,0.0,0.0,3.0837,3.2566,3.3091,3.3258,3.3171,3.046,2.8202,0.0,0.0,0.0,0.0,0.0,0.0,0.0,0.0,0.0,0.0,0.0,0.0,0.0,0.0,0.0,0.0,0.0,0.0,0.0,0.0,0.0,0.0,0.0,0.0,0.0,0.0,0.0,0.0,0.0,0.0,0.0,0.0,0.0,0.0,0.0,0.0,0.0,0.0,0.0,0.0,0.0,0.0,0.0,0.0,0.0,0.0,0.0,0.0,3.0059,0.0,0.0,0.0,0.0,0.0,0.0,0.0,0.0,0.0,0.0,0.0,0.0,0.0,0.0,0.0,0.0,0.0,0.0,0.0,0.0,0.0,0.0,0.0,0.0,0.0,0.0,0.0,0.0,0.0,0.0,0.0,0.0,0.0,0.0,0.0,0.0,0.0,0.0,0.0,0.0,0.0,0.0,0.0,0.0,0.0,0.0,0.0,0.0,0.0,0.0,0.0,0.0,0.0,0.0,0.0,0.0,0.0,0.0,0.0,3.2428,3.4153,3.4813,3.5142,3.5105,3.3575,3.1389,0.0,0.0,0.0,0.0,0.0,0.0,0.0,0.0,0.0,0.0,0.0,0.0,0.0,0.0,0.0,0.0,0.0,0.0,0.0,0.0,0.0,0.0,0.0,0.0,0.0,0.0,0.0,0.0,0.0,0.0,0.0,0.0,0.0,0.0,0.0,0.0,0.0,0.0,0.0,0.0,0.0,0.0,0.0,0.0,0.0,0.0,0.0,0.0,0.0,0.0,0.0,0.0,0.0,0.0,0.0,0.0,0.0,0.0,0.0,0.0,0.0,0.0,0.0,0.0,0.0,0.0,0.0,0.0,0.0,0.0,0.0,0.0,0.0,0.0,0.0,0.0,0.0,0.0,0.0,0.0,0.0,0.0,0.0,0.0,0.0,0.0,0.0,0.0,0.0,0.0,0.0,0.0,0.0,0.0,0.0,0.0,0.0,0.0,0.0,0.0,0.0,0.0,0.0,0.0,0.0,0.0,0.0,3.2402,3.3867,3.543,3.6269,3.6641,3.6562,3.6152,3.4089,3.0339,0.0,0.0,0.0,0.0,0.0,0.0,0.0,0.0,0.0,0.0,0.0,0.0,0.0,0.0,0.0,0.0,0.0,0.0,0.0,0.0,0.0,0.0,0.0,0.0,0.0,0.0,0.0,0.0,0.0,0.0,0.0,0.0,0.0,0.0,0.0,0.0,0.0,0.0,3.0023,3.1229,0.0,0.0,0.0,0.0,0.0,0.0,0.0,0.0,3.2156,0.0,0.0,0.0,0.0,0.0,0.0,0.0,0.0,0.0,0.0,0.0,0.0,0.0,0.0,0.0,0.0,0.0,0.0,0.0,0.0,0.0,0.0,0.0,0.0,0.0,0.0,0.0,0.0,0.0,0.0,0.0,0.0,0.0,0.0,0.0,0.0,0.0,0.0,0.0,0.0,0.0,0.0,0.0,0.0,0.0,0.0,0.0,0.0,0.0,0.0,0.0,0.0,0.0,0.0,0.0,0.0,3.1994,3.3555,3.4883,3.5898,3.6406,3.6504,3.6133,3.5703,3.4342,3.1934,0.0,0.0,0.0,0.0,0.0,0.0,0.0,0.0,0.0,0.0,0.0,0.0,0.0,0.0,0.0,0.0,0.0,0.0,0.0,0.0,0.0,0.0,0.0,0.0,0.0,0.0,0.0,0.0,0.0,0.0,0.0,0.0,0.0,0.0,0.0,0.0,0.0,0.0,0.0,3.3669,3.3996,0.0,0.0,0.0,0.0,0.0,0.0,0.0,0.0,3.32,0.0,0.0,0.0,0.0,0.0,0.0,0.0,0.0,0.0,0.0,0.0,0.0,0.0,0.0,0.0,0.0,0.0,0.0,0.0,0.0,0.0,0.0,0.0,0.0,0.0,0.0,0.0,0.0,0.0,0.0,0.0,0.0,0.0,0.0,0.0,0.0,0.0,0.0,0.0,0.0,0.0,0.0,0.0,0.0,0.0,0.0,0.0,0.0,0.0,0.0,0.0,0.0,0.0,0.0,0.0,3.2793,3.4297,3.5371,3.5996,3.623,3.6016,3.5351,3.4707,3.3457,0.0,0.0,0.0,0.0,0.0,0.0,0.0,0.0,0.0,0.0,0.0,0.0,0.0,0.0,0.0,0.0,0.0,0.0,0.0,0.0,0.0,0.0,0.0,0.0,0.0,0.0,0.0,0.0,0.0,0.0,0.0,0.0,0.0,0.0,0.0,0.0,0.0,0.0,0.0,0.0,3.6465,3.7171,3.6252,0.0,0.0,0.0,0.0,0.0,0.0,3.6313,3.575,0.0,0.0,0.0,0.0,0.0,0.0,0.0,0.0,0.0,0.0,0.0,0.0,0.0,0.0,0.0,0.0,0.0,0.0,0.0,0.0,0.0,0.0,0.0,0.0,0.0,0.0,0.0,0.0,0.0,0.0,0.0,0.0,0.0,0.0,0.0,0.0,0.0,0.0,0.0,0.0,0.0,0.0,0.0,0.0,0.0,0.0,0.0,0.0,0.0,0.0,0.0,0.0,0.0,0.0,0.0,3.3568,3.5002,3.5886,3.6064,3.6016,3.5605,3.4858,3.3995,3.2802,0.0,0.0,0.0,0.0,0.0,0.0,0.0,0.0,0.0,0.0,0.0,0.0,0.0,0.0,0.0,0.0,0.0,0.0,0.0,0.0,0.0,0.0,0.0,0.0,0.0,0.0,0.0,0.0,0.0,0.0,0.0,0.0,0.0,0.0,0.0,0.0,0.0,0.0,0.0,0.0,0.0,4.0136,3.9368,3.8879,0.0,0.0,0.0,0.0,3.9069,3.9212,0.0,0.0,0.0,0.0,0.0,0.0,0.0,0.0,0.0,0.0,0.0,0.0,0.0,0.0,0.0,0.0,0.0,0.0,0.0,0.0,0.0,0.0,0.0,0.0,0.0,0.0,0.0,0.0,0.0,0.0,0.0,0.0,0.0,0.0,0.0,0.0,0.0,0.0,0.0,0.0,0.0,0.0,0.0,0.0,0.0,0.0,0.0,0.0,0.0,0.0,0.0,0.0,0.0,0.0,0.0,0.0,3.4278,3.6002,3.6749,3.6451,3.6152,3.574,3.5185,3.4569,3.3476,0.0,0.0,0.0,0.0,0.0,0.0,0.0,0.0,0.0,0.0,0.0,0.0,0.0,0.0,0.0,0.0,0.0,0.0,0.0,0.0,0.0,0.0,0.0,0.0,0.0,0.0,0.0,0.0,0.0,0.0,0.0,0.0,0.0,0.0,0.0,0.0,0.0,0.0,0.0,0.0,0.0,4.2075,4.1489,4.101,4.0845,0.0,0.0,4.1044,4.2042,4.2183,0.0,0.0,0.0,0.0,0.0,0.0,0.0,0.0,0.0,0.0,0.0,0.0,0.0,0.0,0.0,0.0,0.0,0.0,0.0,0.0,0.0,0.0,0.0,0.0,0.0,0.0,0.0,0.0,0.0,0.0,0.0,0.0,0.0,0.0,0.0,0.0,0.0,0.0,0.0,0.0,0.0,0.0,0.0,0.0,0.0,0.0,0.0,0.0,0.0,0.0,0.0,0.0,0.0,0.0,0.0,3.3344,3.5253,3.7047,3.7709,3.7106,3.6403,3.5874,3.5511,3.5105,3.4199,0.0,0.0,0.0,0.0,0.0,0.0,0.0,0.0,0.0,0.0,0.0,0.0,0.0,0.0,0.0,0.0,0.0,0.0,0.0,0.0,0.0,0.0,0.0,0.0,0.0,0.0,0.0,0.0,0.0,0.0,0.0,0.0,0.0,0.0,0.0,0.0,0.0,0.0,0.0,0.0,0.0,0.0,4.3912,4.4266,0.0,0.0,0.0,4.4181,4.4682,0.0,0.0,0.0,0.0,0.0,0.0,0.0,0.0,0.0,0.0,0.0,0.0,0.0,0.0,0.0,0.0,0.0,0.0,0.0,0.0,0.0,0.0,0.0,0.0,0.0,0.0,0.0,0.0,0.0,0.0,0.0,0.0,0.0,0.0,0.0,0.0,0.0,0.0,0.0,0.0,0.0,0.0,0.0,0.0,0.0,0.0,0.0,0.0,0.0,0.0,0.0,0.0,0.0,0.0,0.0,0.0,0.0,3.646,3.8253,3.8816,3.8109,3.7179,3.6703,3.6582,3.6351,0.0,0.0,0.0,0.0,0.0,0.0,0.0,0.0,0.0,0.0,0.0,0.0,0.0,0.0,0.0,0.0,0.0,0.0,0.0,0.0,0.0,0.0,0.0,0.0,0.0,0.0,0.0,3.1763,0.0,0.0,0.0,0.0,0.0,0.0,0.0,0.0,0.0,0.0,0.0,0.0,0.0,0.0,4.64,4.6493,4.7233,4.7551,0.0,0.0,4.6803,4.7104,4.8058,4.7908,0.0,0.0,0.0,0.0,0.0,0.0,0.0,0.0,0.0,0.0,0.0,0.0,0.0,0.0,0.0,0.0,0.0,0.0,0.0,0.0,0.0,0.0,0.0,0.0,0.0,0.0,0.0,0.0,0.0,0.0,0.0,0.0,0.0,0.0,0.0,0.0,0.0,0.0,0.0,0.0,0.0,0.0,0.0,0.0,0.0,0.0,0.0,0.0,0.0,0.0,0.0,0.0,0.0,0.0,3.5658,3.8089,3.9715,4.0257,3.9583,3.9034,3.8737,3.8788,3.8925,3.821,0.0,0.0,0.0,0.0,0.0,0.0,0.0,0.0,0.0,0.0,0.0,0.0,0.0,0.0,0.0,0.0,0.0,0.0,0.0,0.0,0.0,0.0,0.0,0.0,0.0,0.0,0.0,0.0,0.0,0.0,0.0,0.0,0.0,0.0,0.0,0.0,0.0,0.0,0.0,0.0,0.0,4.8934,4.9092,4.9502,4.9731,0.0,4.8624,4.8159,4.9213,4.9038,4.8184,4.6476,0.0,0.0,0.0,0.0,0.0,0.0,0.0,0.0,0.0,0.0,0.0,0.0,0.0,0.0,0.0,0.0,0.0,0.0,0.0,0.0,0.0,0.0,0.0,0.0,0.0,0.0,0.0,0.0,0.0,0.0,0.0,0.0,0.0,0.0,0.0,0.0,0.0,0.0,0.0,0.0,0.0,0.0,0.0,0.0,0.0,0.0,0.0,0.0,0.0,0.0,0.0,0.0,0.0,3.6524,3.9279,4.1098,4.204,4.2104,4.1264,4.1045,4.1447,4.1479,4.0588,0.0,0.0,0.0,0.0,0.0,0.0,0.0,0.0,0.0,0.0,0.0,0.0,0.0,0.0,0.0,0.0,0.0,0.0,0.0,0.0,0.0,0.0,0.0,0.0,0.0,0.0,0.0,0.0,3.3854,3.3982,3.392,0.0,0.0,0.0,0.0,0.0,0.0,0.0,0.0,0.0,0.0,5.0949,5.1448,5.2288,0.0,0.0,5.1108,5.0393,5.0142,4.9916,4.8987,4.6677,4.4443,0.0,0.0,0.0,0.0,0.0,0.0,0.0,0.0,0.0,0.0,0.0,0.0,0.0,0.0,0.0,0.0,0.0,0.0,0.0,0.0,0.0,0.0,0.0,0.0,0.0,0.0,0.0,0.0,0.0,0.0,0.0,0.0,0.0,0.0,0.0,0.0,0.0,0.0,0.0,0.0,0.0,0.0,0.0,0.0,0.0,0.0,0.0,0.0,0.0,0.0,0.0,0.0,3.7236,4.0274,4.2365,4.3698,4.4071,4.341,4.328,4.3624,4.3678,4.2772,0.0,0.0,0.0,0.0,0.0,0.0,0.0,0.0,0.0,0.0,0.0,0.0,0.0,0.0,0.0,0.0,0.0,0.0,0.0,0.0,0.0,0.0,0.0,0.0,0.0,0.0,0.0,0.0,3.4753,3.4865,3.5163,0.0,0.0,0.0,0.0,0.0,0.0,0.0,0.0,0.0,0.0,5.2574,5.3162,5.4337,5.472,5.3579,5.2876,5.2047,5.093,5.0473,4.9457,4.7221,0.0,0.0,0.0,0.0,0.0,0.0,0.0,0.0,0.0,0.0,0.0,0.0,0.0,0.0,0.0,0.0,0.0,0.0,0.0,0.0,0.0,0.0,0.0,0.0,0.0,0.0,0.0,3.3828,0.0,0.0,3.305,0.0,0.0,0.0,0.0,0.0,0.0,0.0,0.0,0.0,0.0,0.0,0.0,0.0,0.0,0.0,0.0,0.0,0.0,0.0,0.0,0.0,0.0,3.7851,4.1194,4.3525,4.4825,4.5092,4.5456,4.548,4.5101,4.532,4.461,4.2815,0.0,0.0,0.0,0.0,0.0,0.0,0.0,0.0,0.0,0.0,0.0,0.0,0.0,0.0,0.0,0.0,0.0,0.0,0.0,0.0,0.0,0.0,0.0,0.0,0.0,0.0,3.5437,3.5818,3.6301,0.0,0.0,0.0,0.0,0.0,0.0,0.0,0.0,0.0,4.6645,5.0772,5.3664,5.4288,5.5165,5.5578,5.4772,5.3874,5.2865,5.168,5.0558,4.9437,0.0,0.0,0.0,0.0,0.0,0.0,0.0,0.0,0.0,0.0,0.0,0.0,0.0,0.0,0.0,0.0,0.0,0.0,0.0,0.0,0.0,0.0,0.0,0.0,0.0,0.0,0.0,3.7272,3.6037,0.0,0.0,0.0,0.0,0.0,0.0,0.0,0.0,0.0,0.0,0.0,4.144,4.2216,0.0,0.0,0.0,0.0,0.0,0.0,0.0,0.0,0.0,0.0,0.0,0.0,3.7967,4.123,4.3913,4.5806,4.6897,4.7474,4.7671,4.7579,4.727,4.5445,4.1953,0.0,0.0,0.0,0.0,0.0,0.0,0.0,0.0,0.0,0.0,0.0,0.0,0.0,0.0,0.0,0.0,0.0,0.0,0.0,0.0,0.0,0.0,0.0,0.0,0.0,3.6347,0.0,0.0,0.0,0.0,0.0,0.0,0.0,0.0,0.0,0.0,4.2439,4.4858,4.8037,5.1616,5.4368,5.5391,5.708,5.7781,0.0,0.0,0.0,0.0,0.0,0.0,0.0,0.0,0.0,0.0,0.0,0.0,0.0,0.0,4.7645,4.4846,4.4442,4.4494,4.4338,0.0,0.0,0.0,0.0,0.0,0.0,0.0,0.0,0.0,0.0,0.0,0.0,0.0,0.0,4.0448,3.9159,3.847,0.0,0.0,0.0,0.0,0.0,0.0,0.0,0.0,4.3945,4.5151,4.558,4.6598,4.7,0.0,4.7,4.505,0.0,0.0,0.0,0.0,0.0,0.0,0.0,0.0,3.881,4.2146,4.4973,4.7112,4.8538,4.9353,4.9696,4.9518,4.8487,4.6348,4.2939,4.0313,3.776,0.0,0.0,0.0,0.0,0.0,0.0,0.0,0.0,0.0,0.0,0.0,0.0,0.0,0.0,0.0,0.0,0.0,0.0,0.0,0.0,0.0,0.0,0.0,3.7934,0.0,0.0,0.0,0.0,0.0,0.0,0.0,0.0,0.0,4.3094,4.4758,4.6953,4.9698,5.2653,5.4976,5.6149,0.0,0.0,0.0,0.0,0.0,0.0,0.0,5.2156,5.2602,5.2627,5.2795,5.3697,5.3838,5.3838,5.3838,0.0,0.0,4.9781,4.9063,4.9063,4.909,4.8532,4.7758,4.6612,4.654,4.6509,0.0,0.0,0.0,0.0,4.2199,0.0,0.0,0.0,4.4797,4.3855,0.0,4.1323,0.0,0.0,0.0,0.0,4.0198,4.1418,0.0,0.0,4.7517,4.9017,5.0128,5.0821,5.1099,5.1017,5.0906,4.9936,4.7892,4.2655,0.0,0.0,0.0,0.0,0.0,0.0,4.0533,4.3913,4.6795,4.8839,4.9966,5.1092,5.1407,5.0944,4.9291,4.7612,4.5936,4.3651,4.1366,3.9201,3.7464,0.0,0.0,0.0,0.0,0.0,0.0,0.0,0.0,0.0,0.0,0.0,0.0,0.0,0.0,0.0,0.0,0.0,0.0,0.0,0.0,4.0073,0.0,0.0,0.0,0.0,0.0,0.0,0.0,0.0,0.0,4.6321,4.6209,4.744,4.9245,5.1595,0.0,0.0,0.0,0.0,5.837,5.7532,5.7888,5.7654,5.5907,5.5104,5.4988,5.5675,0.0,0.0,5.6566,5.6766,5.6824,5.6738,5.7283,5.6849,5.4564,5.3937,5.3738,5.3682,5.2746,5.1525,5.0052,4.9659,4.9402,4.8198,0.0,0.0,0.0,0.0,4.7684,4.8967,5.0121,4.9272,4.8048,4.6614,4.5598,0.0,0.0,0.0,0.0,0.0,0.0,4.6471,4.8042,5.037,5.1594,5.1963,5.3096,5.3296,5.2816,5.2816,5.2051,5.0578,4.7734,4.4427,4.0822,0.0,0.0,0.0,0.0,4.244,4.5574,4.8518,5.0531,5.1727,5.2516,5.306,5.3365,5.203,5.0833,4.999,4.778,4.5696,4.3918,4.2122,0.0,0.0,0.0,0.0,0.0,0.0,0.0,0.0,0.0,0.0,0.0,0.0,0.0,0.0,0.0,0.0,0.0,0.0,0.0,4.2754,4.2936,4.2491,0.0,0.0,0.0,0.0,0.0,0.0,0.0,0.0,0.0,5.0545,5.0529,5.0964,0.0,0.0,5.6166,5.69,5.853,5.9377,5.8698,5.9125,0.0,5.8242,5.7946,5.8183,5.9336,6.0516,6.1611,6.244,6.2203,6.1878,6.1848,6.1641,6.1229,6.0528,5.8493,5.6817,5.5963,5.5751,5.5154,5.3261,5.3052,5.2925,5.3824,5.0264,4.9529,4.9822,5.0964,5.2227,5.3724,5.5065,5.3873,5.2756,5.1558,5.0135,4.8238,4.6121,4.6268,0.0,0.0,0.0,5.0223,5.1487,5.3529,5.4555,5.4905,5.5867,5.6012,5.543,5.54,5.4584,5.3069,5.1932,4.9582,4.5987,0.0,4.0788,4.2535,4.3206,4.4931,4.764,5.0166,5.1904,5.2855,5.3499,5.3945,5.4366,5.3415,5.2603,5.2071,5.0273,4.8691,4.7461,4.5449,4.346,0.0,0.0,0.0,0.0,0.0,0.0,0.0,0.0,0.0,0.0,0.0,3.6954,3.7841,0.0,0.0,0.0,4.1948,4.3913,4.5183,4.54,0.0,0.0,0.0,0.0,0.0,0.0,0.0,4.951,5.111,5.2762,5.4517,5.4959,5.5097,5.5068,5.6789,5.8274,5.891,0.0,6.1038,6.0644,6.1128,6.1286,6.0512,6.0313,6.0511,6.1343,6.266,6.3707,6.4126,6.3887,6.3647,6.3588,6.3318,6.3137,6.3137,6.1467,5.9888,5.8927,5.8813,5.8163,5.6223,5.6116,5.5901,5.8375,5.7656,5.5481,5.4961,5.5591,5.6669,5.8242,5.9997,5.8082,5.7214,5.6974,5.4521,5.2396,5.0554,4.9942,0.0,5.2486,5.3114,5.4072,5.5329,5.6585,5.7513,5.8088,5.88,5.874,5.8022,5.7992,5.6974,5.5149,5.5029,5.4072,5.2139,4.6823,4.4957,4.6523,4.6552,4.7712,5.0076,5.189,5.3099,5.37,5.4276,5.4591,5.4591,5.4044,5.3442,5.2923,5.1799,5.0902,5.027,4.8019,4.6062,4.471,0.0,0.0,0.0,0.0,0.0,0.0,0.0,0.0,0.0,0.0,0.0,0.0,0.0,0.0,4.1738,4.4708,0.0,4.7589,4.7709,0.0,0.0,0.0,4.6272,4.8048,5.0531,5.2287,5.2956,0.0,0.0,5.7935,5.9916,6.0516,5.8643,6.0133,6.1598,6.2248,6.2867,6.3247,6.3269,6.3772,6.3796,6.2964,6.2408,6.2158,6.2175,6.269,6.3109,6.3139,6.3139,6.3109,6.3166,6.3137,6.3137,6.3137,6.2961,6.2869,6.2154,6.1577,6.0647,5.8956,5.8591,5.8067,6.1905,6.1727,6.1138,5.976,5.8015,5.8693,5.97,6.0715,5.9279,5.8351,5.7782,5.6166,5.494,5.3982,5.3324,5.3563,5.4521,5.5179,5.5628,5.6068,5.7274,5.7962,5.8141,5.88,5.8471,5.7363,5.6855,5.5897,5.4461,5.3922,5.3414,5.2875,5.1036,5.0075,4.9969,4.9495,5.0265,5.2368,5.3849,5.4916,5.5567,5.6137,5.6433,5.6433,5.5893,5.5508,5.533,5.456,5.4057,5.3929,5.1913,4.9957,4.8148,4.5124,0.0,0.0,0.0,0.0,0.0,0.0,0.0,0.0,0.0,4.1067,4.3026,0.0,4.4718,0.0,4.7528,4.9396,5.0559,5.1141,0.0,0.0,5.0862,5.1199,5.272,5.4228,5.5418,5.6025,5.6996,5.8162,5.9598,6.1653,6.3212,6.3718,6.4892,6.5758,6.5948,6.6107,6.6202,6.6182,6.6638,6.6733,6.5543,6.449,6.3619,6.2982,6.2989,6.3137,6.3137,6.3137,6.3137,6.3137,6.3137,6.3137,6.3137,6.3137,6.3107,6.2869,6.2551,6.1791,6.0414,5.9914,5.9324,6.3137,6.3137,6.3137,6.2012,6.028,6.0946,6.153,6.1882,6.0565,5.9787,5.9368,5.7752,5.7004,5.6885,5.6256,5.6316,5.6944,5.7304,5.7483,5.7513,5.8231,5.856,5.859,5.8919,5.8411,5.7094,5.6166,5.5059,5.3803,5.3354,5.3174,5.3174,5.3114,5.3054,5.2935,5.2037,5.2247,5.3623,5.467,5.5359,5.5718,5.6077,5.6256,5.6226,5.5927,5.5598,5.5329,5.5239,5.5059,5.473,5.3114,5.1439,4.9733,4.6646,4.3728,0.0,0.0,0.0,0.0,0.0,0.0,0.0,0.0,0.0,0.0,0.0,4.8316,4.9284,5.0668,5.2209,5.3833,5.4945,5.5651,5.5868,5.6002,5.6385,5.704,5.8177,5.8952,5.9012,5.9645,6.0643,6.2108,6.3862,6.5559,6.7022,6.8239,6.8781,6.8089,6.7939,6.7939,6.7971,6.8295,6.8068,6.6826,6.5799,6.4758,6.368,6.3395,6.3304,6.3001,6.3071,6.3113,6.3029,6.3156,6.3252,6.3137,6.3137,6.3137,6.3079,6.2963,6.2463,6.1522,6.1114,6.0676,6.3137,6.3079,6.2989,6.263,6.2121,6.263,6.2839,6.275,6.1523,6.0924,6.0745,5.9009,5.853,5.8919,5.8291,5.8261,5.8764,5.8704,5.8757,5.8871,5.8961,5.9105,5.9195,5.9285,5.8564,5.7101,5.581,5.447,5.3181,5.3151,5.323,5.335,5.4149,5.481,5.532,5.4209,5.389,5.4341,5.491,5.5209,5.5209,5.5209,5.5209,5.5179,5.5119,5.479,5.4251,5.467,5.467,5.4072,5.2785,5.1498,5.0196,4.7465,4.5163,0.0,4.2542,0.0,0.0,0.0,0.0,0.0,0.0,0.0,0.0,5.0585,5.194,5.3197,5.4043,5.5302,5.7195,5.8602,5.9649,6.012,6.068,6.0995,6.0772,6.1795,6.2245,6.1535,6.2009,6.2922,6.4302,6.5831,6.7218,6.8553,6.9782,7.0138,6.9244,6.9055,6.9268,6.922,6.9057,6.8487,6.7323,6.652,6.5586,6.4288,6.395,6.371,6.3207,6.3256,6.336,6.3152,6.3304,6.3388,6.3164,6.3137,6.3137,6.3079,6.3079,6.2899,6.2363,6.2094,6.1912,6.3137,6.3019,6.251,6.2211,6.2061,6.1672,6.1493,6.1433,6.0625,5.9967,5.9458,5.9069,5.868,5.8261,5.7603,5.7169,5.6985,5.6677,5.691,5.7709,5.8431,5.9083,5.9624,6.0206,5.9399,5.7334,5.5766,5.4364,5.3045,5.3061,5.3398,5.4087,5.5516,5.6286,5.6409,0.0,0.0,0.0,5.5119,5.5209,5.5209,5.5209,5.5209,5.5179,5.467,0.0,5.4221,5.3803,5.3503,5.3354,5.2127,0.0,0.0,0.0,0.0,0.0,0.0,0.0,0.0,0.0,0.0,0.0,5.3919,5.4599,5.3886,5.509,5.6072,5.6366,5.7577,5.8722,5.9693,6.099,6.2016,6.2451,6.2861,6.2933,6.271,6.3067,6.3024,6.2279,6.2313,6.2956,6.4377,6.5358,6.6474,6.7929,6.8944,6.9363,6.9121,7.0006,7.0757,7.0791,6.9854,6.8978,6.8026,6.694,6.5895,6.4925,6.4691,6.4577,6.445,6.4137,6.3974,6.3772,6.3544,6.3325,6.3102,6.3137,6.3137,6.3137,6.3137,6.3049,6.2899,6.245,6.2061,6.3137,6.3019,6.2391,6.1912,0.0,6.0894,6.0416,6.0116,6.0086,5.9727,5.9129,5.9099,5.856,5.7573,5.6915,5.6312,5.567,5.5414,5.5879,5.6971,5.8462,5.9516,6.0254,6.1339,6.0626,5.8239,5.6412,5.4851,5.3607,5.3484,5.4006,5.5054,5.6855,5.7777,5.7699,5.7496,5.6783,5.5551,5.5581,5.5581,5.5551,5.57,5.58,5.5918,5.5311,0.0,0.0,0.0,0.0,0.0,0.0,0.0,0.0,0.0,0.0,4.9135,4.9018,4.9521,5.079,5.1904,5.3419,5.5647,5.8193,5.9281,5.8163,5.9131,5.9931,6.0298,6.1332,6.2266,6.2957,6.4024,6.4743,6.4957,6.5118,6.5018,6.4518,6.4194,6.3768,6.3057,6.2618,6.2956,6.441,6.5222,6.6271,6.7692,6.8605,6.9079,6.9147,6.9722,7.0195,7.0229,6.9614,6.8829,6.8135,6.7405,6.6442,6.5609,6.5287,6.5126,6.4802,6.4625,6.4448,6.3983,6.3951,6.4042,6.3553,6.3607,6.3679,6.3508,6.3394,6.3252,6.3137,6.281,6.257,6.3137,6.2989,6.2241,6.1613,6.1044,6.0266,5.9608,5.9129,5.9668,0.0,0.0,5.9207,5.8511,5.7273,5.6573,5.5791,5.4992,5.4715,5.5374,5.678,5.8778,6.0184,6.1064,6.2569,6.1963,5.9454,5.7509,5.5857,5.4608,5.4514,5.5082,5.6328,5.816,5.9036,5.9036,5.8587,5.7699,5.6427,5.6244,5.6145,5.6085,5.6378,5.6717,5.7053,5.6402,5.5783,5.5271,5.507,5.5008,5.5054,5.4558,5.4247,5.42,5.3255,5.2686,5.2597,5.2675,5.3437,5.517,5.5605,5.6763,5.9025,6.1369,6.2415,6.1569,6.2279,6.3024,6.3632,6.4377,6.5019,6.5628,6.6373,6.6812,6.6812,6.6812,6.6508,6.5764,6.5189,6.4478,6.3632,6.299,6.3091,6.441,6.5087,6.6034,6.7387,6.8166,6.8707,6.8741,6.8977,6.9248,6.9248,6.887,6.8404,6.7982,6.7545,6.6962,6.608,6.589,6.5659,6.5173,6.5049,6.4864,6.435,6.4647,6.4727,6.4342,6.4429,6.442,6.4153,6.3876,6.3508,6.3194,6.3137,6.3107,6.3137,6.2989,6.1762,6.1194,6.1014,5.9787,5.9189,5.9099,5.9219,5.9297,5.9476,5.966,5.9166,5.8085,5.7064,5.6227,5.5559,5.4731,5.5431,5.7431,5.9328,6.0946,6.2285,6.3688,6.3082,6.0618,5.9055,5.7701,5.6579,5.6288,5.6826,5.8216,5.9458,6.0098,6.0054,5.9631,5.9011,5.8162,5.7338,5.691,5.6848,5.7276,5.7854,5.8451,5.7841,5.7471,5.7376,5.6802,5.6495,5.6527,5.6431,5.6367,5.6335,5.6552,5.6936,5.7485,5.786,5.8736,6.0117,6.0295,6.1042,6.26,6.3728,6.37,6.2415,6.3497,6.4343,6.4478,6.5121,6.5561,6.573,6.6373,6.6812,6.6812,6.6812,6.6508,6.5797,6.5595,6.5019,6.3802,6.3429,6.3666,6.4478,6.4783,6.5425,6.6609,6.7286,6.7218,6.7455,6.8301,6.9011,6.9011,6.8461,6.8046,6.7781,6.7318,6.6877,6.6684,6.6632,6.6513,6.6345,6.6022,6.579,6.5567,6.5363,6.5335,6.5517,6.5448,6.5102,6.4863,6.4414,6.3954,6.3246,6.3077,6.3077,6.2331,6.1912,6.1121,6.0866,6.0916,6.0327,6.0008,6.0008,6.0008,5.9872,5.9705,5.9836,5.9613,5.9091,5.8279,5.7684,5.7288,5.6848,5.7527,5.9177,6.1127,6.2599,6.37,6.5134,6.465,6.2527,6.1415,6.0228,5.9036,5.8755,5.9174,6.0074,6.0978,6.1465,6.1391,6.0978,6.0365,5.961,5.8605,5.7963,5.7807,5.8405,5.9024,5.9598,5.8961,5.8615,5.8615,5.7933,5.7738,5.817,5.7771,5.7738,5.8138,5.8222,5.8437,5.888,5.927,6.0068,6.1226,6.2042,6.2787,6.3497,6.4546,6.4918,6.4241,6.5155,6.5797,6.5797,6.6136,6.6305,6.6305,6.6609,6.6812,6.6812,6.6812,6.6677,6.6339,6.5899,6.5425,6.4783,6.4343,6.4377,6.5087,6.5189,6.5561,6.6609,6.6812,6.6812,6.6812,6.7387,6.7861,6.7827,6.7557,6.7354,6.732,6.7049,6.6846,6.6812,6.6812,6.6812,6.677,6.6516,6.6219,6.5879,6.5804,6.5835,6.6015,6.5752,6.5421,6.4873,6.4324,6.3671,6.3152,6.2825,6.2421,6.1583,6.1044,6.0741,6.0782,6.1102,6.1052,6.1142,6.1297,6.1142,6.0938,6.0784,6.0645,6.0568,6.0487,5.9973,5.9619,5.9497,5.9317,5.9864,6.1133,6.2885,6.414,6.4918,6.6203,6.5825,6.4095,6.3302,6.2283,6.106,6.082,6.1036,6.1554,6.211,6.2415,6.2381,6.1991,6.1432,6.0745,5.9935,5.9323,5.9024,5.9674,6.0269,6.0703,6.0291,5.9994,5.9961,5.9465,5.9399,5.9928,5.9465,5.9399,5.9928,5.9823,5.9764,5.9962,6.0203,6.0806,6.1733,6.3024,6.3835,6.4005,6.5053,6.5764,6.5967,6.6474,6.6812,6.6812,6.6779,6.6779,6.6779,6.6812,6.6812,6.6812,6.6812,6.6812,6.6745,6.6271,6.5831,6.5662,6.5053,6.485,6.5459,6.5527,6.5764,6.6576,6.6812,6.6812,6.6812,6.6812,6.6812,6.6812,6.6812,6.6846,6.6812,6.6812,6.6812,6.6812,6.6812,6.6812,6.677,6.6677,6.6464,6.6109,6.6268,6.6434,6.6271,6.6237,6.6013,6.5509,6.4786,6.3797,6.2896,6.2453,6.1938,6.1164,6.107,6.0929,6.1221,6.1803,6.1819,6.2221,6.2667,6.2077,6.2428,6.3259,6.2731,6.246,6.2492,6.226,6.207,6.1872,6.136,6.1829,6.2966,6.4018,6.4884,6.5628,6.6406,6.5909,6.4379,6.3793,6.2899,6.1654,6.1358,6.1595,6.2223,6.2381,6.2415,6.2341,6.211,6.1756,6.1276,6.1391,6.1111,6.0459,6.087,6.1513,6.2183,6.2156,6.2122,6.1975,6.2054,6.2021,6.2122,6.1981,6.2021,6.2048,6.206,6.2099,6.2066,6.2105,6.2516,6.326,6.4072,6.4783,6.5425,6.5595,6.6,6.6609,6.6745,6.6812,6.6812,6.6812,6.6812,6.6812,6.6812,6.6812,6.6812,6.6812,6.6812,6.6812,6.6779,6.6474,6.573,6.5155,6.4884,6.5561,6.5324,6.5425,6.6643,6.6812,6.6812,6.6812,6.6812,6.6812,6.6812,6.6812,6.6812,6.6812,6.6812,6.6812,6.6812,6.6812,6.6812,6.677,6.677,6.6728,6.6558,6.6668,6.6843,6.7204,6.7355,6.6899,6.6274,6.5514,6.4628,6.294,6.2193,6.1838,6.0957,6.0476,6.1024,6.1972,6.3036,6.3365,6.3678,6.3905,6.3631,6.3988,6.4662,6.4525,6.4485,6.4518,6.4438,6.4589,6.4892,6.4707,6.4832,6.5369,6.5756,6.6068,6.6373,6.6643,6.5993,6.4592,6.4293,6.347,6.2306,6.1991,6.211,6.2381,6.2415,6.2415,6.2381,6.2268,6.215,6.1951,6.203,6.1951,6.1716,6.1683,6.1917,6.2341,6.2415,6.2415,6.2415,6.2415,6.2415,6.2415,6.2415,6.2415,6.2415,6.2415,6.2415,6.2415,6.2821,6.3193,6.3497,6.458,6.5358,6.5696,6.6102,6.6508,6.6779,6.6812,6.6812,6.6812,6.6812,6.6812,6.6812,6.6812,6.6812,6.6812,6.6812,6.6812,6.6812,6.6812,6.6677,6.6339,6.5696,6.5493,6.6136,6.6102,6.617,6.6745,6.6812,6.6812,6.6812,6.6812,6.6812,6.6812,6.6812,6.6812,6.6812,6.6812,6.6812,6.6812,6.6812,6.6812,6.6812,6.6812,6.6812,6.6812,6.6812,6.688,6.7066,6.6997,6.6698,6.6275,6.5253,6.4025,6.2882,6.2234,6.1812,6.1025,6.0696,6.1853,6.3212,6.4374,6.477,6.5027,6.5159,6.5027,6.5205,6.5746,6.5965,6.5975,6.5995,6.5994,6.6305,6.6779,6.6812,6.6812,6.6812,6.6812,6.6812,6.6812,6.6812,6.6034,6.4816,6.4613,6.3835,6.255,6.2415,6.2415,6.2415,6.2415,6.2415,6.2415,6.2415,6.2415,6.2415,6.2415,6.2415,6.2341,6.2189,6.2189,6.2381,6.2415,6.2415,6.2415,6.2415,6.2415,6.2415,6.2415,6.2415,6.2415,6.2415,6.2482,6.2753,6.3599,6.4106,6.414,6.529,6.6,6.6034,6.6508,6.6812,6.6812,6.6812,6.6812,6.6812,6.6812,6.6812,6.6812,6.6812,6.6812,6.6812,6.6812,6.6812,6.6812,6.6812,6.6812,6.6745,6.6068,6.5865,6.6373,6.6609,6.6779,6.6812,6.6812,6.6812,6.6812,6.6812,6.6812,6.6812,6.6812,6.6812,6.6812,6.6812,6.6812,6.6812,6.6812,6.6812,6.6812,6.6812,6.6812,6.6812,6.6812,6.6846,6.6948,6.6702,6.6421,6.5836,6.4989,6.4077,6.3475,6.2833,6.2281,6.1325,6.2146,6.3976,6.5024,6.5636,6.5648,6.6044,6.6491,6.5935,6.6044,6.6652,6.6728,6.6728,6.6728,6.6669,6.6779,6.6812,6.6812,6.6812,6.6812,6.6812,6.6812,6.6812,6.6812,6.6034,6.4783,6.4613,6.3835,6.2482,6.2415,6.2415,6.2415,6.2415,6.2415,6.2415,6.2415,6.2415,6.2415,6.2415,6.2415,6.2415,6.2381,6.2381,6.2381,6.2415,6.2415,6.2415,6.2415,6.2415,6.2415,6.2415,6.2415,6.2415,6.2415,6.2753,6.3463,6.4749,6.5527,6.5595,6.6237,6.6711,6.6745,6.6745,6.6812,6.6812,6.6812,6.6812,6.6812,6.6812,6.6812,6.6812,6.6812,6.6812,6.6812,6.6812,6.6812,6.6812,6.6812,6.6812,6.6711,6.6203,6.5865,6.5831,6.6373,6.6745,6.6812,6.6812,6.6812,6.6812,6.6812,6.6812,6.6812,6.6812,6.6812,6.6812,6.6812,6.6812,6.6812,6.6812,6.6812,6.6812,6.6812,6.6812,6.6812,6.6812,6.6812,6.6812,6.6686,6.6558,6.6142,6.5823,6.512,6.4265,6.4031,6.3415,6.3001,6.3805,6.4897,6.5713,6.6225,6.634,6.6576,6.6779,6.6508,6.6542,6.6779,6.6812,6.6812,6.6812,6.6812,6.6812,6.6812,6.6812,6.6812,6.6812,6.6812,6.6812,6.6812,6.6812,6.6305,6.5358,6.4816,6.3835,6.255,6.2415,6.2415,6.2415,6.2415,6.2415,6.2415,6.2415,6.2415,6.2415,6.2415,6.2415,6.2415,6.2415,6.2415,6.2415,6.2415,6.2415,6.2415,6.2415,6.2415,6.2415,6.2415,6.2415,6.2448,6.2854,6.3226,6.3599,6.4884,6.5696,6.5764,6.6373,6.6812,6.6812,6.6812,6.6812,6.6812,6.6812,6.6812,6.6812,6.6812,6.6812,6.6812,6.6812,6.6812,6.6812,6.6812,6.6812,6.6812,6.6812,6.6812,6.6779,6.6542,6.6271,6.5933,6.6339,6.6812,6.6812,6.6812,6.6812,6.6812,6.6812,6.6812,6.6812,6.6812,6.6812,6.6812,6.6812,6.6812,6.6812,6.6812,6.6812,6.6812,6.6812,6.6812,6.6812,6.6812,6.6812,6.6812,6.677,6.6643,6.6455,6.6146,6.5801,6.5111,6.4774,6.3923,6.4755,6.5054,6.5757,6.6225,6.6592,6.6728,6.6812,6.6812,6.6812,6.6812,6.6812,6.6812,6.6812,6.6812,6.6812,6.6812,6.6812,6.6812,6.6812,6.6812,6.6812,6.6812,6.6812,6.6812,6.6406,6.5595,6.4681,6.37,6.2821,6.2482,6.2415,6.2415,6.2415,6.2415,6.2415,6.2415,6.2415,6.2415,6.2415,6.2415,6.2415,6.2415,6.2415,6.2415,6.2415,6.2415,6.2415,6.2415,6.2415,6.2415,6.2415,6.2415,6.2482,6.3328,6.3869,6.4038,6.5256,6.6034,6.6102,6.6542,6.6812,6.6812,6.6812,6.6812,6.6812,6.6812,6.6812,6.6812,6.6812,6.6812,6.6812,6.6812,6.6812,6.6812,6.6812,6.6812,6.6812,6.6812,6.6677,6.6508,6.6643,6.6406,6.5967,6.6406,6.6745,6.6812,6.6812,6.6812,6.6812,6.6812,6.6812,6.6812,6.6812,6.6812,6.6812,6.6812,6.6812,6.6812,6.6812,6.6812,6.6812,6.6812,6.6812,6.6812,6.6812,6.6812,6.6812,6.6812,6.6728,6.6558,6.6455,6.6229,6.5734,6.5359,6.4574,6.6436,6.589,6.6516,6.6728,6.677,6.677,6.6812,6.6812,6.6812,6.6812,6.6812,6.6812,6.6812,6.6812,6.6812,6.6812,6.6812,6.6812,6.6812,6.6812,6.6812,6.6812,6.6812,6.6812,6.6406,6.5662,6.4309,6.3592,6.3497,6.2854,6.2516,6.2448,6.2415,6.2415,6.2415,6.2415,6.2415,6.2415,6.2415,6.2415,6.2415,6.2415,6.2415,6.2415,6.2415,6.2415,6.2415,6.2415,6.2415,6.2415,6.2415,6.2415,6.2651,6.3768,6.458,6.4783,6.5967,6.6711,6.6779,6.6779,6.6812,6.6812,6.6812,6.6812,6.6812,6.6812,6.6812,6.6812,6.6812,6.6812,6.6812,6.6812,6.6812,6.6812,6.6812,6.6812,6.6812,6.6779,6.6542,6.6,6.6237,6.6406,6.6068,6.6237,6.6643,6.6779,6.6812,6.6812,6.6812,6.6812,6.6812,6.6812,6.6812,6.6812,6.6812,6.6812,6.6812,6.6812,6.6812,6.6812,6.6812,6.6812,6.6812,6.6812,6.6812,6.6812,6.6812,6.6812,6.6812,6.6686,6.6643,6.6567,6.6296,6.589,6.531,6.739,6.7007,6.6846,6.6812,6.6812,6.6812,6.6812,6.6812,6.6812,6.6812,6.6812,6.6812,6.6812,6.6812,6.6812,6.6812,6.6812,6.6812,6.6812,6.6812,6.6812,6.6812,6.6812,6.6812,6.6406,6.573,6.5256,6.4715,6.4208,6.3497,6.3159,6.3091,6.2618,6.2415,6.2415,6.2415,6.2415,6.2415,6.2415,6.2415,6.2415,6.2415,6.2415,6.2415,6.2415,6.2415,6.2415,6.2415,6.2415,6.2415,6.2415,6.2618,6.3226,6.4072,6.4816,6.5392,6.6271,6.6812,6.6812,6.6812,6.6812,6.6812,6.6812,6.6812,6.6812,6.6812,6.6812,6.6812,6.6812,6.6812,6.6812,6.6812,6.6812,6.6812,6.6812,6.6812,6.6779,6.6406,6.5967,6.5696,6.5459,6.5392,6.5662,6.6034,6.6339,6.6745,6.6812,6.6812,6.6812,6.6812,6.6812,6.6812,6.6812,6.6812,6.6812,6.6812,6.6812,6.6812,6.6812,6.6812,6.6812,6.6812,6.6812,6.6812,6.6812,6.6812,6.6812,6.6812,6.6812,6.6812,6.6728,6.6694,6.6703,6.6187,6.5387,6.8528,6.8118,6.7818,6.7489,6.7252,6.7218,6.7049,6.6846,6.6812,6.6812,6.6812,6.6812,6.6812,6.6812,6.6812,6.6812,6.6812,6.6812,6.6812,6.6812,6.6812,6.6812,6.6812,6.6812,6.6609,6.6102,6.5797,6.5459,6.4952,6.4038,6.3491,6.3396,6.2753,6.2415,6.2415,6.2415,6.2415,6.2415,6.2415,6.2415,6.2415,6.2415,6.2415,6.2415,6.2415,6.2415,6.2415,6.2415,6.2415,6.2448,6.2618,6.3057,6.3531,6.4444,6.5222,6.5696,6.6339,6.6812,6.6812,6.6812,6.6812,6.6812,6.6812,6.6812,6.6812,6.6812,6.6812,6.6812,6.6812,6.6812,6.6812,6.6812,6.6812,6.6812,6.6812,6.6812,6.6745,6.6406,6.5967,6.5797,6.5595,6.5561,6.5628,6.6034,6.6271,6.6745,6.6812,6.6812,6.6812,6.6812,6.6812,6.6812,6.6812,6.6812,6.6812,6.6812,6.6812,6.6812,6.6812,6.6812,6.6812,6.6812,6.6812,6.6812,6.6812,6.6812,6.6812,6.6812,6.6812,6.6812,6.6812,6.6812,6.6643,6.5764,6.5005,6.9789,6.918,6.9113,6.8538,6.7895,6.7827,6.7421,6.688,6.6812,6.6812,6.6812,6.6812,6.6812,6.6812,6.6812,6.6812,6.6812,6.6812,6.6812,6.6812,6.6812,6.6812,6.6812,6.6812,6.6745,6.6643,6.6102,6.5797,6.5662,6.4512,6.3666,6.3734,6.3125,6.2584,6.2719,6.2584,6.2685,6.2753,6.2584,6.255,6.2516,6.2415,6.2482,6.2516,6.255,6.2618,6.2753,6.2753,6.2618,6.2584,6.3125,6.3531,6.3903,6.4952,6.5662,6.5831,6.6474,6.6745,6.6812,6.6812,6.6812,6.6812,6.6812,6.6812,6.6812,6.6812,6.6812,6.6812,6.6812,6.6812,6.6812,6.6812,6.6812,6.6812,6.6812,6.6812,6.6812,6.6711,6.6271,6.5899,6.6237,6.644,6.573,6.6237,6.6542,6.6812,6.6812,6.6812,6.6812,6.6812,6.6812,6.6812,6.6812,6.6812,6.6812,6.6812,6.6812,6.6812,6.6812,6.6812,6.6812,6.6812,6.6812,6.6812,6.6812,6.6812,6.6812,6.6812,6.6812,6.6812,6.6812,6.6812,6.6406,6.5662,6.5121,7.006,6.9857,6.9316,6.8639,6.7963,6.7895,6.7523,6.688,6.6846,6.6914,6.6846,6.6812,6.6846,6.6812,6.6812,6.6812,6.6812,6.6812,6.6812,6.6812,6.6812,6.6812,6.6812,6.6812,6.6812,6.6779,6.6576,6.6508,6.644,6.5493,6.5053,6.5087,6.4275,6.3971,6.4005,6.3937,6.4005,6.3937,6.3429,6.3193,6.3091,6.2685,6.2685,6.3193,6.3193,6.3497,6.3937,6.4005,6.3734,6.326,6.3396,6.4038,6.4918,6.5493,6.5967,6.644,6.6643,6.6812,6.6812,6.6812,6.6812,6.6812,6.6812,6.6812,6.6812,6.6812,6.6812,6.6812,6.6812,6.6812,6.6812,6.6846,6.6846,6.6812,6.6948,6.6914,6.6745,6.6305,6.5899,6.573,6.5527,6.5527,6.5764,6.5933,6.6271,6.6677,6.6812,6.6812,6.6812,6.6812,6.6812,6.6812,6.6812,6.6812,6.6812,6.6812,6.6812,6.6812,6.6812,6.6812,6.6812,6.6812,6.6812,6.6812,6.6812,6.6812,6.6812,6.6812,6.6812,6.6812,6.6812,6.6812,6.6609,6.6068,6.5662,7.0669,7.0635,7.0195,6.9586,6.891,6.8876,6.8436,6.7861,6.776,6.7557,6.7354,6.7286,6.7083,6.6846,6.6812,6.6812,6.6812,6.6812,6.6812,6.6812,6.6812,6.6812,6.6812,6.6812,6.6812,6.6812,6.6812,6.6812,6.6643,6.6068,6.573,6.5493,6.4952,6.4613,6.4512,6.4613,6.4613,6.4512,6.4174,6.3869,6.3497,6.3429,6.3328,6.3632,6.3768,6.4208,6.4546,6.458,6.4377,6.4106,6.4275,6.4816,6.5561,6.6,6.6373,6.6812,6.6812,6.6812,6.6812,6.6812,6.6812,6.6812,6.6812,6.6812,6.6812,6.6812,6.6812,6.6812,6.6812,6.6812,6.688,6.7083,6.7421,6.7793,6.776,6.7523,6.6914,6.6474,6.6203,6.6068,6.5831,6.5662,6.6136,6.617,6.6373,6.6677,6.6812,6.6812,6.6812,6.6812,6.6779,6.6711,6.6779,6.6812,6.6812,6.6812,6.6812,6.6812,6.6812,6.6812,6.6812,6.6812,6.6812,6.6812,6.6812,6.6812,6.6812,6.6812,6.6812,6.6812,6.6812,6.6779,6.6609,6.6373,6.6,7.1222,7.1267,7.1267,7.0872,7.0195,7.0161,6.9586,6.9147,6.8944,6.8538,6.7963,6.7861,6.7421,6.6846,6.6812,6.6812,6.6812,6.6812,6.6812,6.6812,6.6812,6.6812,6.6812,6.6812,6.6812,6.6812,6.6812,6.6812,6.6677,6.6136,6.5865,6.5797,6.5256,6.4952,6.5087,6.4986,6.485,6.4986,6.485,6.4478,6.414,6.4208,6.4208,6.414,6.4681,6.4952,6.5019,6.4952,6.4918,6.485,6.5392,6.5628,6.5865,6.6508,6.6745,6.6812,6.6812,6.6812,6.6812,6.6812,6.6812,6.6812,6.6812,6.6812,6.6812,6.6812,6.6812,6.6812,6.6812,6.688,6.7083,6.7523,6.8098,6.8639,6.8944,6.8368,6.7455,6.7049,6.7049,6.7049,6.7049,6.7049,6.7049,6.7049,6.7117,6.7523,6.7387,6.7049,6.6948,6.6812,6.6677,6.6474,6.6609,6.6812,6.6812,6.6812,6.6812,6.6812,6.6812,6.6812,6.6812,6.6812,6.6812,6.6812,6.6812,6.6812,6.6812,6.6812,6.6846,6.6812,6.6812,6.6812,6.6779,6.6474,6.6136,7.0825,7.1007,7.1188,7.0872,7.0263,7.0161,6.9789,6.918,6.9147,6.8774,6.8064,6.7929,6.7557,6.688,6.6948,6.6812,6.6948,6.6914,6.6812,6.6812,6.6812,6.6812,6.6812,6.6812,6.6812,6.6812,6.6812,6.6812,6.6711,6.6643,6.6542,6.6474,6.6305,6.6339,6.6237,6.6136,6.6339,6.6237,6.5764,6.5358,6.5053,6.4816,6.4884,6.5155,6.5865,6.6237,6.6339,6.6339,6.6339,6.6237,6.5967,6.6,6.644,6.6677,6.6812,6.6812,6.6812,6.6812,6.6812,6.6812,6.6812,6.6812,6.688,6.6812,6.6812,6.6914,6.688,6.6846,6.6846,6.7184,6.7726,6.7827,6.8436,6.9079,6.9248,6.9113,6.8707,6.8571,6.847,6.8504,6.8504,6.8605,6.8571,6.8436,6.8436,6.847,6.803,6.7455,6.7151,6.6914,6.6677,6.6474,6.6609,6.6812,6.6812,6.6812,6.6812,6.6812,6.6812,6.7015,6.7015,6.6981,6.7049,6.6981,6.6812,6.688,6.7117,6.6948,6.7015,6.6914,6.6812,6.6812,6.6745,6.6508,6.6406,7.0156,7.0561,7.1052,7.1075,7.0737,7.0703,7.05,7.0195,7.0128,6.9688,6.9113,6.8977,6.8571,6.7929,6.7895,6.7895,6.776,6.7489,6.732,6.7252,6.7049,6.6812,6.6812,6.6812,6.6812,6.6812,6.6812,6.6812,6.6812,6.6812,6.6779,6.6812,6.6812,6.6711,6.6812,6.6812,6.6779,6.6711,6.644,6.6068,6.5662,6.573,6.573,6.617,6.6609,6.6812,6.6779,6.6779,6.6812,6.6711,6.644,6.6373,6.6711,6.6812,6.6812,6.6812,6.6812,6.6812,6.6812,6.6812,6.6812,6.6812,6.7117,6.7286,6.7455,6.7624,6.7895,6.7895,6.7963,6.8166,6.8876,6.8977,6.935,6.9925,7.0128,7.0128,7.0026,6.9553,6.9079,6.9079,6.9011,6.9011,6.9079,6.9282,6.9147,6.891,6.8267,6.7726,6.7455,6.7184,6.6779,6.6609,6.6711,6.6779,6.6812,6.6812,6.6812,6.6812,6.6812,6.7151,6.7387,6.7387,6.7387,6.7387,6.7455,6.7557,6.7692,6.7455,6.7117,6.6914,6.6812,6.6812,6.6779,6.6677,6.6643,6.9442,7.011,7.0961,7.1312,7.1312,7.1278,7.1244,7.1278,7.1312,7.0703,7.0263,7.0195,6.9553,6.9147,6.8977,6.9045,6.8842,6.8233,6.776,6.7692,6.7083,6.688,6.6812,6.6812,6.6812,6.6812,6.6812,6.6812,6.6812,6.6812,6.6812,6.6812,6.6812,6.6812,6.6812,6.6812,6.6812,6.6779,6.6745,6.6508,6.6102,6.6406,6.6643,6.6711,6.6745,6.6812,6.6812,6.6812,6.6812,6.6812,6.6812,6.6812,6.6812,6.6812,6.6812,6.6812,6.6812,6.6812,6.6812,6.6812,6.6812,6.6846,6.7455,6.7827,6.7996,6.8436,6.8774,6.891,6.8944,6.918,7.006,6.9992,7.0398,7.1007,7.1244,7.1312,7.1109,7.0161,6.9722,6.9586,6.9823,6.9891,6.9789,6.9823,6.9586,6.9282,6.8639,6.8098,6.7895,6.7489,6.7083,6.6745,6.6779,6.6812,6.6812,6.6812,6.6812,6.6914,6.688,6.7354,6.7827,6.8301,6.8402,6.8267,6.8301,6.8335,6.8132,6.776,6.7387,6.7015,6.6812,6.6812,6.6812,6.6812,6.6812,6.909,6.9874,7.087,7.1312,7.1312,7.1312,7.1312,7.1312,7.1312,7.0872,7.0263,7.0195,6.9857,6.935,6.9113,6.9113,6.9113,6.8504,6.7996,6.7861,6.7218,6.6812,6.6812,6.6812,6.6812,6.6812,6.6812,6.6812,6.6812,6.6812,6.6812,6.6812,6.6812,6.6812,6.6812,6.6812,6.6812,6.6812,6.6812,6.6677,6.6643,6.6677,6.6812,6.6812,6.6812,6.6812,6.6812,6.6812,6.6812,6.6812,6.6812,6.6812,6.6846,6.6846,6.6914,6.6948,6.7015,6.7117,6.7083,6.6948,6.688,6.6981,6.7658,6.7996,6.8199,6.8707,6.9316,6.9282,6.9316,6.9485,7.0094,7.0297,7.0567,7.1075,7.1312,7.1312,7.1244,7.1007,7.0703,7.0635,7.0737,7.077,7.0567,7.0466,7.0432,7.0161,6.9654,6.9147,6.8808,6.8166,6.7489,6.7117,6.6812,6.6812,6.6812,6.6812,6.6846,6.6981,6.7151,6.7658,6.8301,6.9248,6.9553,6.935,6.9045,6.8842,6.8571,6.8132,6.7557,6.7049,6.6914,6.6812,6.6812,6.6812,6.6812,6.842,6.9412,7.0733,7.1312,7.1312,7.1312,7.1312,7.1312,7.1312,7.1109,7.0872,7.077,7.0601,7.0297,7.0229,7.0229,6.9958,6.9011,6.8571,6.8335,6.7421,6.6812,6.6812,6.6812,6.6812,6.6812,6.6812,6.6812,6.6812,6.6812,6.6812,6.6812,6.6812,6.6812,6.6812,6.6812,6.6812,6.6812,6.6812,6.6812,6.6812,6.6812,6.6812,6.6812,6.6846,6.6812,6.6812,6.6812,6.6812,6.6812,6.6812,6.6812,6.6948,6.7218,6.7387,6.7489,6.7726,6.7963,6.7996,6.7996,6.8064,6.8098,6.8639,6.9045,6.9282,6.9789,7.0128,7.0195,7.0263,7.0364,7.077,7.0737,7.0973,7.1176,7.1312,7.1312,7.1312,7.1312,7.1312,7.1312,7.1176,7.1075,7.1176,7.1142,7.1244,7.1007,7.0601,7.0161,6.9722,6.8876,6.7996,6.7489,6.7117,6.688,6.688,6.6812,6.6812,6.6981,6.7489,6.803,6.8673,6.9586,7.0195,7.0398,7.0026,6.962,6.9011,6.8605,6.7861,6.7117,6.6948,6.6812,6.6812,6.6812,6.6812,6.7687,6.8879,7.0469,7.1176,7.1222,7.1267,7.1312,7.1312,7.1312,7.1312,7.1312,7.1278,7.1278,7.1278,7.1244,7.1244,7.1176,6.9857,6.9282,6.8774,6.7726,6.7049,6.6846,6.6812,6.6812,6.6812,6.6812,6.6812,6.6812,6.6812,6.6812,6.6812,6.6812,6.6812,6.6812,6.6812,6.6812,6.6812,6.6812,6.6812,6.6812,6.6812,6.6812,6.688,6.6948,6.7083,6.7117,6.7387,6.7455,6.7455,6.7421,6.7354,6.7387,6.7963,6.8335,6.8436,6.8876,6.9045,6.9045,6.9011,6.8842,6.8842,6.9722,7.006,7.0263,7.0567,7.1176,7.1312,7.1244,7.1176,7.1176,7.1278,7.1278,7.1312,7.1312,7.1312,7.1312,7.1312,7.1312,7.1312,7.1312,7.1312,7.1312,7.1312,7.1312,7.1278,7.0872,7.0804,7.0297,6.9417,6.8605,6.7929,6.7455,6.7083,6.6914,6.6812,6.6812,6.688,6.7692,6.847,6.9147,6.9857,7.0398,7.0973,7.0973,7.05,6.9823,6.8944,6.8132,6.7455,6.7049,6.6812,6.6812,6.6812,6.6812,6.7157,6.8336,6.9921,7.0733,7.0961,7.1176,7.1312,7.1312,7.1312,7.1312,7.1312,7.1312,7.1312,7.1312,7.1312,7.1312,7.1041,7.0398,6.9688,6.9147,6.8166,6.7354,6.6914,6.6812,6.6812,6.6812,6.6812,6.6812,6.688,6.688,6.6812,6.6812,6.6812,6.6812,6.6812,6.6812,6.6812,6.6812,6.6812,6.6812,6.6812,6.6812,6.6812,6.6948,6.7354,6.7692,6.776,6.8166,6.8571,6.8639,6.8741,6.8774,6.8944,6.9519,6.9823,6.9755,6.9485,6.9113,6.9248,6.935,6.9383,6.9519,6.9925,7.0128,7.0466,7.0872,7.1312,7.1312,7.1312,7.1312,7.1312,7.1312,7.1312,7.1312,7.1312,7.1312,7.1312,7.1312,7.1312,7.1312,7.1312,7.1312,7.1312,7.1312,7.1312,7.1278,7.1244,7.1142,7.0838,6.9958,6.8876,6.8098,6.7692,6.7354,6.6948,6.6846,6.6812,6.6812,6.7827,6.8842,6.935,6.9958,7.0804,7.1244,7.1312,7.0939,6.9891,6.9011,6.8301,6.7624,6.6981,6.6812,6.6812,6.6812,6.6812,6.6089,6.7548,6.9105,7.0029,7.0515,7.1052,7.1312,7.1312,7.1312,7.1312,7.1312,7.1312,7.1312,7.1312,7.1312,7.1312,7.1142,7.0567,7.006,6.9485,6.8571,6.776,6.7421,6.7049,6.6812,6.6812,6.688,6.7151,6.7151,6.7015,6.6812,6.688,6.6846,6.6812,6.6981,6.6846,6.6812,6.6812,6.6812,6.6812,6.6812,6.6846,6.6846,6.688,6.7557,6.7895,6.8166,6.8639,6.9079,6.9079,6.9079,6.9079,6.9248,6.9722,7.0161,7.0161,7.0364,7.0398,7.0398,7.0297,7.0263,7.0364,7.0601,7.0838,7.0906,7.1075,7.1312,7.1312,7.1312,7.1312,7.1312,7.1312,7.1312,7.1312,7.1312,7.1312,7.1312,7.1312,7.1312,7.1312,7.1312,7.1312,7.1312,7.1312,7.1312,7.1278,7.1278,7.1244,7.0973,7.0432,6.9248,6.803,6.7793,6.759,6.7117,6.6812,6.6812,6.7015,6.8132,6.8977,6.9383,6.9992,7.0872,7.1312,7.1312,7.0737,6.9823,6.9147,6.8538,6.7692,6.6846,6.6812,6.6812,6.6812,6.6812,6.4875,6.6301,6.8089,6.9202,6.9874,7.0733,7.1131,7.1222,7.1267,7.1312,7.1312,7.1312,7.1312,7.1312,7.1312,7.1312,7.1278,7.0703,7.0364,6.9789,6.9113,6.8335,6.7827,6.732,6.7015,6.6846,6.7117,6.7387,6.759,6.7658,6.7557,6.7387,6.7624,6.7523,6.7455,6.7523,6.759,6.759,6.7557,6.7523,6.7523,6.7489,6.7455,6.7658,6.803,6.847,6.8571,6.9282,6.9688,6.9755,6.9789,6.9857,6.9958,7.0297,7.0567,7.0635,7.0906,7.1109,7.1109,7.1109,7.1312,7.1312,7.1312,7.121,7.1244,7.1312,7.1312,7.1312,7.1312,7.1312,7.1312,7.1312,7.1312,7.1312,7.1312,7.1312,7.1312,7.1312,7.1312,7.1312,7.1312,7.1312,7.1312,7.1312,7.1312,7.1312,7.1312,7.1312,7.1075,7.0737,6.9823,6.8605,6.8301,6.7963,6.7151,6.6846,6.6846,6.7184,6.8267,6.8977,6.9316,7.0128,7.1109,7.1312,7.1312,7.0804,7.0094,6.9417,6.8741,6.7895,6.7151,6.6914,6.6812,6.6812,6.6812,6.3565,6.4295,6.6794,6.8254,6.9026,7.011,7.0654,7.0916,7.1176,7.1312,7.1312,7.1312,7.1312,7.1312,7.1312,7.1312,7.1312,7.1244,7.0838,7.0398,6.9958,6.9147,6.847,6.7929,6.7557,6.7218,6.7557,6.7861,6.8098,6.8707,6.8774,6.8944,6.8639,6.8842,6.8774,6.8538,6.8571,6.8571,6.8605,6.8673,6.8673,6.8707,6.8741,6.8944,6.9519,7.0026,7.0026,7.0567,7.0872,7.0872,7.0838,7.0838,7.0804,7.0939,7.1041,7.1109,7.1176,7.1312,7.1312,7.1312,7.1312,7.1312,7.1312,7.1312,7.1312,7.1312,7.1312,7.1312,7.1312,7.1312,7.1312,7.1312,7.1312,7.1312,7.1312,7.1312,7.1312,7.1312,7.1312,7.1312,7.1312,7.1312,7.1312,7.1312,7.1312,7.1312,7.1312,7.1312,7.1312,7.0973,7.0331,6.9485,6.9079,6.8402,6.7184,6.688,6.6846,6.7286,6.8166,6.8741,6.9147,7.0128,7.1278,7.1312,7.1278,7.0804,7.0398,6.9789,6.9079,6.8132,6.7489,6.7184,6.6914,6.6812,6.6812,6.3481,6.4132,6.5584,6.6722,6.7751,6.9105,6.9982,7.0469,7.1007,7.1312,7.1312,7.1312,7.1312,7.1312,7.1312,7.1312,7.1312,7.1312,7.1075,7.077,7.0331,6.9857,6.9214,6.8808,6.8504,6.8267,6.8538,6.8944,6.9383,6.962,7.0094,7.0128,6.962,6.9147,6.9079,6.9248,6.9214,6.918,6.9147,6.9113,6.9079,6.9079,6.9079,6.9147,6.9823,7.0161,7.0263,7.0906,7.121,7.1312,7.1312,7.1312,7.1312,7.1312,7.1312,7.1312,7.1312,7.1312,7.1312,7.1312,7.1312,7.1312,7.1312,7.1312,7.1312,7.1312,7.1312,7.1312,7.1312,7.1312,7.1312,7.1312,7.1312,7.1312,7.1312,7.1312,7.1312,7.1312,7.1312,7.1312,7.1312,7.1312,7.1312,7.1312,7.1312,7.1312,7.1312,7.1312,7.1312,7.1244,7.0567,6.9992,6.9553,6.8808,6.759,6.7184,6.688,6.7421,6.8064,6.8639,6.9214,7.0364,7.1312,7.1312,7.1312,7.1075,7.0703,7.0195,6.9451,6.8504,6.7861,6.7421,6.7151,6.7015,6.7083,6.3451,6.4019,6.485,6.5875,6.7137,6.8618,6.9618,7.025,7.0961,7.1312,7.1312,7.1312,7.1312,7.1312,7.1312,7.1312,7.1312,7.1312,7.1312,7.1109,7.0804,7.0398,7.0094,6.9688,6.9248,6.9248,6.9417,6.9722,7.0026,7.0364,7.0737,7.0737,7.0364,6.9958,6.9857,6.9755,6.9755,6.9755,6.9755,6.9755,6.9789,6.9823,6.9857,6.9891,7.0398,7.0567,7.0703,7.1075,7.1244,7.1312,7.1312,7.1312,7.1312,7.1312,7.1312,7.1312,7.1312,7.1312,7.1312,7.1312,7.1312,7.1312,7.1312,7.1312,7.1312,7.1312,7.1312,7.1312,7.1312,7.1312,7.1312,7.1312,7.1312,7.1312,7.1312,7.1312,7.1312,7.1312,7.1312,7.1312,7.1312,7.1312,7.1312,7.1312,7.1312,7.1312,7.1312,7.1312,7.1312,7.1176,7.0906,7.0331,6.9823,6.8977,6.8098,6.7726,6.7354,6.7218,6.7895,6.8707,6.9485,7.0601,7.1278,7.1312,7.1312,7.1312,7.1075,7.0669,6.9891,6.8944,6.8436,6.803,6.8064,6.7963,6.7827,6.3394,6.3958,6.4789,6.6004,6.7395,6.8732,6.9732,7.0423,7.1007,7.1312,7.1312,7.1312,7.1312,7.1312,7.1312,7.1312,7.1312,7.1312,7.1312,7.1244,7.1142,7.0804,7.0466,7.0128,6.9958,6.9485,6.9789,7.0229,7.0297,7.0804,7.121,7.1278,7.1007,7.0939,7.121,7.121,7.121,7.121,7.1109,7.1007,7.0973,7.0939,7.0906,7.0939,7.1007,7.1075,7.1142,7.1176,7.1312,7.1312,7.1312,7.1312,7.1312,7.1312,7.1312,7.1312,7.1312,7.1312,7.1312,7.1312,7.1312,7.1312,7.1312,7.1312,7.1312,7.1312,7.1312,7.1312,7.1312,7.1312,7.1312,7.1312,7.1312,7.1312,7.1312,7.1312,7.1312,7.1312,7.1312,7.1312,7.1312,7.1312,7.1312,7.1312,7.1312,7.1312,7.1312,7.1312,7.1312,7.121,7.1007,7.0669,7.0161,6.9553,6.8774,6.8233,6.7861,6.759,6.7929,6.8944,6.9688,7.0567,7.1041,7.1244,7.1312,7.1312,7.1312,7.1244,7.05,6.9789,6.918,6.8842,6.891,6.8842,6.8571,6.3565,6.4326,6.5305,6.6533,6.7852,6.8814,6.9618,7.0296,7.0916,7.1312,7.1312,7.1312,7.1312,7.1312,7.1312,7.1312,7.1312,7.1312,7.1312,7.1312,7.1312,7.121,7.0939,7.0804,7.0737,7.0669,7.0872,7.0872,7.0973,7.1244,7.1278,7.1312,7.1312,7.1312,7.1278,7.1312,7.1312,7.1312,7.1278,7.1278,7.1312,7.1312,7.1312,7.1312,7.1312,7.1312,7.1312,7.1312,7.1312,7.1312,7.1312,7.1312,7.1312,7.1312,7.1312,7.1312,7.1312,7.1312,7.1312,7.1312,7.1312,7.1312,7.1312,7.1312,7.1312,7.1312,7.1312,7.1312,7.1312,7.1312,7.1312,7.1312,7.1312,7.1312,7.1312,7.1312,7.1312,7.1312,7.1312,7.1312,7.1312,7.1312,7.1312,7.1312,7.1312,7.1312,7.1312,7.1312,7.1312,7.1312,7.1176,7.0973,7.0567,7.006,6.9519,6.8977,6.8571,6.8368,6.8808,6.9654,7.0331,7.0737,7.1007,7.1312,7.1312,7.1312,7.1312,7.1278,7.121,7.0737,7.0026,6.9485,6.9383,6.9214,6.8977,6.3679,6.4629,6.5866,6.7177,6.8403,6.9187,6.9888,7.0515,7.1052,7.1312,7.1312,7.1312,7.1312,7.1312,7.1312,7.1312,7.1312,7.1312,7.1312,7.1312,7.1312,7.1278,7.1278,7.1312,7.1176,7.1312,7.1312,7.1278,7.1244,7.1278,7.1312,7.1312,7.1312,7.1312,7.1312,7.1312,7.1312,7.1312,7.1312,7.1312,7.1312,7.1312,7.1312,7.1312,7.1312,7.1312,7.1312,7.1312,7.1312,7.1312,7.1312,7.1312,7.1312,7.1312,7.1312,7.1312,7.1312,7.1312,7.1312,7.1312,7.1312,7.1312,7.1312,7.1312,7.1312,7.1312,7.1312,7.1312,7.1312,7.1312,7.1312,7.1312,7.1345,7.1345,7.1379,7.1379,7.1413,7.1447,7.1379,7.1379,7.1312,7.1312,7.1312,7.1312,7.1312,7.1312,7.1312,7.1312,7.1312,7.1312,7.1312,7.1142,7.0939,7.05,7.0094,6.9722,6.9383,6.9113,6.962,7.0263,7.0432,7.0737,7.1041,7.1312,7.1312,7.1312,7.1312,7.1278,7.1244,7.1075,7.0669,7.0195,6.9891,6.9755,6.9654,6.3762,6.4985,6.6574,6.7889,6.8977,6.9794,7.0561,7.1267,7.1267,7.1312,7.1312,7.1312,7.1312,7.1312,7.1312,7.1312,7.1312,7.1312,7.1312,7.1312,7.1312,7.1312,7.1312,7.1312,7.1312,7.1312,7.1312,7.1312,7.1312,7.1312,7.1312,7.1312,7.1312,7.1312,7.1312,7.1312,7.1312,7.1312,7.1312,7.1312,7.1312,7.1312,7.1312,7.1312,7.1312,7.1312,7.1312,7.1312,7.1312,7.1312,7.1312,7.1312,7.1312,7.1312,7.1312,7.1312,7.1312,7.1312,7.1312,7.1312,7.1312,7.1312,7.1312,7.1312,7.1312,7.1312,7.1312,7.1312,7.1312,7.1312,7.1312,7.1345,7.1379,7.1413,7.1481,7.1548,7.1616,7.1582,7.1515,7.1447,7.1379,7.1345,7.1312,7.1312,7.1312,7.1312,7.1312,7.1312,7.1312,7.1312,7.1312,7.1312,7.1109,7.0939,7.0601,7.0331,7.0195,6.9958,7.006,7.0534,7.0669,7.0804,7.1109,7.1312,7.1312,7.1312,7.1312,7.1312,7.1312,7.1109,7.0939,7.0872,7.0567,7.0737,7.0737,6.4064,6.5853,6.726,6.847,6.9508,7.0515,7.1131,7.1267,7.1312,7.1312,7.1312,7.1312,7.1312,7.1312,7.1312,7.1312,7.1312,7.1312,7.1312,7.1312,7.1312,7.1312,7.1312,7.1312,7.1312,7.1312,7.1312,7.1312,7.1312,7.1312,7.1312,7.1312,7.1312,7.1312,7.1312,7.1312,7.1312,7.1312,7.1312,7.1312,7.1312,7.1312,7.1312,7.1312,7.1312,7.1312,7.1312,7.1312,7.1312,7.1312,7.1312,7.1312,7.1312,7.1312,7.1312,7.1312,7.1312,7.1312,7.1312,7.1312,7.1312,7.1312,7.1312,7.1312,7.1312,7.1312,7.1312,7.1312,7.1312,7.1312,7.1312,7.1345,7.1582,7.1785,7.1921,7.2056,7.2124,7.209,7.1988,7.1616,7.1515,7.1312,7.1312,7.1312,7.1312,7.1312,7.1312,7.1312,7.1312,7.1312,7.1312,7.1312,7.1278,7.1109,7.1142,7.0906,7.0872,7.0838,7.0838,7.0838,7.0973,7.1109,7.1244,7.1312,7.1312,7.1312,7.1312,7.1312,7.1312,7.1312,7.1176,7.1244,7.1312,7.1312,7.1312,6.4429,6.6132,6.7842,6.9235,7.033,7.1007,7.1312,7.1312,7.1312,7.1312,7.1312,7.1312,7.1312,7.1312,7.1312,7.1312,7.1312,7.1312,7.1312,7.1312,7.1312,7.1312,7.1312,7.1312,7.1312,7.1312,7.1312,7.1312,7.1312,7.1312,7.1312,7.1312,7.1312,7.1312,7.1312,7.1312,7.1312,7.1312,7.1312,7.1312,7.1312,7.1312,7.1312,7.1312,7.1312,7.1312,7.1312,7.1312,7.1312,7.1312,7.1312,7.1312,7.1312,7.1312,7.1312,7.1312,7.1312,7.1312,7.1312,7.1312,7.1312,7.1312,7.1312,7.1312,7.1312,7.1312,7.1312,7.1312,7.1312,7.1312,7.1312,7.1379,7.1853,7.2259,7.2496,7.2699,7.2699,7.2665,7.2326,7.1921,7.165,7.1379,7.1312,7.1312,7.1312,7.1312,7.1312,7.1312,7.1312,7.1312,7.1312,7.1312,7.1312,7.1244,7.1312,7.1312,7.121,7.1109,7.1142,7.1176,7.1312,7.1312,7.1312,7.1312,7.1312,7.1312,7.1312,7.1312,7.1312,7.1312,7.1312,7.1312,7.1312,7.1312,7.1312,6.48,6.6097,6.8389,7.0043,7.1222,7.1312,7.1312,7.1312,7.1312,7.1312,7.1312,7.1312,7.1312,7.1312,7.1312,7.1312,7.1312,7.1312,7.1312,7.1312,7.1312,7.1312,7.1312,7.1312,7.1312,7.1312,7.1312,7.1312,7.1312,7.1312,7.1312,7.1312,7.1312,7.1312,7.1312,7.1312,7.1312,7.1312,7.1312,7.1312,7.1312,7.1312,7.1312,7.1312,7.1312,7.1312,7.1312,7.1312,7.1312,7.1312,7.1312,7.1312,7.1312,7.1312,7.1312,7.1312,7.1312,7.1312,7.1312,7.1312,7.1312,7.1312,7.1312,7.1312,7.1312,7.1312,7.1312,7.1312,7.1312,7.1515,7.1582,7.1751,7.2124,7.28,7.324,7.3612,7.3883,7.3409,7.2462,7.1988,7.1515,7.1312,7.1312,7.1312,7.1312,7.1312,7.1312,7.1312,7.1312,7.1312,7.1312,7.1312,7.1312,7.1312,7.1312,7.1312,7.1312,7.1278,7.1312,7.1312,7.1312,7.1312,7.1312,7.1312,7.1312,7.1312,7.1312,7.1312,7.1312,7.1312,7.1312,7.1312,7.1312,7.1312,7.1312,6.5116,6.7034,6.9448,7.0825,7.1267,7.1312,7.1312,7.1312,7.1312,7.1312,7.1312,7.1312,7.1312,7.1312,7.1312,7.1312,7.1312,7.1312,7.1312,7.1312,7.1312,7.1312,7.1312,7.1312,7.1312,7.1312,7.1312,7.1312,7.1312,7.1312,7.1312,7.1312,7.1312,7.1312,7.1312,7.1312,7.1312,7.1312,7.1312,7.1312,7.1312,7.1312,7.1312,7.1312,7.1312,7.1312,7.1312,7.1312,7.1312,7.1312,7.1312,7.1312,7.1312,7.1312,7.1312,7.1312,7.1312,7.1312,7.1312,7.1312,7.1312,7.1312,7.1312,7.1312,7.1312,7.1312,7.1312,7.1312,7.1413,7.165,7.1954,7.2157,7.2462,7.324,7.3916,7.439,7.483,7.3747,7.2597,7.1988,7.1413,7.1312,7.1312,7.1312,7.1312,7.1312,7.1312,7.1312,7.1312,7.1312,7.1312,7.1312,7.1312,7.1312,7.1312,7.1312,7.1312,7.1312,7.1312,7.1312,7.1312,7.1312,7.1312,7.1312,7.1312,7.1312,7.1312,7.1312,7.1312,7.1312,7.1312,7.1312,7.1312,7.1312,7.1312,6.5472,6.7279,6.9942,7.1176,7.1267,7.1312,7.1312,7.1312,7.1312,7.1312,7.1312,7.1312,7.1312,7.1312,7.1312,7.1312,7.1312,7.1312,7.1312,7.1312,7.1312,7.1312,7.1312,7.1312,7.1312,7.1312,7.1312,7.1312,7.1312,7.1312,7.1312,7.1312,7.1312,7.1312,7.1312,7.1312,7.1312,7.1312,7.1312,7.1312,7.1312,7.1312,7.1312,7.1312,7.1312,7.1312,7.1312,7.1312,7.1312,7.1312,7.1312,7.1312,7.1312,7.1312,7.1312,7.1312,7.1312,7.1312,7.1312,7.1312,7.1312,7.1312,7.1312,7.1312,7.1312,7.1312,7.1312,7.1312,7.1312,7.1515,7.2056,7.2326,7.2732,7.3375,7.3578,7.3849,7.3747,7.3037,7.2191,7.1616,7.1312,7.1312,7.1312,7.1312,7.1312,7.1312,7.1312,7.1312,7.1312,7.1312,7.1312,7.1312,7.1312,7.1312,7.1312,7.1312,7.1312,7.1312,7.1312,7.1312,7.1312,7.1312,7.1312,7.1312,7.1312,7.1312,7.1312,7.1312,7.1312,7.1312,7.1312,7.1312,7.1312,7.1312,7.1312,6.5966,6.7669,7.015,7.1267,7.1312,7.1312,7.1312,7.1312,7.1312,7.1312,7.1312,7.1312,7.1312,7.1312,7.1312,7.1312,7.1312,7.1312,7.1312,7.1312,7.1312,7.1312,7.1312,7.1312,7.1312,7.1312,7.1312,7.1312,7.1312,7.1312,7.1312,7.1312,7.1312,7.1312,7.1312,7.1312,7.1312,7.1312,7.1312,7.1312,7.1312,7.1312,7.1312,7.1312,7.1312,7.1312,7.1312,7.1312,7.1312,7.1312,7.1312,7.1312,7.1312,7.1312,7.1312,7.1312,7.1312,7.1312,7.1312,7.1312,7.1312,7.1312,7.1312,7.1312,7.1312,7.1345,7.1345,7.1515,7.1515,7.1819,7.236,7.2665,7.3071,7.3375,7.3409,7.324,7.2834,7.2496,7.1954,7.1379,7.1312,7.1312,7.1312,7.1312,7.1312,7.1312,7.1312,7.1312,7.1312,7.1312,7.1312,7.1312,7.1312,7.1312,7.1312,7.1312,7.1312,7.1312,7.1312,7.1312,7.1312,7.1312,7.1312,7.1312,7.1312,7.1312,7.1312,7.1312,7.1312,7.1312,7.1312,7.1312,7.1312,7.1312,7.1312,6.6631,6.9883,7.0678,7.1131,7.1267,7.1312,7.1312,7.1312,7.1312,7.1312,7.1312,7.1312,7.1312,7.1312,7.1312,7.1312,7.1312,7.1312,7.1312,7.1312,7.1312,7.1312,7.1312,7.1312,7.1312,7.1312,7.1312,7.1312,7.1312,7.1312,7.1312,7.1312,7.1312,7.1312,7.1312,7.1312,7.1312,7.1312,7.1312,7.1312,7.1312,7.1312,7.1312,7.1312,7.1312,7.1312,7.1312,7.1312,7.1312,7.1312,7.1312,7.1312,7.1312,7.1312,7.1312,7.1312,7.1312,7.1312,7.1312,7.1312,7.1312,7.1312,7.1312,7.1379,7.1413,7.1447,7.1684,7.2293,7.2462,7.2868,7.324,7.3206,7.3443,7.3578,7.3646,7.3037,7.2496,7.2293,7.1954,7.1548,7.1312,7.1312,7.1312,7.1312,7.1312,7.1312,7.1312,7.1312,7.1312,7.1312,7.1312,7.1312,7.1312,7.1312,7.1312,7.1312,7.1312,7.1312,7.1312,7.1312,7.1312,7.1312,7.1312,7.1312,7.1312,7.1312,7.1312,7.1312,7.1312,7.1312,7.1312,7.1312,7.1312,7.1312,7.1312]}]]